﻿<?xml version="1.0" encoding="UTF-8" standalone="no" ?>
<gpx xmlns="http://www.topografix.com/GPX/1/1" creator="CompeGPS" version="1.1" xmlns:xsi="http://www.w3.org/2001/XMLSchema-instance" xsi:schemaLocation="http://www.topografix.com/GPX/1/1 http://www.topografix.com/GPX/1/1/gpx.xsd http://www.garmin.com/xmlschemas/GpxExtensions/v3 http://www.garmin.com/xmlschemas/GpxExtensionsv3.xsd http://www.garmin.com/xmlschemas/TrackPointExtension/v1 http://www.garmin.com/xmlschemas/TrackPointExtensionv1.xsd" xmlns:gpxtpx="http://www.garmin.com/xmlschemas/TrackPointExtension/v1">
  <metadata>
    <link href="http://www.compegps.com">
      <text>CompeGPS TEAM, SL</text>
    </link>
    <time>2014-12-07T19:28:27Z</time>
    <bounds maxlat="42.872409" maxlon="0.678072" minlat="42.852424" minlon="0.617969"/>
  </metadata>
  <trk>
    <name>pic_de_la_hage</name>
    <trkseg>
      <trkpt lat="42.855375" lon="0.620529">
        <ele>964.0</ele>
        <time>2014-12-07T07:16:52Z</time>
      </trkpt>
      <trkpt lat="42.855443" lon="0.620502">
        <ele>964.4</ele>
        <time>2014-12-07T07:18:22Z</time>
      </trkpt>
      <trkpt lat="42.855539" lon="0.620463">
        <ele>965.1</ele>
        <time>2014-12-07T07:18:31Z</time>
      </trkpt>
      <trkpt lat="42.855641" lon="0.620469">
        <ele>966.5</ele>
        <time>2014-12-07T07:18:40Z</time>
      </trkpt>
      <trkpt lat="42.855734" lon="0.620467">
        <ele>968.0</ele>
        <time>2014-12-07T07:18:48Z</time>
      </trkpt>
      <trkpt lat="42.855829" lon="0.620466">
        <ele>969.2</ele>
        <time>2014-12-07T07:18:56Z</time>
      </trkpt>
      <trkpt lat="42.855917" lon="0.620444">
        <ele>970.3</ele>
        <time>2014-12-07T07:19:04Z</time>
      </trkpt>
      <trkpt lat="42.856029" lon="0.620399">
        <ele>971.2</ele>
        <time>2014-12-07T07:19:12Z</time>
      </trkpt>
      <trkpt lat="42.856132" lon="0.620359">
        <ele>971.4</ele>
        <time>2014-12-07T07:19:19Z</time>
      </trkpt>
      <trkpt lat="42.856225" lon="0.620325">
        <ele>971.4</ele>
        <time>2014-12-07T07:19:26Z</time>
      </trkpt>
      <trkpt lat="42.856313" lon="0.620262">
        <ele>971.6</ele>
        <time>2014-12-07T07:19:33Z</time>
      </trkpt>
      <trkpt lat="42.856399" lon="0.620197">
        <ele>972.3</ele>
        <time>2014-12-07T07:19:40Z</time>
      </trkpt>
      <trkpt lat="42.856475" lon="0.620130">
        <ele>972.8</ele>
        <time>2014-12-07T07:19:47Z</time>
      </trkpt>
      <trkpt lat="42.856565" lon="0.620105">
        <ele>973.3</ele>
        <time>2014-12-07T07:19:54Z</time>
      </trkpt>
      <trkpt lat="42.856652" lon="0.620124">
        <ele>974.3</ele>
        <time>2014-12-07T07:20:02Z</time>
      </trkpt>
      <trkpt lat="42.856749" lon="0.620138">
        <ele>975.5</ele>
        <time>2014-12-07T07:20:09Z</time>
      </trkpt>
      <trkpt lat="42.856838" lon="0.620118">
        <ele>976.2</ele>
        <time>2014-12-07T07:20:16Z</time>
      </trkpt>
      <trkpt lat="42.856926" lon="0.620086">
        <ele>976.9</ele>
        <time>2014-12-07T07:20:23Z</time>
      </trkpt>
      <trkpt lat="42.857009" lon="0.620053">
        <ele>977.4</ele>
        <time>2014-12-07T07:20:31Z</time>
      </trkpt>
      <trkpt lat="42.857075" lon="0.619961">
        <ele>978.4</ele>
        <time>2014-12-07T07:20:39Z</time>
      </trkpt>
      <trkpt lat="42.857133" lon="0.619874">
        <ele>978.9</ele>
        <time>2014-12-07T07:20:48Z</time>
      </trkpt>
      <trkpt lat="42.857102" lon="0.619738">
        <ele>977.6</ele>
        <time>2014-12-07T07:20:57Z</time>
      </trkpt>
      <trkpt lat="42.857115" lon="0.619597">
        <ele>975.6</ele>
        <time>2014-12-07T07:21:06Z</time>
      </trkpt>
      <trkpt lat="42.857204" lon="0.619541">
        <ele>974.5</ele>
        <time>2014-12-07T07:21:13Z</time>
      </trkpt>
      <trkpt lat="42.857285" lon="0.619588">
        <ele>972.9</ele>
        <time>2014-12-07T07:21:21Z</time>
      </trkpt>
      <trkpt lat="42.857377" lon="0.619637">
        <ele>971.2</ele>
        <time>2014-12-07T07:21:28Z</time>
      </trkpt>
      <trkpt lat="42.857474" lon="0.619687">
        <ele>970.2</ele>
        <time>2014-12-07T07:21:36Z</time>
      </trkpt>
      <trkpt lat="42.857568" lon="0.619701">
        <ele>969.6</ele>
        <time>2014-12-07T07:21:43Z</time>
      </trkpt>
      <trkpt lat="42.857663" lon="0.619720">
        <ele>969.1</ele>
        <time>2014-12-07T07:21:50Z</time>
      </trkpt>
      <trkpt lat="42.857761" lon="0.619703">
        <ele>968.9</ele>
        <time>2014-12-07T07:21:57Z</time>
      </trkpt>
      <trkpt lat="42.857862" lon="0.619692">
        <ele>968.1</ele>
        <time>2014-12-07T07:22:04Z</time>
      </trkpt>
      <trkpt lat="42.857956" lon="0.619645">
        <ele>967.4</ele>
        <time>2014-12-07T07:22:10Z</time>
      </trkpt>
      <trkpt lat="42.858052" lon="0.619605">
        <ele>966.0</ele>
        <time>2014-12-07T07:22:17Z</time>
      </trkpt>
      <trkpt lat="42.858133" lon="0.619560">
        <ele>964.0</ele>
        <time>2014-12-07T07:22:24Z</time>
      </trkpt>
      <trkpt lat="42.858221" lon="0.619531">
        <ele>962.6</ele>
        <time>2014-12-07T07:22:31Z</time>
      </trkpt>
      <trkpt lat="42.858304" lon="0.619472">
        <ele>960.9</ele>
        <time>2014-12-07T07:22:38Z</time>
      </trkpt>
      <trkpt lat="42.858400" lon="0.619429">
        <ele>959.2</ele>
        <time>2014-12-07T07:22:45Z</time>
      </trkpt>
      <trkpt lat="42.858507" lon="0.619412">
        <ele>958.3</ele>
        <time>2014-12-07T07:22:52Z</time>
      </trkpt>
      <trkpt lat="42.858597" lon="0.619375">
        <ele>957.1</ele>
        <time>2014-12-07T07:22:59Z</time>
      </trkpt>
      <trkpt lat="42.858681" lon="0.619317">
        <ele>955.6</ele>
        <time>2014-12-07T07:23:06Z</time>
      </trkpt>
      <trkpt lat="42.858767" lon="0.619241">
        <ele>954.1</ele>
        <time>2014-12-07T07:23:13Z</time>
      </trkpt>
      <trkpt lat="42.858855" lon="0.619183">
        <ele>952.6</ele>
        <time>2014-12-07T07:23:20Z</time>
      </trkpt>
      <trkpt lat="42.858942" lon="0.619142">
        <ele>951.3</ele>
        <time>2014-12-07T07:23:26Z</time>
      </trkpt>
      <trkpt lat="42.859031" lon="0.619106">
        <ele>949.7</ele>
        <time>2014-12-07T07:23:33Z</time>
      </trkpt>
      <trkpt lat="42.859120" lon="0.619049">
        <ele>948.5</ele>
        <time>2014-12-07T07:23:40Z</time>
      </trkpt>
      <trkpt lat="42.859210" lon="0.618992">
        <ele>947.5</ele>
        <time>2014-12-07T07:23:47Z</time>
      </trkpt>
      <trkpt lat="42.859287" lon="0.618925">
        <ele>946.3</ele>
        <time>2014-12-07T07:23:54Z</time>
      </trkpt>
      <trkpt lat="42.859355" lon="0.618856">
        <ele>945.6</ele>
        <time>2014-12-07T07:24:00Z</time>
      </trkpt>
      <trkpt lat="42.859433" lon="0.618765">
        <ele>944.8</ele>
        <time>2014-12-07T07:24:08Z</time>
      </trkpt>
      <trkpt lat="42.859508" lon="0.618682">
        <ele>944.6</ele>
        <time>2014-12-07T07:24:15Z</time>
      </trkpt>
      <trkpt lat="42.859578" lon="0.618589">
        <ele>944.3</ele>
        <time>2014-12-07T07:24:22Z</time>
      </trkpt>
      <trkpt lat="42.859641" lon="0.618483">
        <ele>943.7</ele>
        <time>2014-12-07T07:24:29Z</time>
      </trkpt>
      <trkpt lat="42.859705" lon="0.618374">
        <ele>943.0</ele>
        <time>2014-12-07T07:24:36Z</time>
      </trkpt>
      <trkpt lat="42.859778" lon="0.618275">
        <ele>942.4</ele>
        <time>2014-12-07T07:24:43Z</time>
      </trkpt>
      <trkpt lat="42.859837" lon="0.618152">
        <ele>941.9</ele>
        <time>2014-12-07T07:24:50Z</time>
      </trkpt>
      <trkpt lat="42.859902" lon="0.618048">
        <ele>941.3</ele>
        <time>2014-12-07T07:24:57Z</time>
      </trkpt>
      <trkpt lat="42.859978" lon="0.617976">
        <ele>940.8</ele>
        <time>2014-12-07T07:25:03Z</time>
      </trkpt>
      <trkpt lat="42.860065" lon="0.617969">
        <ele>940.2</ele>
        <time>2014-12-07T07:25:09Z</time>
      </trkpt>
      <trkpt lat="42.860147" lon="0.618041">
        <ele>939.5</ele>
        <time>2014-12-07T07:25:17Z</time>
      </trkpt>
      <trkpt lat="42.860228" lon="0.618116">
        <ele>937.7</ele>
        <time>2014-12-07T07:25:25Z</time>
      </trkpt>
      <trkpt lat="42.860290" lon="0.618201">
        <ele>936.2</ele>
        <time>2014-12-07T07:25:32Z</time>
      </trkpt>
      <trkpt lat="42.860378" lon="0.618266">
        <ele>934.6</ele>
        <time>2014-12-07T07:25:39Z</time>
      </trkpt>
      <trkpt lat="42.860460" lon="0.618330">
        <ele>933.5</ele>
        <time>2014-12-07T07:25:45Z</time>
      </trkpt>
      <trkpt lat="42.860541" lon="0.618403">
        <ele>932.4</ele>
        <time>2014-12-07T07:25:52Z</time>
      </trkpt>
      <trkpt lat="42.860602" lon="0.618487">
        <ele>931.5</ele>
        <time>2014-12-07T07:25:59Z</time>
      </trkpt>
      <trkpt lat="42.860630" lon="0.618586">
        <ele>930.8</ele>
        <time>2014-12-07T07:26:06Z</time>
      </trkpt>
      <trkpt lat="42.860615" lon="0.618721">
        <ele>928.8</ele>
        <time>2014-12-07T07:26:15Z</time>
      </trkpt>
      <trkpt lat="42.860603" lon="0.618847">
        <ele>927.0</ele>
        <time>2014-12-07T07:26:22Z</time>
      </trkpt>
      <trkpt lat="42.860605" lon="0.619002">
        <ele>925.0</ele>
        <time>2014-12-07T07:26:30Z</time>
      </trkpt>
      <trkpt lat="42.860619" lon="0.619128">
        <ele>923.3</ele>
        <time>2014-12-07T07:26:39Z</time>
      </trkpt>
      <trkpt lat="42.860660" lon="0.619233">
        <ele>922.8</ele>
        <time>2014-12-07T07:26:59Z</time>
      </trkpt>
      <trkpt lat="42.860709" lon="0.619367">
        <ele>923.6</ele>
        <time>2014-12-07T07:27:08Z</time>
      </trkpt>
      <trkpt lat="42.860743" lon="0.619466">
        <ele>924.2</ele>
        <time>2014-12-07T07:27:15Z</time>
      </trkpt>
      <trkpt lat="42.860746" lon="0.619585">
        <ele>925.2</ele>
        <time>2014-12-07T07:27:23Z</time>
      </trkpt>
      <trkpt lat="42.860726" lon="0.619703">
        <ele>926.4</ele>
        <time>2014-12-07T07:27:31Z</time>
      </trkpt>
      <trkpt lat="42.860691" lon="0.619845">
        <ele>926.8</ele>
        <time>2014-12-07T07:27:39Z</time>
      </trkpt>
      <trkpt lat="42.860683" lon="0.619973">
        <ele>926.9</ele>
        <time>2014-12-07T07:27:46Z</time>
      </trkpt>
      <trkpt lat="42.860670" lon="0.620111">
        <ele>927.2</ele>
        <time>2014-12-07T07:27:53Z</time>
      </trkpt>
      <trkpt lat="42.860648" lon="0.620252">
        <ele>927.1</ele>
        <time>2014-12-07T07:28:01Z</time>
      </trkpt>
      <trkpt lat="42.860657" lon="0.620391">
        <ele>927.1</ele>
        <time>2014-12-07T07:28:09Z</time>
      </trkpt>
      <trkpt lat="42.860664" lon="0.620511">
        <ele>926.9</ele>
        <time>2014-12-07T07:28:18Z</time>
      </trkpt>
      <trkpt lat="42.860752" lon="0.620575">
        <ele>927.2</ele>
        <time>2014-12-07T07:28:28Z</time>
      </trkpt>
      <trkpt lat="42.860821" lon="0.620741">
        <ele>926.8</ele>
        <time>2014-12-07T07:28:37Z</time>
      </trkpt>
      <trkpt lat="42.860933" lon="0.620811">
        <ele>924.5</ele>
        <time>2014-12-07T07:28:47Z</time>
      </trkpt>
      <trkpt lat="42.861043" lon="0.620856">
        <ele>921.4</ele>
        <time>2014-12-07T07:28:56Z</time>
      </trkpt>
      <trkpt lat="42.861136" lon="0.620937">
        <ele>919.8</ele>
        <time>2014-12-07T07:29:04Z</time>
      </trkpt>
      <trkpt lat="42.861170" lon="0.621118">
        <ele>918.4</ele>
        <time>2014-12-07T07:29:12Z</time>
      </trkpt>
      <trkpt lat="42.861181" lon="0.621283">
        <ele>917.2</ele>
        <time>2014-12-07T07:29:19Z</time>
      </trkpt>
      <trkpt lat="42.861190" lon="0.621418">
        <ele>916.3</ele>
        <time>2014-12-07T07:29:26Z</time>
      </trkpt>
      <trkpt lat="42.861186" lon="0.621540">
        <ele>915.4</ele>
        <time>2014-12-07T07:29:33Z</time>
      </trkpt>
      <trkpt lat="42.861184" lon="0.621669">
        <ele>914.5</ele>
        <time>2014-12-07T07:29:40Z</time>
      </trkpt>
      <trkpt lat="42.861218" lon="0.621814">
        <ele>913.1</ele>
        <time>2014-12-07T07:29:51Z</time>
      </trkpt>
      <trkpt lat="42.861279" lon="0.621903">
        <ele>912.4</ele>
        <time>2014-12-07T07:30:08Z</time>
      </trkpt>
      <trkpt lat="42.861341" lon="0.621816">
        <ele>912.8</ele>
        <time>2014-12-07T07:30:18Z</time>
      </trkpt>
      <trkpt lat="42.861399" lon="0.621714">
        <ele>914.9</ele>
        <time>2014-12-07T07:30:29Z</time>
      </trkpt>
      <trkpt lat="42.861459" lon="0.621624">
        <ele>916.4</ele>
        <time>2014-12-07T07:30:38Z</time>
      </trkpt>
      <trkpt lat="42.861509" lon="0.621510">
        <ele>917.6</ele>
        <time>2014-12-07T07:30:47Z</time>
      </trkpt>
      <trkpt lat="42.861568" lon="0.621393">
        <ele>918.0</ele>
        <time>2014-12-07T07:30:55Z</time>
      </trkpt>
      <trkpt lat="42.861632" lon="0.621290">
        <ele>918.2</ele>
        <time>2014-12-07T07:31:03Z</time>
      </trkpt>
      <trkpt lat="42.861680" lon="0.621177">
        <ele>918.5</ele>
        <time>2014-12-07T07:31:11Z</time>
      </trkpt>
      <trkpt lat="42.861719" lon="0.621065">
        <ele>918.8</ele>
        <time>2014-12-07T07:31:19Z</time>
      </trkpt>
      <trkpt lat="42.861713" lon="0.620938">
        <ele>918.7</ele>
        <time>2014-12-07T07:31:26Z</time>
      </trkpt>
      <trkpt lat="42.861728" lon="0.620806">
        <ele>917.7</ele>
        <time>2014-12-07T07:31:34Z</time>
      </trkpt>
      <trkpt lat="42.861727" lon="0.620666">
        <ele>915.8</ele>
        <time>2014-12-07T07:31:44Z</time>
      </trkpt>
      <trkpt lat="42.861740" lon="0.620536">
        <ele>913.3</ele>
        <time>2014-12-07T07:31:52Z</time>
      </trkpt>
      <trkpt lat="42.861779" lon="0.620411">
        <ele>910.5</ele>
        <time>2014-12-07T07:32:00Z</time>
      </trkpt>
      <trkpt lat="42.861842" lon="0.620316">
        <ele>908.3</ele>
        <time>2014-12-07T07:32:07Z</time>
      </trkpt>
      <trkpt lat="42.861934" lon="0.620265">
        <ele>906.6</ele>
        <time>2014-12-07T07:32:14Z</time>
      </trkpt>
      <trkpt lat="42.862027" lon="0.620236">
        <ele>906.2</ele>
        <time>2014-12-07T07:32:24Z</time>
      </trkpt>
      <trkpt lat="42.862118" lon="0.620181">
        <ele>907.3</ele>
        <time>2014-12-07T07:32:33Z</time>
      </trkpt>
      <trkpt lat="42.862196" lon="0.620111">
        <ele>907.8</ele>
        <time>2014-12-07T07:32:41Z</time>
      </trkpt>
      <trkpt lat="42.862281" lon="0.620043">
        <ele>908.4</ele>
        <time>2014-12-07T07:32:50Z</time>
      </trkpt>
      <trkpt lat="42.862359" lon="0.619964">
        <ele>909.3</ele>
        <time>2014-12-07T07:32:59Z</time>
      </trkpt>
      <trkpt lat="42.862437" lon="0.619901">
        <ele>910.2</ele>
        <time>2014-12-07T07:33:07Z</time>
      </trkpt>
      <trkpt lat="42.862518" lon="0.619824">
        <ele>911.3</ele>
        <time>2014-12-07T07:33:16Z</time>
      </trkpt>
      <trkpt lat="42.862600" lon="0.619742">
        <ele>911.9</ele>
        <time>2014-12-07T07:33:25Z</time>
      </trkpt>
      <trkpt lat="42.862675" lon="0.619674">
        <ele>913.0</ele>
        <time>2014-12-07T07:33:33Z</time>
      </trkpt>
      <trkpt lat="42.862760" lon="0.619602">
        <ele>913.6</ele>
        <time>2014-12-07T07:33:41Z</time>
      </trkpt>
      <trkpt lat="42.862836" lon="0.619529">
        <ele>914.2</ele>
        <time>2014-12-07T07:33:49Z</time>
      </trkpt>
      <trkpt lat="42.862921" lon="0.619480">
        <ele>914.9</ele>
        <time>2014-12-07T07:33:57Z</time>
      </trkpt>
      <trkpt lat="42.863015" lon="0.619444">
        <ele>916.0</ele>
        <time>2014-12-07T07:34:06Z</time>
      </trkpt>
      <trkpt lat="42.863119" lon="0.619430">
        <ele>916.5</ele>
        <time>2014-12-07T07:34:14Z</time>
      </trkpt>
      <trkpt lat="42.863220" lon="0.619417">
        <ele>916.7</ele>
        <time>2014-12-07T07:34:22Z</time>
      </trkpt>
      <trkpt lat="42.863313" lon="0.619407">
        <ele>916.9</ele>
        <time>2014-12-07T07:34:30Z</time>
      </trkpt>
      <trkpt lat="42.863411" lon="0.619385">
        <ele>917.4</ele>
        <time>2014-12-07T07:34:39Z</time>
      </trkpt>
      <trkpt lat="42.863505" lon="0.619388">
        <ele>918.7</ele>
        <time>2014-12-07T07:34:49Z</time>
      </trkpt>
      <trkpt lat="42.863592" lon="0.619430">
        <ele>920.4</ele>
        <time>2014-12-07T07:34:59Z</time>
      </trkpt>
      <trkpt lat="42.863636" lon="0.619564">
        <ele>923.0</ele>
        <time>2014-12-07T07:35:11Z</time>
      </trkpt>
      <trkpt lat="42.863679" lon="0.619691">
        <ele>924.7</ele>
        <time>2014-12-07T07:35:22Z</time>
      </trkpt>
      <trkpt lat="42.863698" lon="0.619844">
        <ele>925.2</ele>
        <time>2014-12-07T07:35:31Z</time>
      </trkpt>
      <trkpt lat="42.863737" lon="0.619971">
        <ele>925.6</ele>
        <time>2014-12-07T07:35:40Z</time>
      </trkpt>
      <trkpt lat="42.863762" lon="0.620107">
        <ele>926.0</ele>
        <time>2014-12-07T07:35:48Z</time>
      </trkpt>
      <trkpt lat="42.863779" lon="0.620248">
        <ele>925.9</ele>
        <time>2014-12-07T07:35:56Z</time>
      </trkpt>
      <trkpt lat="42.863814" lon="0.620387">
        <ele>925.9</ele>
        <time>2014-12-07T07:36:05Z</time>
      </trkpt>
      <trkpt lat="42.863884" lon="0.620486">
        <ele>926.4</ele>
        <time>2014-12-07T07:36:14Z</time>
      </trkpt>
      <trkpt lat="42.863963" lon="0.620606">
        <ele>926.9</ele>
        <time>2014-12-07T07:36:25Z</time>
      </trkpt>
      <trkpt lat="42.864049" lon="0.620664">
        <ele>927.8</ele>
        <time>2014-12-07T07:36:34Z</time>
      </trkpt>
      <trkpt lat="42.864130" lon="0.620734">
        <ele>929.3</ele>
        <time>2014-12-07T07:36:44Z</time>
      </trkpt>
      <trkpt lat="42.864176" lon="0.620892">
        <ele>931.0</ele>
        <time>2014-12-07T07:36:55Z</time>
      </trkpt>
      <trkpt lat="42.864234" lon="0.621047">
        <ele>932.3</ele>
        <time>2014-12-07T07:37:04Z</time>
      </trkpt>
      <trkpt lat="42.864296" lon="0.621188">
        <ele>932.2</ele>
        <time>2014-12-07T07:37:12Z</time>
      </trkpt>
      <trkpt lat="42.864331" lon="0.621315">
        <ele>932.5</ele>
        <time>2014-12-07T07:37:20Z</time>
      </trkpt>
      <trkpt lat="42.864372" lon="0.621447">
        <ele>934.0</ele>
        <time>2014-12-07T07:37:29Z</time>
      </trkpt>
      <trkpt lat="42.864428" lon="0.621582">
        <ele>935.1</ele>
        <time>2014-12-07T07:37:40Z</time>
      </trkpt>
      <trkpt lat="42.864503" lon="0.621678">
        <ele>935.9</ele>
        <time>2014-12-07T07:37:49Z</time>
      </trkpt>
      <trkpt lat="42.864580" lon="0.621738">
        <ele>936.2</ele>
        <time>2014-12-07T07:37:58Z</time>
      </trkpt>
      <trkpt lat="42.864665" lon="0.621812">
        <ele>936.5</ele>
        <time>2014-12-07T07:38:09Z</time>
      </trkpt>
      <trkpt lat="42.864788" lon="0.621856">
        <ele>936.2</ele>
        <time>2014-12-07T07:38:16Z</time>
      </trkpt>
      <trkpt lat="42.864839" lon="0.621966">
        <ele>935.5</ele>
        <time>2014-12-07T07:38:25Z</time>
      </trkpt>
      <trkpt lat="42.864825" lon="0.622111">
        <ele>935.3</ele>
        <time>2014-12-07T07:38:33Z</time>
      </trkpt>
      <trkpt lat="42.864792" lon="0.622250">
        <ele>936.5</ele>
        <time>2014-12-07T07:38:42Z</time>
      </trkpt>
      <trkpt lat="42.864753" lon="0.622377">
        <ele>937.7</ele>
        <time>2014-12-07T07:38:50Z</time>
      </trkpt>
      <trkpt lat="42.864764" lon="0.622521">
        <ele>939.5</ele>
        <time>2014-12-07T07:39:01Z</time>
      </trkpt>
      <trkpt lat="42.864733" lon="0.622630">
        <ele>941.8</ele>
        <time>2014-12-07T07:39:10Z</time>
      </trkpt>
      <trkpt lat="42.864685" lon="0.622736">
        <ele>943.3</ele>
        <time>2014-12-07T07:39:20Z</time>
      </trkpt>
      <trkpt lat="42.864711" lon="0.622850">
        <ele>943.8</ele>
        <time>2014-12-07T07:39:44Z</time>
      </trkpt>
      <trkpt lat="42.864776" lon="0.622995">
        <ele>941.8</ele>
        <time>2014-12-07T07:39:57Z</time>
      </trkpt>
      <trkpt lat="42.864821" lon="0.623128">
        <ele>940.9</ele>
        <time>2014-12-07T07:40:06Z</time>
      </trkpt>
      <trkpt lat="42.864870" lon="0.623247">
        <ele>940.7</ele>
        <time>2014-12-07T07:40:16Z</time>
      </trkpt>
      <trkpt lat="42.864937" lon="0.623363">
        <ele>940.5</ele>
        <time>2014-12-07T07:40:27Z</time>
      </trkpt>
      <trkpt lat="42.864971" lon="0.623492">
        <ele>941.9</ele>
        <time>2014-12-07T07:40:37Z</time>
      </trkpt>
      <trkpt lat="42.864975" lon="0.623627">
        <ele>943.9</ele>
        <time>2014-12-07T07:40:49Z</time>
      </trkpt>
      <trkpt lat="42.865045" lon="0.623647">
        <ele>945.5</ele>
        <time>2014-12-07T07:41:01Z</time>
      </trkpt>
      <trkpt lat="42.865083" lon="0.623566">
        <ele>946.1</ele>
        <time>2014-12-07T07:41:11Z</time>
      </trkpt>
      <trkpt lat="42.865142" lon="0.623482">
        <ele>948.0</ele>
        <time>2014-12-07T07:41:22Z</time>
      </trkpt>
      <trkpt lat="42.865229" lon="0.623418">
        <ele>950.4</ele>
        <time>2014-12-07T07:41:33Z</time>
      </trkpt>
      <trkpt lat="42.865318" lon="0.623358">
        <ele>952.7</ele>
        <time>2014-12-07T07:41:44Z</time>
      </trkpt>
      <trkpt lat="42.865401" lon="0.623281">
        <ele>954.8</ele>
        <time>2014-12-07T07:41:54Z</time>
      </trkpt>
      <trkpt lat="42.865484" lon="0.623209">
        <ele>956.2</ele>
        <time>2014-12-07T07:42:03Z</time>
      </trkpt>
      <trkpt lat="42.865556" lon="0.623120">
        <ele>957.2</ele>
        <time>2014-12-07T07:42:11Z</time>
      </trkpt>
      <trkpt lat="42.865629" lon="0.623043">
        <ele>957.8</ele>
        <time>2014-12-07T07:42:19Z</time>
      </trkpt>
      <trkpt lat="42.865688" lon="0.622955">
        <ele>958.7</ele>
        <time>2014-12-07T07:42:27Z</time>
      </trkpt>
      <trkpt lat="42.865754" lon="0.622872">
        <ele>959.3</ele>
        <time>2014-12-07T07:42:35Z</time>
      </trkpt>
      <trkpt lat="42.865831" lon="0.622793">
        <ele>960.2</ele>
        <time>2014-12-07T07:42:43Z</time>
      </trkpt>
      <trkpt lat="42.865897" lon="0.622702">
        <ele>960.7</ele>
        <time>2014-12-07T07:42:52Z</time>
      </trkpt>
      <trkpt lat="42.865933" lon="0.622590">
        <ele>961.3</ele>
        <time>2014-12-07T07:43:01Z</time>
      </trkpt>
      <trkpt lat="42.865977" lon="0.622476">
        <ele>962.3</ele>
        <time>2014-12-07T07:43:10Z</time>
      </trkpt>
      <trkpt lat="42.866030" lon="0.622364">
        <ele>962.8</ele>
        <time>2014-12-07T07:43:18Z</time>
      </trkpt>
      <trkpt lat="42.866070" lon="0.622246">
        <ele>963.1</ele>
        <time>2014-12-07T07:43:26Z</time>
      </trkpt>
      <trkpt lat="42.866118" lon="0.622154">
        <ele>962.3</ele>
        <time>2014-12-07T07:43:59Z</time>
      </trkpt>
      <trkpt lat="42.866126" lon="0.622187">
        <ele>961.9</ele>
        <time>2014-12-07T07:45:46Z</time>
      </trkpt>
      <trkpt lat="42.866140" lon="0.622171">
        <ele>961.7</ele>
        <time>2014-12-07T07:48:01Z</time>
      </trkpt>
      <trkpt lat="42.866143" lon="0.622299">
        <ele>963.0</ele>
        <time>2014-12-07T07:48:13Z</time>
      </trkpt>
      <trkpt lat="42.866111" lon="0.622400">
        <ele>965.5</ele>
        <time>2014-12-07T07:48:26Z</time>
      </trkpt>
      <trkpt lat="42.866085" lon="0.622527">
        <ele>967.7</ele>
        <time>2014-12-07T07:48:37Z</time>
      </trkpt>
      <trkpt lat="42.866036" lon="0.622630">
        <ele>969.6</ele>
        <time>2014-12-07T07:48:47Z</time>
      </trkpt>
      <trkpt lat="42.866011" lon="0.622735">
        <ele>971.7</ele>
        <time>2014-12-07T07:48:58Z</time>
      </trkpt>
      <trkpt lat="42.865982" lon="0.622846">
        <ele>973.5</ele>
        <time>2014-12-07T07:49:09Z</time>
      </trkpt>
      <trkpt lat="42.865932" lon="0.622971">
        <ele>974.8</ele>
        <time>2014-12-07T07:49:18Z</time>
      </trkpt>
      <trkpt lat="42.865887" lon="0.623089">
        <ele>975.8</ele>
        <time>2014-12-07T07:49:26Z</time>
      </trkpt>
      <trkpt lat="42.865844" lon="0.623212">
        <ele>976.7</ele>
        <time>2014-12-07T07:49:34Z</time>
      </trkpt>
      <trkpt lat="42.865806" lon="0.623328">
        <ele>977.4</ele>
        <time>2014-12-07T07:49:42Z</time>
      </trkpt>
      <trkpt lat="42.865760" lon="0.623454">
        <ele>978.1</ele>
        <time>2014-12-07T07:49:51Z</time>
      </trkpt>
      <trkpt lat="42.865719" lon="0.623556">
        <ele>979.1</ele>
        <time>2014-12-07T07:49:59Z</time>
      </trkpt>
      <trkpt lat="42.865663" lon="0.623653">
        <ele>980.3</ele>
        <time>2014-12-07T07:50:07Z</time>
      </trkpt>
      <trkpt lat="42.865604" lon="0.623749">
        <ele>982.0</ele>
        <time>2014-12-07T07:50:15Z</time>
      </trkpt>
      <trkpt lat="42.865583" lon="0.623850">
        <ele>983.7</ele>
        <time>2014-12-07T07:50:37Z</time>
      </trkpt>
      <trkpt lat="42.865564" lon="0.623970">
        <ele>984.9</ele>
        <time>2014-12-07T07:50:46Z</time>
      </trkpt>
      <trkpt lat="42.865514" lon="0.624069">
        <ele>986.5</ele>
        <time>2014-12-07T07:50:55Z</time>
      </trkpt>
      <trkpt lat="42.865468" lon="0.624181">
        <ele>988.7</ele>
        <time>2014-12-07T07:51:04Z</time>
      </trkpt>
      <trkpt lat="42.865435" lon="0.624297">
        <ele>990.6</ele>
        <time>2014-12-07T07:51:13Z</time>
      </trkpt>
      <trkpt lat="42.865403" lon="0.624422">
        <ele>992.7</ele>
        <time>2014-12-07T07:51:23Z</time>
      </trkpt>
      <trkpt lat="42.865380" lon="0.624540">
        <ele>995.1</ele>
        <time>2014-12-07T07:51:33Z</time>
      </trkpt>
      <trkpt lat="42.865360" lon="0.624647">
        <ele>997.7</ele>
        <time>2014-12-07T07:51:44Z</time>
      </trkpt>
      <trkpt lat="42.865350" lon="0.624769">
        <ele>1000.4</ele>
        <time>2014-12-07T07:51:56Z</time>
      </trkpt>
      <trkpt lat="42.865356" lon="0.624886">
        <ele>1002.8</ele>
        <time>2014-12-07T07:52:08Z</time>
      </trkpt>
      <trkpt lat="42.865349" lon="0.625010">
        <ele>1006.3</ele>
        <time>2014-12-07T07:52:21Z</time>
      </trkpt>
      <trkpt lat="42.865369" lon="0.625125">
        <ele>1009.6</ele>
        <time>2014-12-07T07:52:35Z</time>
      </trkpt>
      <trkpt lat="42.865375" lon="0.625250">
        <ele>1012.3</ele>
        <time>2014-12-07T07:52:48Z</time>
      </trkpt>
      <trkpt lat="42.865390" lon="0.625369">
        <ele>1015.5</ele>
        <time>2014-12-07T07:53:01Z</time>
      </trkpt>
      <trkpt lat="42.865399" lon="0.625486">
        <ele>1018.6</ele>
        <time>2014-12-07T07:53:15Z</time>
      </trkpt>
      <trkpt lat="42.865423" lon="0.625597">
        <ele>1022.0</ele>
        <time>2014-12-07T07:53:29Z</time>
      </trkpt>
      <trkpt lat="42.865447" lon="0.625723">
        <ele>1025.4</ele>
        <time>2014-12-07T07:53:43Z</time>
      </trkpt>
      <trkpt lat="42.865459" lon="0.625843">
        <ele>1027.7</ele>
        <time>2014-12-07T07:53:55Z</time>
      </trkpt>
      <trkpt lat="42.865489" lon="0.625957">
        <ele>1030.0</ele>
        <time>2014-12-07T07:54:06Z</time>
      </trkpt>
      <trkpt lat="42.865517" lon="0.626068">
        <ele>1032.9</ele>
        <time>2014-12-07T07:54:19Z</time>
      </trkpt>
      <trkpt lat="42.865558" lon="0.626187">
        <ele>1036.0</ele>
        <time>2014-12-07T07:54:33Z</time>
      </trkpt>
      <trkpt lat="42.865610" lon="0.626288">
        <ele>1039.5</ele>
        <time>2014-12-07T07:54:47Z</time>
      </trkpt>
      <trkpt lat="42.865636" lon="0.626381">
        <ele>1042.1</ele>
        <time>2014-12-07T07:55:00Z</time>
      </trkpt>
      <trkpt lat="42.865688" lon="0.626496">
        <ele>1044.9</ele>
        <time>2014-12-07T07:55:13Z</time>
      </trkpt>
      <trkpt lat="42.865722" lon="0.626619">
        <ele>1047.3</ele>
        <time>2014-12-07T07:55:25Z</time>
      </trkpt>
      <trkpt lat="42.865772" lon="0.626718">
        <ele>1049.7</ele>
        <time>2014-12-07T07:55:37Z</time>
      </trkpt>
      <trkpt lat="42.865823" lon="0.626809">
        <ele>1053.0</ele>
        <time>2014-12-07T07:55:51Z</time>
      </trkpt>
      <trkpt lat="42.865878" lon="0.626913">
        <ele>1055.5</ele>
        <time>2014-12-07T07:56:03Z</time>
      </trkpt>
      <trkpt lat="42.865923" lon="0.627005">
        <ele>1058.1</ele>
        <time>2014-12-07T07:56:15Z</time>
      </trkpt>
      <trkpt lat="42.865966" lon="0.627114">
        <ele>1060.4</ele>
        <time>2014-12-07T07:56:27Z</time>
      </trkpt>
      <trkpt lat="42.866004" lon="0.627210">
        <ele>1062.9</ele>
        <time>2014-12-07T07:56:39Z</time>
      </trkpt>
      <trkpt lat="42.866032" lon="0.627330">
        <ele>1065.8</ele>
        <time>2014-12-07T07:56:52Z</time>
      </trkpt>
      <trkpt lat="42.866057" lon="0.627457">
        <ele>1068.5</ele>
        <time>2014-12-07T07:57:05Z</time>
      </trkpt>
      <trkpt lat="42.866083" lon="0.627579">
        <ele>1071.0</ele>
        <time>2014-12-07T07:57:17Z</time>
      </trkpt>
      <trkpt lat="42.866118" lon="0.627694">
        <ele>1073.0</ele>
        <time>2014-12-07T07:57:28Z</time>
      </trkpt>
      <trkpt lat="42.866161" lon="0.627804">
        <ele>1075.7</ele>
        <time>2014-12-07T07:57:41Z</time>
      </trkpt>
      <trkpt lat="42.866192" lon="0.627909">
        <ele>1077.9</ele>
        <time>2014-12-07T07:57:53Z</time>
      </trkpt>
      <trkpt lat="42.866205" lon="0.628031">
        <ele>1080.0</ele>
        <time>2014-12-07T07:58:06Z</time>
      </trkpt>
      <trkpt lat="42.866234" lon="0.628164">
        <ele>1081.8</ele>
        <time>2014-12-07T07:58:18Z</time>
      </trkpt>
      <trkpt lat="42.866244" lon="0.628289">
        <ele>1083.8</ele>
        <time>2014-12-07T07:58:28Z</time>
      </trkpt>
      <trkpt lat="42.866246" lon="0.628417">
        <ele>1085.2</ele>
        <time>2014-12-07T07:58:38Z</time>
      </trkpt>
      <trkpt lat="42.866252" lon="0.628545">
        <ele>1087.4</ele>
        <time>2014-12-07T07:58:49Z</time>
      </trkpt>
      <trkpt lat="42.866255" lon="0.628686">
        <ele>1089.1</ele>
        <time>2014-12-07T07:59:01Z</time>
      </trkpt>
      <trkpt lat="42.866269" lon="0.628809">
        <ele>1091.1</ele>
        <time>2014-12-07T07:59:12Z</time>
      </trkpt>
      <trkpt lat="42.866276" lon="0.628934">
        <ele>1092.7</ele>
        <time>2014-12-07T07:59:25Z</time>
      </trkpt>
      <trkpt lat="42.866273" lon="0.629058">
        <ele>1095.0</ele>
        <time>2014-12-07T07:59:39Z</time>
      </trkpt>
      <trkpt lat="42.866347" lon="0.629037">
        <ele>1097.4</ele>
        <time>2014-12-07T07:59:58Z</time>
      </trkpt>
      <trkpt lat="42.866395" lon="0.628936">
        <ele>1100.3</ele>
        <time>2014-12-07T08:00:14Z</time>
      </trkpt>
      <trkpt lat="42.866439" lon="0.628835">
        <ele>1102.5</ele>
        <time>2014-12-07T08:00:28Z</time>
      </trkpt>
      <trkpt lat="42.866505" lon="0.628751">
        <ele>1104.5</ele>
        <time>2014-12-07T08:00:43Z</time>
      </trkpt>
      <trkpt lat="42.866559" lon="0.628635">
        <ele>1107.4</ele>
        <time>2014-12-07T08:00:59Z</time>
      </trkpt>
      <trkpt lat="42.866593" lon="0.628521">
        <ele>1109.8</ele>
        <time>2014-12-07T08:01:15Z</time>
      </trkpt>
      <trkpt lat="42.866643" lon="0.628418">
        <ele>1112.6</ele>
        <time>2014-12-07T08:01:32Z</time>
      </trkpt>
      <trkpt lat="42.866660" lon="0.628282">
        <ele>1114.8</ele>
        <time>2014-12-07T08:01:45Z</time>
      </trkpt>
      <trkpt lat="42.866670" lon="0.628142">
        <ele>1115.8</ele>
        <time>2014-12-07T08:01:57Z</time>
      </trkpt>
      <trkpt lat="42.866706" lon="0.628025">
        <ele>1117.5</ele>
        <time>2014-12-07T08:02:10Z</time>
      </trkpt>
      <trkpt lat="42.866717" lon="0.627894">
        <ele>1119.0</ele>
        <time>2014-12-07T08:02:23Z</time>
      </trkpt>
      <trkpt lat="42.866729" lon="0.627767">
        <ele>1121.9</ele>
        <time>2014-12-07T08:02:38Z</time>
      </trkpt>
      <trkpt lat="42.866749" lon="0.627639">
        <ele>1124.2</ele>
        <time>2014-12-07T08:02:52Z</time>
      </trkpt>
      <trkpt lat="42.866765" lon="0.627512">
        <ele>1126.1</ele>
        <time>2014-12-07T08:03:06Z</time>
      </trkpt>
      <trkpt lat="42.866773" lon="0.627387">
        <ele>1128.1</ele>
        <time>2014-12-07T08:03:19Z</time>
      </trkpt>
      <trkpt lat="42.866773" lon="0.627259">
        <ele>1128.8</ele>
        <time>2014-12-07T08:03:30Z</time>
      </trkpt>
      <trkpt lat="42.866772" lon="0.627135">
        <ele>1130.2</ele>
        <time>2014-12-07T08:03:41Z</time>
      </trkpt>
      <trkpt lat="42.866785" lon="0.626998">
        <ele>1132.0</ele>
        <time>2014-12-07T08:03:53Z</time>
      </trkpt>
      <trkpt lat="42.866776" lon="0.626874">
        <ele>1134.0</ele>
        <time>2014-12-07T08:04:08Z</time>
      </trkpt>
      <trkpt lat="42.866782" lon="0.626751">
        <ele>1134.6</ele>
        <time>2014-12-07T08:04:18Z</time>
      </trkpt>
      <trkpt lat="42.866845" lon="0.626671">
        <ele>1135.3</ele>
        <time>2014-12-07T08:04:29Z</time>
      </trkpt>
      <trkpt lat="42.866922" lon="0.626670">
        <ele>1136.6</ele>
        <time>2014-12-07T08:04:42Z</time>
      </trkpt>
      <trkpt lat="42.866985" lon="0.626751">
        <ele>1138.2</ele>
        <time>2014-12-07T08:04:55Z</time>
      </trkpt>
      <trkpt lat="42.867039" lon="0.626841">
        <ele>1139.3</ele>
        <time>2014-12-07T08:05:07Z</time>
      </trkpt>
      <trkpt lat="42.867111" lon="0.626910">
        <ele>1141.0</ele>
        <time>2014-12-07T08:05:19Z</time>
      </trkpt>
      <trkpt lat="42.867153" lon="0.627023">
        <ele>1142.9</ele>
        <time>2014-12-07T08:05:32Z</time>
      </trkpt>
      <trkpt lat="42.867188" lon="0.627142">
        <ele>1145.0</ele>
        <time>2014-12-07T08:05:47Z</time>
      </trkpt>
      <trkpt lat="42.867188" lon="0.627282">
        <ele>1147.8</ele>
        <time>2014-12-07T08:06:02Z</time>
      </trkpt>
      <trkpt lat="42.867252" lon="0.627366">
        <ele>1150.1</ele>
        <time>2014-12-07T08:06:15Z</time>
      </trkpt>
      <trkpt lat="42.867279" lon="0.627471">
        <ele>1152.4</ele>
        <time>2014-12-07T08:06:29Z</time>
      </trkpt>
      <trkpt lat="42.867256" lon="0.627581">
        <ele>1156.1</ele>
        <time>2014-12-07T08:06:46Z</time>
      </trkpt>
      <trkpt lat="42.867280" lon="0.627705">
        <ele>1158.2</ele>
        <time>2014-12-07T08:06:58Z</time>
      </trkpt>
      <trkpt lat="42.867305" lon="0.627825">
        <ele>1161.1</ele>
        <time>2014-12-07T08:07:12Z</time>
      </trkpt>
      <trkpt lat="42.867337" lon="0.627942">
        <ele>1163.7</ele>
        <time>2014-12-07T08:07:28Z</time>
      </trkpt>
      <trkpt lat="42.867398" lon="0.627950">
        <ele>1166.7</ele>
        <time>2014-12-07T08:09:23Z</time>
      </trkpt>
      <trkpt lat="42.867416" lon="0.627972">
        <ele>1166.5</ele>
        <time>2014-12-07T08:14:03Z</time>
      </trkpt>
      <trkpt lat="42.867498" lon="0.628006">
        <ele>1168.2</ele>
        <time>2014-12-07T08:14:15Z</time>
      </trkpt>
      <trkpt lat="42.867574" lon="0.627952">
        <ele>1168.6</ele>
        <time>2014-12-07T08:14:24Z</time>
      </trkpt>
      <trkpt lat="42.867660" lon="0.627938">
        <ele>1167.8</ele>
        <time>2014-12-07T08:14:34Z</time>
      </trkpt>
      <trkpt lat="42.867742" lon="0.627899">
        <ele>1168.5</ele>
        <time>2014-12-07T08:14:45Z</time>
      </trkpt>
      <trkpt lat="42.867807" lon="0.627818">
        <ele>1168.5</ele>
        <time>2014-12-07T08:14:56Z</time>
      </trkpt>
      <trkpt lat="42.867904" lon="0.627781">
        <ele>1168.3</ele>
        <time>2014-12-07T08:15:07Z</time>
      </trkpt>
      <trkpt lat="42.868010" lon="0.627771">
        <ele>1168.9</ele>
        <time>2014-12-07T08:15:19Z</time>
      </trkpt>
      <trkpt lat="42.868132" lon="0.627777">
        <ele>1168.9</ele>
        <time>2014-12-07T08:15:33Z</time>
      </trkpt>
      <trkpt lat="42.868251" lon="0.627739">
        <ele>1169.4</ele>
        <time>2014-12-07T08:15:43Z</time>
      </trkpt>
      <trkpt lat="42.868363" lon="0.627728">
        <ele>1170.0</ele>
        <time>2014-12-07T08:15:55Z</time>
      </trkpt>
      <trkpt lat="42.868501" lon="0.627698">
        <ele>1171.6</ele>
        <time>2014-12-07T08:16:08Z</time>
      </trkpt>
      <trkpt lat="42.868600" lon="0.627720">
        <ele>1174.1</ele>
        <time>2014-12-07T08:16:21Z</time>
      </trkpt>
      <trkpt lat="42.868684" lon="0.627784">
        <ele>1176.4</ele>
        <time>2014-12-07T08:16:33Z</time>
      </trkpt>
      <trkpt lat="42.868733" lon="0.627890">
        <ele>1180.2</ele>
        <time>2014-12-07T08:16:50Z</time>
      </trkpt>
      <trkpt lat="42.868772" lon="0.627990">
        <ele>1183.1</ele>
        <time>2014-12-07T08:17:03Z</time>
      </trkpt>
      <trkpt lat="42.868794" lon="0.628092">
        <ele>1187.2</ele>
        <time>2014-12-07T08:17:20Z</time>
      </trkpt>
      <trkpt lat="42.868889" lon="0.628141">
        <ele>1190.7</ele>
        <time>2014-12-07T08:17:36Z</time>
      </trkpt>
      <trkpt lat="42.868983" lon="0.628173">
        <ele>1192.8</ele>
        <time>2014-12-07T08:17:49Z</time>
      </trkpt>
      <trkpt lat="42.869074" lon="0.628197">
        <ele>1194.8</ele>
        <time>2014-12-07T08:18:01Z</time>
      </trkpt>
      <trkpt lat="42.869108" lon="0.628292">
        <ele>1197.4</ele>
        <time>2014-12-07T08:18:15Z</time>
      </trkpt>
      <trkpt lat="42.869154" lon="0.628391">
        <ele>1200.1</ele>
        <time>2014-12-07T08:18:30Z</time>
      </trkpt>
      <trkpt lat="42.869241" lon="0.628399">
        <ele>1201.3</ele>
        <time>2014-12-07T08:18:43Z</time>
      </trkpt>
      <trkpt lat="42.869333" lon="0.628307">
        <ele>1203.5</ele>
        <time>2014-12-07T08:19:01Z</time>
      </trkpt>
      <trkpt lat="42.869438" lon="0.628273">
        <ele>1206.7</ele>
        <time>2014-12-07T08:19:21Z</time>
      </trkpt>
      <trkpt lat="42.869534" lon="0.628236">
        <ele>1209.8</ele>
        <time>2014-12-07T08:19:41Z</time>
      </trkpt>
      <trkpt lat="42.869631" lon="0.628224">
        <ele>1212.5</ele>
        <time>2014-12-07T08:20:00Z</time>
      </trkpt>
      <trkpt lat="42.869696" lon="0.628282">
        <ele>1215.8</ele>
        <time>2014-12-07T08:20:22Z</time>
      </trkpt>
      <trkpt lat="42.869688" lon="0.628387">
        <ele>1217.4</ele>
        <time>2014-12-07T08:20:41Z</time>
      </trkpt>
      <trkpt lat="42.869725" lon="0.628443">
        <ele>1220.3</ele>
        <time>2014-12-07T08:21:01Z</time>
      </trkpt>
      <trkpt lat="42.869799" lon="0.628432">
        <ele>1223.1</ele>
        <time>2014-12-07T08:21:27Z</time>
      </trkpt>
      <trkpt lat="42.869872" lon="0.628373">
        <ele>1225.7</ele>
        <time>2014-12-07T08:21:44Z</time>
      </trkpt>
      <trkpt lat="42.869958" lon="0.628328">
        <ele>1226.3</ele>
        <time>2014-12-07T08:22:00Z</time>
      </trkpt>
      <trkpt lat="42.870042" lon="0.628331">
        <ele>1228.8</ele>
        <time>2014-12-07T08:22:18Z</time>
      </trkpt>
      <trkpt lat="42.870120" lon="0.628354">
        <ele>1232.3</ele>
        <time>2014-12-07T08:22:37Z</time>
      </trkpt>
      <trkpt lat="42.870198" lon="0.628390">
        <ele>1236.0</ele>
        <time>2014-12-07T08:22:57Z</time>
      </trkpt>
      <trkpt lat="42.870251" lon="0.628439">
        <ele>1237.2</ele>
        <time>2014-12-07T08:24:12Z</time>
      </trkpt>
      <trkpt lat="42.870340" lon="0.628437">
        <ele>1240.0</ele>
        <time>2014-12-07T08:24:27Z</time>
      </trkpt>
      <trkpt lat="42.870423" lon="0.628468">
        <ele>1243.1</ele>
        <time>2014-12-07T08:24:45Z</time>
      </trkpt>
      <trkpt lat="42.870506" lon="0.628494">
        <ele>1245.9</ele>
        <time>2014-12-07T08:25:02Z</time>
      </trkpt>
      <trkpt lat="42.870592" lon="0.628507">
        <ele>1249.0</ele>
        <time>2014-12-07T08:25:16Z</time>
      </trkpt>
      <trkpt lat="42.870673" lon="0.628528">
        <ele>1252.2</ele>
        <time>2014-12-07T08:25:32Z</time>
      </trkpt>
      <trkpt lat="42.870766" lon="0.628550">
        <ele>1254.4</ele>
        <time>2014-12-07T08:25:46Z</time>
      </trkpt>
      <trkpt lat="42.870848" lon="0.628564">
        <ele>1257.6</ele>
        <time>2014-12-07T08:26:01Z</time>
      </trkpt>
      <trkpt lat="42.870813" lon="0.628646">
        <ele>1260.2</ele>
        <time>2014-12-07T08:26:17Z</time>
      </trkpt>
      <trkpt lat="42.870734" lon="0.628700">
        <ele>1262.7</ele>
        <time>2014-12-07T08:26:32Z</time>
      </trkpt>
      <trkpt lat="42.870680" lon="0.628799">
        <ele>1265.1</ele>
        <time>2014-12-07T08:26:47Z</time>
      </trkpt>
      <trkpt lat="42.870618" lon="0.628886">
        <ele>1268.5</ele>
        <time>2014-12-07T08:27:02Z</time>
      </trkpt>
      <trkpt lat="42.870568" lon="0.628987">
        <ele>1271.7</ele>
        <time>2014-12-07T08:27:19Z</time>
      </trkpt>
      <trkpt lat="42.870498" lon="0.629072">
        <ele>1275.0</ele>
        <time>2014-12-07T08:27:37Z</time>
      </trkpt>
      <trkpt lat="42.870449" lon="0.629193">
        <ele>1277.7</ele>
        <time>2014-12-07T08:27:52Z</time>
      </trkpt>
      <trkpt lat="42.870410" lon="0.629301">
        <ele>1280.2</ele>
        <time>2014-12-07T08:28:07Z</time>
      </trkpt>
      <trkpt lat="42.870357" lon="0.629398">
        <ele>1282.8</ele>
        <time>2014-12-07T08:28:23Z</time>
      </trkpt>
      <trkpt lat="42.870327" lon="0.629526">
        <ele>1286.1</ele>
        <time>2014-12-07T08:28:40Z</time>
      </trkpt>
      <trkpt lat="42.870273" lon="0.629656">
        <ele>1289.3</ele>
        <time>2014-12-07T08:28:58Z</time>
      </trkpt>
      <trkpt lat="42.870243" lon="0.629784">
        <ele>1291.6</ele>
        <time>2014-12-07T08:29:13Z</time>
      </trkpt>
      <trkpt lat="42.870218" lon="0.629891">
        <ele>1294.8</ele>
        <time>2014-12-07T08:29:28Z</time>
      </trkpt>
      <trkpt lat="42.870187" lon="0.630007">
        <ele>1297.6</ele>
        <time>2014-12-07T08:29:43Z</time>
      </trkpt>
      <trkpt lat="42.870166" lon="0.630133">
        <ele>1300.4</ele>
        <time>2014-12-07T08:29:57Z</time>
      </trkpt>
      <trkpt lat="42.870144" lon="0.630248">
        <ele>1302.9</ele>
        <time>2014-12-07T08:30:13Z</time>
      </trkpt>
      <trkpt lat="42.870118" lon="0.630370">
        <ele>1305.6</ele>
        <time>2014-12-07T08:30:27Z</time>
      </trkpt>
      <trkpt lat="42.870084" lon="0.630491">
        <ele>1307.8</ele>
        <time>2014-12-07T08:30:41Z</time>
      </trkpt>
      <trkpt lat="42.870037" lon="0.630603">
        <ele>1310.0</ele>
        <time>2014-12-07T08:30:55Z</time>
      </trkpt>
      <trkpt lat="42.869997" lon="0.630712">
        <ele>1311.9</ele>
        <time>2014-12-07T08:31:07Z</time>
      </trkpt>
      <trkpt lat="42.869955" lon="0.630823">
        <ele>1314.2</ele>
        <time>2014-12-07T08:31:22Z</time>
      </trkpt>
      <trkpt lat="42.869921" lon="0.630877">
        <ele>1317.1</ele>
        <time>2014-12-07T08:31:45Z</time>
      </trkpt>
      <trkpt lat="42.869902" lon="0.630919">
        <ele>1317.8</ele>
        <time>2014-12-07T08:32:07Z</time>
      </trkpt>
      <trkpt lat="42.869872" lon="0.631040">
        <ele>1321.0</ele>
        <time>2014-12-07T08:32:23Z</time>
      </trkpt>
      <trkpt lat="42.869835" lon="0.631165">
        <ele>1324.6</ele>
        <time>2014-12-07T08:32:41Z</time>
      </trkpt>
      <trkpt lat="42.869802" lon="0.631282">
        <ele>1328.3</ele>
        <time>2014-12-07T08:32:59Z</time>
      </trkpt>
      <trkpt lat="42.869754" lon="0.631383">
        <ele>1332.0</ele>
        <time>2014-12-07T08:33:16Z</time>
      </trkpt>
      <trkpt lat="42.869702" lon="0.631486">
        <ele>1334.7</ele>
        <time>2014-12-07T08:33:32Z</time>
      </trkpt>
      <trkpt lat="42.869638" lon="0.631580">
        <ele>1337.9</ele>
        <time>2014-12-07T08:33:48Z</time>
      </trkpt>
      <trkpt lat="42.869603" lon="0.631695">
        <ele>1340.4</ele>
        <time>2014-12-07T08:34:02Z</time>
      </trkpt>
      <trkpt lat="42.869578" lon="0.631816">
        <ele>1343.2</ele>
        <time>2014-12-07T08:34:18Z</time>
      </trkpt>
      <trkpt lat="42.869550" lon="0.631930">
        <ele>1345.8</ele>
        <time>2014-12-07T08:34:32Z</time>
      </trkpt>
      <trkpt lat="42.869511" lon="0.632042">
        <ele>1347.6</ele>
        <time>2014-12-07T08:34:46Z</time>
      </trkpt>
      <trkpt lat="42.869477" lon="0.632158">
        <ele>1349.8</ele>
        <time>2014-12-07T08:34:58Z</time>
      </trkpt>
      <trkpt lat="42.869465" lon="0.632279">
        <ele>1352.0</ele>
        <time>2014-12-07T08:35:11Z</time>
      </trkpt>
      <trkpt lat="42.869462" lon="0.632398">
        <ele>1354.3</ele>
        <time>2014-12-07T08:35:24Z</time>
      </trkpt>
      <trkpt lat="42.869462" lon="0.632524">
        <ele>1355.7</ele>
        <time>2014-12-07T08:35:36Z</time>
      </trkpt>
      <trkpt lat="42.869496" lon="0.632642">
        <ele>1357.2</ele>
        <time>2014-12-07T08:35:48Z</time>
      </trkpt>
      <trkpt lat="42.869557" lon="0.632700">
        <ele>1359.1</ele>
        <time>2014-12-07T08:36:03Z</time>
      </trkpt>
      <trkpt lat="42.869606" lon="0.632795">
        <ele>1360.9</ele>
        <time>2014-12-07T08:36:16Z</time>
      </trkpt>
      <trkpt lat="42.869644" lon="0.632892">
        <ele>1363.2</ele>
        <time>2014-12-07T08:36:47Z</time>
      </trkpt>
      <trkpt lat="42.869670" lon="0.632938">
        <ele>1362.9</ele>
        <time>2014-12-07T08:38:02Z</time>
      </trkpt>
      <trkpt lat="42.869694" lon="0.632885">
        <ele>1362.8</ele>
        <time>2014-12-07T08:39:37Z</time>
      </trkpt>
      <trkpt lat="42.869678" lon="0.632925">
        <ele>1362.7</ele>
        <time>2014-12-07T08:41:09Z</time>
      </trkpt>
      <trkpt lat="42.869695" lon="0.632897">
        <ele>1362.5</ele>
        <time>2014-12-07T08:41:58Z</time>
      </trkpt>
      <trkpt lat="42.869710" lon="0.632937">
        <ele>1362.1</ele>
        <time>2014-12-07T08:44:53Z</time>
      </trkpt>
      <trkpt lat="42.869700" lon="0.632945">
        <ele>1361.9</ele>
        <time>2014-12-07T08:47:22Z</time>
      </trkpt>
      <trkpt lat="42.869705" lon="0.632899">
        <ele>1362.2</ele>
        <time>2014-12-07T08:48:03Z</time>
      </trkpt>
      <trkpt lat="42.869693" lon="0.632892">
        <ele>1360.4</ele>
        <time>2014-12-07T08:49:09Z</time>
      </trkpt>
      <trkpt lat="42.869655" lon="0.632923">
        <ele>1361.5</ele>
        <time>2014-12-07T08:50:55Z</time>
      </trkpt>
      <trkpt lat="42.869640" lon="0.633029">
        <ele>1361.3</ele>
        <time>2014-12-07T08:51:07Z</time>
      </trkpt>
      <trkpt lat="42.869658" lon="0.633158">
        <ele>1361.1</ele>
        <time>2014-12-07T08:51:16Z</time>
      </trkpt>
      <trkpt lat="42.869689" lon="0.633289">
        <ele>1361.2</ele>
        <time>2014-12-07T08:51:24Z</time>
      </trkpt>
      <trkpt lat="42.869713" lon="0.633406">
        <ele>1361.6</ele>
        <time>2014-12-07T08:51:32Z</time>
      </trkpt>
      <trkpt lat="42.869732" lon="0.633525">
        <ele>1362.1</ele>
        <time>2014-12-07T08:51:40Z</time>
      </trkpt>
      <trkpt lat="42.869738" lon="0.633655">
        <ele>1362.5</ele>
        <time>2014-12-07T08:51:48Z</time>
      </trkpt>
      <trkpt lat="42.869744" lon="0.633782">
        <ele>1362.9</ele>
        <time>2014-12-07T08:51:57Z</time>
      </trkpt>
      <trkpt lat="42.869749" lon="0.633912">
        <ele>1363.3</ele>
        <time>2014-12-07T08:52:05Z</time>
      </trkpt>
      <trkpt lat="42.869761" lon="0.634042">
        <ele>1363.6</ele>
        <time>2014-12-07T08:52:13Z</time>
      </trkpt>
      <trkpt lat="42.869780" lon="0.634171">
        <ele>1363.9</ele>
        <time>2014-12-07T08:52:21Z</time>
      </trkpt>
      <trkpt lat="42.869791" lon="0.634298">
        <ele>1364.6</ele>
        <time>2014-12-07T08:52:31Z</time>
      </trkpt>
      <trkpt lat="42.869801" lon="0.634421">
        <ele>1365.5</ele>
        <time>2014-12-07T08:52:40Z</time>
      </trkpt>
      <trkpt lat="42.869806" lon="0.634540">
        <ele>1366.2</ele>
        <time>2014-12-07T08:53:02Z</time>
      </trkpt>
      <trkpt lat="42.869807" lon="0.634662">
        <ele>1366.3</ele>
        <time>2014-12-07T08:53:40Z</time>
      </trkpt>
      <trkpt lat="42.869827" lon="0.634778">
        <ele>1366.6</ele>
        <time>2014-12-07T08:53:50Z</time>
      </trkpt>
      <trkpt lat="42.869865" lon="0.634883">
        <ele>1368.1</ele>
        <time>2014-12-07T08:54:03Z</time>
      </trkpt>
      <trkpt lat="42.869909" lon="0.634999">
        <ele>1369.3</ele>
        <time>2014-12-07T08:54:14Z</time>
      </trkpt>
      <trkpt lat="42.869947" lon="0.635120">
        <ele>1370.2</ele>
        <time>2014-12-07T08:54:25Z</time>
      </trkpt>
      <trkpt lat="42.869977" lon="0.635241">
        <ele>1371.4</ele>
        <time>2014-12-07T08:54:35Z</time>
      </trkpt>
      <trkpt lat="42.870005" lon="0.635349">
        <ele>1372.4</ele>
        <time>2014-12-07T08:54:45Z</time>
      </trkpt>
      <trkpt lat="42.870029" lon="0.635467">
        <ele>1373.4</ele>
        <time>2014-12-07T08:54:54Z</time>
      </trkpt>
      <trkpt lat="42.870048" lon="0.635586">
        <ele>1374.7</ele>
        <time>2014-12-07T08:55:04Z</time>
      </trkpt>
      <trkpt lat="42.870066" lon="0.635714">
        <ele>1375.6</ele>
        <time>2014-12-07T08:55:14Z</time>
      </trkpt>
      <trkpt lat="42.870083" lon="0.635824">
        <ele>1376.4</ele>
        <time>2014-12-07T08:55:23Z</time>
      </trkpt>
      <trkpt lat="42.870080" lon="0.635945">
        <ele>1377.8</ele>
        <time>2014-12-07T08:55:32Z</time>
      </trkpt>
      <trkpt lat="42.870074" lon="0.636064">
        <ele>1378.8</ele>
        <time>2014-12-07T08:55:41Z</time>
      </trkpt>
      <trkpt lat="42.870055" lon="0.636185">
        <ele>1380.1</ele>
        <time>2014-12-07T08:55:51Z</time>
      </trkpt>
      <trkpt lat="42.870042" lon="0.636303">
        <ele>1381.4</ele>
        <time>2014-12-07T08:56:01Z</time>
      </trkpt>
      <trkpt lat="42.870027" lon="0.636431">
        <ele>1382.1</ele>
        <time>2014-12-07T08:56:10Z</time>
      </trkpt>
      <trkpt lat="42.870019" lon="0.636554">
        <ele>1383.0</ele>
        <time>2014-12-07T08:56:19Z</time>
      </trkpt>
      <trkpt lat="42.870016" lon="0.636674">
        <ele>1384.1</ele>
        <time>2014-12-07T08:56:28Z</time>
      </trkpt>
      <trkpt lat="42.870016" lon="0.636794">
        <ele>1385.0</ele>
        <time>2014-12-07T08:56:38Z</time>
      </trkpt>
      <trkpt lat="42.870001" lon="0.636926">
        <ele>1386.3</ele>
        <time>2014-12-07T08:56:47Z</time>
      </trkpt>
      <trkpt lat="42.869986" lon="0.637051">
        <ele>1387.1</ele>
        <time>2014-12-07T08:56:57Z</time>
      </trkpt>
      <trkpt lat="42.869978" lon="0.637177">
        <ele>1387.9</ele>
        <time>2014-12-07T08:57:06Z</time>
      </trkpt>
      <trkpt lat="42.869967" lon="0.637306">
        <ele>1389.1</ele>
        <time>2014-12-07T08:57:15Z</time>
      </trkpt>
      <trkpt lat="42.869950" lon="0.637420">
        <ele>1389.7</ele>
        <time>2014-12-07T08:57:23Z</time>
      </trkpt>
      <trkpt lat="42.869939" lon="0.637548">
        <ele>1390.0</ele>
        <time>2014-12-07T08:57:32Z</time>
      </trkpt>
      <trkpt lat="42.869932" lon="0.637666">
        <ele>1390.5</ele>
        <time>2014-12-07T08:57:40Z</time>
      </trkpt>
      <trkpt lat="42.869885" lon="0.637770">
        <ele>1391.2</ele>
        <time>2014-12-07T08:57:50Z</time>
      </trkpt>
      <trkpt lat="42.869845" lon="0.637886">
        <ele>1392.1</ele>
        <time>2014-12-07T08:57:58Z</time>
      </trkpt>
      <trkpt lat="42.869802" lon="0.638001">
        <ele>1393.2</ele>
        <time>2014-12-07T08:58:07Z</time>
      </trkpt>
      <trkpt lat="42.869753" lon="0.638109">
        <ele>1393.9</ele>
        <time>2014-12-07T08:58:16Z</time>
      </trkpt>
      <trkpt lat="42.869712" lon="0.638216">
        <ele>1395.1</ele>
        <time>2014-12-07T08:58:26Z</time>
      </trkpt>
      <trkpt lat="42.869652" lon="0.638315">
        <ele>1396.2</ele>
        <time>2014-12-07T08:58:35Z</time>
      </trkpt>
      <trkpt lat="42.869597" lon="0.638409">
        <ele>1397.3</ele>
        <time>2014-12-07T08:58:43Z</time>
      </trkpt>
      <trkpt lat="42.869532" lon="0.638491">
        <ele>1398.9</ele>
        <time>2014-12-07T08:58:55Z</time>
      </trkpt>
      <trkpt lat="42.869467" lon="0.638586">
        <ele>1400.1</ele>
        <time>2014-12-07T08:59:07Z</time>
      </trkpt>
      <trkpt lat="42.869423" lon="0.638703">
        <ele>1401.4</ele>
        <time>2014-12-07T08:59:20Z</time>
      </trkpt>
      <trkpt lat="42.869323" lon="0.638844">
        <ele>1402.9</ele>
        <time>2014-12-07T08:59:31Z</time>
      </trkpt>
      <trkpt lat="42.869259" lon="0.638942">
        <ele>1403.6</ele>
        <time>2014-12-07T08:59:40Z</time>
      </trkpt>
      <trkpt lat="42.869228" lon="0.639049">
        <ele>1404.6</ele>
        <time>2014-12-07T08:59:49Z</time>
      </trkpt>
      <trkpt lat="42.869198" lon="0.639160">
        <ele>1405.9</ele>
        <time>2014-12-07T08:59:58Z</time>
      </trkpt>
      <trkpt lat="42.869154" lon="0.639266">
        <ele>1407.2</ele>
        <time>2014-12-07T09:00:09Z</time>
      </trkpt>
      <trkpt lat="42.869142" lon="0.639396">
        <ele>1407.7</ele>
        <time>2014-12-07T09:00:17Z</time>
      </trkpt>
      <trkpt lat="42.869129" lon="0.639520">
        <ele>1408.7</ele>
        <time>2014-12-07T09:00:26Z</time>
      </trkpt>
      <trkpt lat="42.869143" lon="0.639648">
        <ele>1409.3</ele>
        <time>2014-12-07T09:00:34Z</time>
      </trkpt>
      <trkpt lat="42.869135" lon="0.639762">
        <ele>1409.9</ele>
        <time>2014-12-07T09:00:43Z</time>
      </trkpt>
      <trkpt lat="42.869116" lon="0.639877">
        <ele>1410.7</ele>
        <time>2014-12-07T09:00:51Z</time>
      </trkpt>
      <trkpt lat="42.869110" lon="0.639998">
        <ele>1411.5</ele>
        <time>2014-12-07T09:01:00Z</time>
      </trkpt>
      <trkpt lat="42.869110" lon="0.640114">
        <ele>1412.6</ele>
        <time>2014-12-07T09:01:10Z</time>
      </trkpt>
      <trkpt lat="42.869054" lon="0.640213">
        <ele>1413.3</ele>
        <time>2014-12-07T09:01:21Z</time>
      </trkpt>
      <trkpt lat="42.868999" lon="0.640265">
        <ele>1411.7</ele>
        <time>2014-12-07T09:01:34Z</time>
      </trkpt>
      <trkpt lat="42.868967" lon="0.640379">
        <ele>1413.2</ele>
        <time>2014-12-07T09:01:50Z</time>
      </trkpt>
      <trkpt lat="42.868914" lon="0.640497">
        <ele>1415.1</ele>
        <time>2014-12-07T09:02:02Z</time>
      </trkpt>
      <trkpt lat="42.868848" lon="0.640604">
        <ele>1416.1</ele>
        <time>2014-12-07T09:02:12Z</time>
      </trkpt>
      <trkpt lat="42.868777" lon="0.640698">
        <ele>1417.1</ele>
        <time>2014-12-07T09:02:22Z</time>
      </trkpt>
      <trkpt lat="42.868738" lon="0.640812">
        <ele>1417.9</ele>
        <time>2014-12-07T09:02:34Z</time>
      </trkpt>
      <trkpt lat="42.868715" lon="0.640930">
        <ele>1419.7</ele>
        <time>2014-12-07T09:02:48Z</time>
      </trkpt>
      <trkpt lat="42.868691" lon="0.641050">
        <ele>1422.4</ele>
        <time>2014-12-07T09:03:03Z</time>
      </trkpt>
      <trkpt lat="42.868697" lon="0.641100">
        <ele>1424.2</ele>
        <time>2014-12-07T09:03:40Z</time>
      </trkpt>
      <trkpt lat="42.868725" lon="0.641235">
        <ele>1426.4</ele>
        <time>2014-12-07T09:03:59Z</time>
      </trkpt>
      <trkpt lat="42.868758" lon="0.641354">
        <ele>1429.0</ele>
        <time>2014-12-07T09:04:15Z</time>
      </trkpt>
      <trkpt lat="42.868795" lon="0.641472">
        <ele>1431.9</ele>
        <time>2014-12-07T09:04:32Z</time>
      </trkpt>
      <trkpt lat="42.868852" lon="0.641573">
        <ele>1434.4</ele>
        <time>2014-12-07T09:04:50Z</time>
      </trkpt>
      <trkpt lat="42.868912" lon="0.641666">
        <ele>1437.0</ele>
        <time>2014-12-07T09:05:05Z</time>
      </trkpt>
      <trkpt lat="42.868963" lon="0.641772">
        <ele>1439.7</ele>
        <time>2014-12-07T09:05:21Z</time>
      </trkpt>
      <trkpt lat="42.869019" lon="0.641867">
        <ele>1442.3</ele>
        <time>2014-12-07T09:05:38Z</time>
      </trkpt>
      <trkpt lat="42.869076" lon="0.641968">
        <ele>1445.1</ele>
        <time>2014-12-07T09:05:55Z</time>
      </trkpt>
      <trkpt lat="42.869133" lon="0.642064">
        <ele>1448.3</ele>
        <time>2014-12-07T09:06:13Z</time>
      </trkpt>
      <trkpt lat="42.869177" lon="0.642176">
        <ele>1450.9</ele>
        <time>2014-12-07T09:06:30Z</time>
      </trkpt>
      <trkpt lat="42.869237" lon="0.642270">
        <ele>1452.9</ele>
        <time>2014-12-07T09:06:45Z</time>
      </trkpt>
      <trkpt lat="42.869291" lon="0.642366">
        <ele>1454.7</ele>
        <time>2014-12-07T09:07:01Z</time>
      </trkpt>
      <trkpt lat="42.869336" lon="0.642478">
        <ele>1456.7</ele>
        <time>2014-12-07T09:07:19Z</time>
      </trkpt>
      <trkpt lat="42.869394" lon="0.642549">
        <ele>1460.5</ele>
        <time>2014-12-07T09:07:40Z</time>
      </trkpt>
      <trkpt lat="42.869408" lon="0.642669">
        <ele>1463.3</ele>
        <time>2014-12-07T09:07:55Z</time>
      </trkpt>
      <trkpt lat="42.869423" lon="0.642789">
        <ele>1465.6</ele>
        <time>2014-12-07T09:08:11Z</time>
      </trkpt>
      <trkpt lat="42.869419" lon="0.642910">
        <ele>1469.1</ele>
        <time>2014-12-07T09:08:30Z</time>
      </trkpt>
      <trkpt lat="42.869407" lon="0.643034">
        <ele>1472.6</ele>
        <time>2014-12-07T09:08:47Z</time>
      </trkpt>
      <trkpt lat="42.869378" lon="0.643146">
        <ele>1474.6</ele>
        <time>2014-12-07T09:09:02Z</time>
      </trkpt>
      <trkpt lat="42.869356" lon="0.643270">
        <ele>1477.5</ele>
        <time>2014-12-07T09:09:19Z</time>
      </trkpt>
      <trkpt lat="42.869327" lon="0.643384">
        <ele>1480.6</ele>
        <time>2014-12-07T09:09:37Z</time>
      </trkpt>
      <trkpt lat="42.869284" lon="0.643503">
        <ele>1483.1</ele>
        <time>2014-12-07T09:09:55Z</time>
      </trkpt>
      <trkpt lat="42.869255" lon="0.643621">
        <ele>1485.5</ele>
        <time>2014-12-07T09:10:13Z</time>
      </trkpt>
      <trkpt lat="42.869216" lon="0.643739">
        <ele>1488.2</ele>
        <time>2014-12-07T09:10:30Z</time>
      </trkpt>
      <trkpt lat="42.869182" lon="0.643858">
        <ele>1490.3</ele>
        <time>2014-12-07T09:10:45Z</time>
      </trkpt>
      <trkpt lat="42.869150" lon="0.643981">
        <ele>1492.7</ele>
        <time>2014-12-07T09:11:01Z</time>
      </trkpt>
      <trkpt lat="42.869110" lon="0.644098">
        <ele>1494.5</ele>
        <time>2014-12-07T09:11:15Z</time>
      </trkpt>
      <trkpt lat="42.869098" lon="0.644187">
        <ele>1497.0</ele>
        <time>2014-12-07T09:11:34Z</time>
      </trkpt>
      <trkpt lat="42.869063" lon="0.644305">
        <ele>1498.8</ele>
        <time>2014-12-07T09:11:47Z</time>
      </trkpt>
      <trkpt lat="42.869035" lon="0.644424">
        <ele>1500.6</ele>
        <time>2014-12-07T09:12:02Z</time>
      </trkpt>
      <trkpt lat="42.869031" lon="0.644543">
        <ele>1503.0</ele>
        <time>2014-12-07T09:12:17Z</time>
      </trkpt>
      <trkpt lat="42.869026" lon="0.644662">
        <ele>1504.8</ele>
        <time>2014-12-07T09:12:31Z</time>
      </trkpt>
      <trkpt lat="42.869021" lon="0.644790">
        <ele>1505.9</ele>
        <time>2014-12-07T09:12:43Z</time>
      </trkpt>
      <trkpt lat="42.869027" lon="0.644912">
        <ele>1506.6</ele>
        <time>2014-12-07T09:12:53Z</time>
      </trkpt>
      <trkpt lat="42.869049" lon="0.645030">
        <ele>1507.3</ele>
        <time>2014-12-07T09:13:04Z</time>
      </trkpt>
      <trkpt lat="42.869086" lon="0.645150">
        <ele>1509.0</ele>
        <time>2014-12-07T09:13:17Z</time>
      </trkpt>
      <trkpt lat="42.869132" lon="0.645266">
        <ele>1511.2</ele>
        <time>2014-12-07T09:13:33Z</time>
      </trkpt>
      <trkpt lat="42.869174" lon="0.645406">
        <ele>1513.1</ele>
        <time>2014-12-07T09:13:47Z</time>
      </trkpt>
      <trkpt lat="42.869184" lon="0.645556">
        <ele>1514.4</ele>
        <time>2014-12-07T09:14:01Z</time>
      </trkpt>
      <trkpt lat="42.869179" lon="0.645690">
        <ele>1516.5</ele>
        <time>2014-12-07T09:14:16Z</time>
      </trkpt>
      <trkpt lat="42.869199" lon="0.645819">
        <ele>1517.9</ele>
        <time>2014-12-07T09:14:29Z</time>
      </trkpt>
      <trkpt lat="42.869190" lon="0.645938">
        <ele>1520.4</ele>
        <time>2014-12-07T09:14:45Z</time>
      </trkpt>
      <trkpt lat="42.869163" lon="0.646057">
        <ele>1521.9</ele>
        <time>2014-12-07T09:14:59Z</time>
      </trkpt>
      <trkpt lat="42.869138" lon="0.646199">
        <ele>1523.2</ele>
        <time>2014-12-07T09:15:13Z</time>
      </trkpt>
      <trkpt lat="42.869132" lon="0.646332">
        <ele>1525.3</ele>
        <time>2014-12-07T09:15:27Z</time>
      </trkpt>
      <trkpt lat="42.869135" lon="0.646469">
        <ele>1527.4</ele>
        <time>2014-12-07T09:15:43Z</time>
      </trkpt>
      <trkpt lat="42.869135" lon="0.646601">
        <ele>1529.2</ele>
        <time>2014-12-07T09:15:57Z</time>
      </trkpt>
      <trkpt lat="42.869161" lon="0.646730">
        <ele>1531.2</ele>
        <time>2014-12-07T09:16:11Z</time>
      </trkpt>
      <trkpt lat="42.869153" lon="0.646849">
        <ele>1532.4</ele>
        <time>2014-12-07T09:16:23Z</time>
      </trkpt>
      <trkpt lat="42.869206" lon="0.646915">
        <ele>1534.6</ele>
        <time>2014-12-07T09:16:44Z</time>
      </trkpt>
      <trkpt lat="42.869258" lon="0.646869">
        <ele>1537.4</ele>
        <time>2014-12-07T09:17:02Z</time>
      </trkpt>
      <trkpt lat="42.869253" lon="0.646766">
        <ele>1538.2</ele>
        <time>2014-12-07T09:17:16Z</time>
      </trkpt>
      <trkpt lat="42.869307" lon="0.646655">
        <ele>1540.3</ele>
        <time>2014-12-07T09:17:32Z</time>
      </trkpt>
      <trkpt lat="42.869352" lon="0.646548">
        <ele>1542.7</ele>
        <time>2014-12-07T09:17:51Z</time>
      </trkpt>
      <trkpt lat="42.869422" lon="0.646483">
        <ele>1546.2</ele>
        <time>2014-12-07T09:18:15Z</time>
      </trkpt>
      <trkpt lat="42.869486" lon="0.646442">
        <ele>1548.6</ele>
        <time>2014-12-07T09:18:35Z</time>
      </trkpt>
      <trkpt lat="42.869559" lon="0.646378">
        <ele>1551.8</ele>
        <time>2014-12-07T09:18:58Z</time>
      </trkpt>
      <trkpt lat="42.869637" lon="0.646309">
        <ele>1554.6</ele>
        <time>2014-12-07T09:19:18Z</time>
      </trkpt>
      <trkpt lat="42.869704" lon="0.646212">
        <ele>1556.9</ele>
        <time>2014-12-07T09:19:37Z</time>
      </trkpt>
      <trkpt lat="42.869772" lon="0.646119">
        <ele>1559.4</ele>
        <time>2014-12-07T09:19:58Z</time>
      </trkpt>
      <trkpt lat="42.869819" lon="0.646021">
        <ele>1561.6</ele>
        <time>2014-12-07T09:20:18Z</time>
      </trkpt>
      <trkpt lat="42.869894" lon="0.645946">
        <ele>1564.2</ele>
        <time>2014-12-07T09:20:39Z</time>
      </trkpt>
      <trkpt lat="42.869965" lon="0.645858">
        <ele>1567.1</ele>
        <time>2014-12-07T09:20:58Z</time>
      </trkpt>
      <trkpt lat="42.870021" lon="0.645765">
        <ele>1570.2</ele>
        <time>2014-12-07T09:21:16Z</time>
      </trkpt>
      <trkpt lat="42.870065" lon="0.645660">
        <ele>1571.6</ele>
        <time>2014-12-07T09:21:30Z</time>
      </trkpt>
      <trkpt lat="42.870130" lon="0.645578">
        <ele>1574.7</ele>
        <time>2014-12-07T09:21:52Z</time>
      </trkpt>
      <trkpt lat="42.870182" lon="0.645478">
        <ele>1577.3</ele>
        <time>2014-12-07T09:22:11Z</time>
      </trkpt>
      <trkpt lat="42.870252" lon="0.645407">
        <ele>1580.7</ele>
        <time>2014-12-07T09:22:37Z</time>
      </trkpt>
      <trkpt lat="42.870315" lon="0.645317">
        <ele>1582.4</ele>
        <time>2014-12-07T09:22:53Z</time>
      </trkpt>
      <trkpt lat="42.870384" lon="0.645245">
        <ele>1585.3</ele>
        <time>2014-12-07T09:23:17Z</time>
      </trkpt>
      <trkpt lat="42.870454" lon="0.645171">
        <ele>1586.7</ele>
        <time>2014-12-07T09:23:32Z</time>
      </trkpt>
      <trkpt lat="42.870539" lon="0.645117">
        <ele>1588.8</ele>
        <time>2014-12-07T09:23:47Z</time>
      </trkpt>
      <trkpt lat="42.870624" lon="0.645065">
        <ele>1590.9</ele>
        <time>2014-12-07T09:24:02Z</time>
      </trkpt>
      <trkpt lat="42.870701" lon="0.645011">
        <ele>1592.8</ele>
        <time>2014-12-07T09:24:15Z</time>
      </trkpt>
      <trkpt lat="42.870793" lon="0.644974">
        <ele>1594.8</ele>
        <time>2014-12-07T09:24:31Z</time>
      </trkpt>
      <trkpt lat="42.870882" lon="0.644932">
        <ele>1597.4</ele>
        <time>2014-12-07T09:24:47Z</time>
      </trkpt>
      <trkpt lat="42.870967" lon="0.644887">
        <ele>1599.6</ele>
        <time>2014-12-07T09:25:02Z</time>
      </trkpt>
      <trkpt lat="42.871059" lon="0.644847">
        <ele>1602.3</ele>
        <time>2014-12-07T09:25:21Z</time>
      </trkpt>
      <trkpt lat="42.871143" lon="0.644800">
        <ele>1604.8</ele>
        <time>2014-12-07T09:25:38Z</time>
      </trkpt>
      <trkpt lat="42.871223" lon="0.644746">
        <ele>1606.8</ele>
        <time>2014-12-07T09:25:54Z</time>
      </trkpt>
      <trkpt lat="42.871311" lon="0.644695">
        <ele>1608.5</ele>
        <time>2014-12-07T09:26:10Z</time>
      </trkpt>
      <trkpt lat="42.871394" lon="0.644640">
        <ele>1611.4</ele>
        <time>2014-12-07T09:26:29Z</time>
      </trkpt>
      <trkpt lat="42.871474" lon="0.644582">
        <ele>1614.1</ele>
        <time>2014-12-07T09:26:47Z</time>
      </trkpt>
      <trkpt lat="42.871555" lon="0.644530">
        <ele>1616.6</ele>
        <time>2014-12-07T09:27:05Z</time>
      </trkpt>
      <trkpt lat="42.871632" lon="0.644460">
        <ele>1619.5</ele>
        <time>2014-12-07T09:27:25Z</time>
      </trkpt>
      <trkpt lat="42.871695" lon="0.644378">
        <ele>1621.3</ele>
        <time>2014-12-07T09:27:42Z</time>
      </trkpt>
      <trkpt lat="42.871774" lon="0.644320">
        <ele>1623.7</ele>
        <time>2014-12-07T09:28:00Z</time>
      </trkpt>
      <trkpt lat="42.871839" lon="0.644237">
        <ele>1625.4</ele>
        <time>2014-12-07T09:28:15Z</time>
      </trkpt>
      <trkpt lat="42.871918" lon="0.644169">
        <ele>1627.6</ele>
        <time>2014-12-07T09:28:32Z</time>
      </trkpt>
      <trkpt lat="42.871989" lon="0.644096">
        <ele>1630.1</ele>
        <time>2014-12-07T09:28:50Z</time>
      </trkpt>
      <trkpt lat="42.872056" lon="0.644008">
        <ele>1632.3</ele>
        <time>2014-12-07T09:29:06Z</time>
      </trkpt>
      <trkpt lat="42.872127" lon="0.643933">
        <ele>1634.4</ele>
        <time>2014-12-07T09:29:23Z</time>
      </trkpt>
      <trkpt lat="42.872199" lon="0.643864">
        <ele>1636.6</ele>
        <time>2014-12-07T09:29:41Z</time>
      </trkpt>
      <trkpt lat="42.872277" lon="0.643792">
        <ele>1639.9</ele>
        <time>2014-12-07T09:30:01Z</time>
      </trkpt>
      <trkpt lat="42.872344" lon="0.643712">
        <ele>1643.0</ele>
        <time>2014-12-07T09:30:19Z</time>
      </trkpt>
      <trkpt lat="42.872395" lon="0.643751">
        <ele>1646.7</ele>
        <time>2014-12-07T09:30:44Z</time>
      </trkpt>
      <trkpt lat="42.872391" lon="0.643842">
        <ele>1647.7</ele>
        <time>2014-12-07T09:33:50Z</time>
      </trkpt>
      <trkpt lat="42.872398" lon="0.643963">
        <ele>1648.4</ele>
        <time>2014-12-07T09:34:05Z</time>
      </trkpt>
      <trkpt lat="42.872402" lon="0.644097">
        <ele>1650.0</ele>
        <time>2014-12-07T09:34:20Z</time>
      </trkpt>
      <trkpt lat="42.872392" lon="0.644223">
        <ele>1651.7</ele>
        <time>2014-12-07T09:34:34Z</time>
      </trkpt>
      <trkpt lat="42.872407" lon="0.644347">
        <ele>1654.3</ele>
        <time>2014-12-07T09:34:49Z</time>
      </trkpt>
      <trkpt lat="42.872409" lon="0.644476">
        <ele>1657.5</ele>
        <time>2014-12-07T09:35:05Z</time>
      </trkpt>
      <trkpt lat="42.872394" lon="0.644598">
        <ele>1660.1</ele>
        <time>2014-12-07T09:35:21Z</time>
      </trkpt>
      <trkpt lat="42.872388" lon="0.644725">
        <ele>1662.2</ele>
        <time>2014-12-07T09:35:37Z</time>
      </trkpt>
      <trkpt lat="42.872383" lon="0.644850">
        <ele>1664.8</ele>
        <time>2014-12-07T09:35:54Z</time>
      </trkpt>
      <trkpt lat="42.872391" lon="0.644972">
        <ele>1667.5</ele>
        <time>2014-12-07T09:36:10Z</time>
      </trkpt>
      <trkpt lat="42.872375" lon="0.645095">
        <ele>1670.0</ele>
        <time>2014-12-07T09:36:26Z</time>
      </trkpt>
      <trkpt lat="42.872349" lon="0.645220">
        <ele>1672.3</ele>
        <time>2014-12-07T09:36:41Z</time>
      </trkpt>
      <trkpt lat="42.872310" lon="0.645355">
        <ele>1674.2</ele>
        <time>2014-12-07T09:36:56Z</time>
      </trkpt>
      <trkpt lat="42.872298" lon="0.645473">
        <ele>1676.3</ele>
        <time>2014-12-07T09:37:12Z</time>
      </trkpt>
      <trkpt lat="42.872274" lon="0.645597">
        <ele>1678.8</ele>
        <time>2014-12-07T09:37:28Z</time>
      </trkpt>
      <trkpt lat="42.872256" lon="0.645717">
        <ele>1680.9</ele>
        <time>2014-12-07T09:37:44Z</time>
      </trkpt>
      <trkpt lat="42.872228" lon="0.645836">
        <ele>1683.6</ele>
        <time>2014-12-07T09:38:04Z</time>
      </trkpt>
      <trkpt lat="42.872212" lon="0.645961">
        <ele>1686.1</ele>
        <time>2014-12-07T09:38:19Z</time>
      </trkpt>
      <trkpt lat="42.872212" lon="0.646086">
        <ele>1689.1</ele>
        <time>2014-12-07T09:38:36Z</time>
      </trkpt>
      <trkpt lat="42.872192" lon="0.646203">
        <ele>1691.6</ele>
        <time>2014-12-07T09:38:51Z</time>
      </trkpt>
      <trkpt lat="42.872168" lon="0.646330">
        <ele>1693.8</ele>
        <time>2014-12-07T09:39:10Z</time>
      </trkpt>
      <trkpt lat="42.872142" lon="0.646451">
        <ele>1695.8</ele>
        <time>2014-12-07T09:40:50Z</time>
      </trkpt>
      <trkpt lat="42.872123" lon="0.646577">
        <ele>1697.7</ele>
        <time>2014-12-07T09:41:04Z</time>
      </trkpt>
      <trkpt lat="42.872099" lon="0.646698">
        <ele>1699.4</ele>
        <time>2014-12-07T09:41:17Z</time>
      </trkpt>
      <trkpt lat="42.872084" lon="0.646821">
        <ele>1701.6</ele>
        <time>2014-12-07T09:41:31Z</time>
      </trkpt>
      <trkpt lat="42.872078" lon="0.646942">
        <ele>1704.5</ele>
        <time>2014-12-07T09:41:47Z</time>
      </trkpt>
      <trkpt lat="42.872061" lon="0.647062">
        <ele>1706.7</ele>
        <time>2014-12-07T09:42:02Z</time>
      </trkpt>
      <trkpt lat="42.872040" lon="0.647186">
        <ele>1708.7</ele>
        <time>2014-12-07T09:42:16Z</time>
      </trkpt>
      <trkpt lat="42.872021" lon="0.647315">
        <ele>1710.4</ele>
        <time>2014-12-07T09:42:30Z</time>
      </trkpt>
      <trkpt lat="42.872010" lon="0.647438">
        <ele>1712.6</ele>
        <time>2014-12-07T09:42:46Z</time>
      </trkpt>
      <trkpt lat="42.871994" lon="0.647562">
        <ele>1714.6</ele>
        <time>2014-12-07T09:43:00Z</time>
      </trkpt>
      <trkpt lat="42.871959" lon="0.647688">
        <ele>1715.6</ele>
        <time>2014-12-07T09:43:12Z</time>
      </trkpt>
      <trkpt lat="42.871940" lon="0.647816">
        <ele>1716.7</ele>
        <time>2014-12-07T09:43:24Z</time>
      </trkpt>
      <trkpt lat="42.871915" lon="0.647945">
        <ele>1717.7</ele>
        <time>2014-12-07T09:43:35Z</time>
      </trkpt>
      <trkpt lat="42.871894" lon="0.648068">
        <ele>1718.5</ele>
        <time>2014-12-07T09:43:46Z</time>
      </trkpt>
      <trkpt lat="42.871862" lon="0.648188">
        <ele>1719.2</ele>
        <time>2014-12-07T09:43:56Z</time>
      </trkpt>
      <trkpt lat="42.871824" lon="0.648299">
        <ele>1719.7</ele>
        <time>2014-12-07T09:44:05Z</time>
      </trkpt>
      <trkpt lat="42.871809" lon="0.648428">
        <ele>1720.7</ele>
        <time>2014-12-07T09:44:16Z</time>
      </trkpt>
      <trkpt lat="42.871782" lon="0.648558">
        <ele>1721.3</ele>
        <time>2014-12-07T09:44:27Z</time>
      </trkpt>
      <trkpt lat="42.871756" lon="0.648682">
        <ele>1721.7</ele>
        <time>2014-12-07T09:44:37Z</time>
      </trkpt>
      <trkpt lat="42.871729" lon="0.648809">
        <ele>1722.2</ele>
        <time>2014-12-07T09:44:48Z</time>
      </trkpt>
      <trkpt lat="42.871686" lon="0.648928">
        <ele>1722.7</ele>
        <time>2014-12-07T09:44:58Z</time>
      </trkpt>
      <trkpt lat="42.871645" lon="0.649035">
        <ele>1722.9</ele>
        <time>2014-12-07T09:45:07Z</time>
      </trkpt>
      <trkpt lat="42.871602" lon="0.649142">
        <ele>1723.3</ele>
        <time>2014-12-07T09:45:19Z</time>
      </trkpt>
      <trkpt lat="42.871552" lon="0.649240">
        <ele>1723.8</ele>
        <time>2014-12-07T09:45:31Z</time>
      </trkpt>
      <trkpt lat="42.871505" lon="0.649355">
        <ele>1724.6</ele>
        <time>2014-12-07T09:45:42Z</time>
      </trkpt>
      <trkpt lat="42.871449" lon="0.649467">
        <ele>1725.2</ele>
        <time>2014-12-07T09:45:53Z</time>
      </trkpt>
      <trkpt lat="42.871397" lon="0.649574">
        <ele>1725.6</ele>
        <time>2014-12-07T09:46:03Z</time>
      </trkpt>
      <trkpt lat="42.871333" lon="0.649680">
        <ele>1726.3</ele>
        <time>2014-12-07T09:46:14Z</time>
      </trkpt>
      <trkpt lat="42.871274" lon="0.649783">
        <ele>1726.4</ele>
        <time>2014-12-07T09:46:25Z</time>
      </trkpt>
      <trkpt lat="42.871248" lon="0.649901">
        <ele>1727.5</ele>
        <time>2014-12-07T09:46:38Z</time>
      </trkpt>
      <trkpt lat="42.871198" lon="0.650005">
        <ele>1728.0</ele>
        <time>2014-12-07T09:46:49Z</time>
      </trkpt>
      <trkpt lat="42.871161" lon="0.650120">
        <ele>1728.6</ele>
        <time>2014-12-07T09:47:00Z</time>
      </trkpt>
      <trkpt lat="42.871119" lon="0.650230">
        <ele>1730.5</ele>
        <time>2014-12-07T09:47:14Z</time>
      </trkpt>
      <trkpt lat="42.871069" lon="0.650332">
        <ele>1732.1</ele>
        <time>2014-12-07T09:47:28Z</time>
      </trkpt>
      <trkpt lat="42.871020" lon="0.650438">
        <ele>1733.6</ele>
        <time>2014-12-07T09:47:41Z</time>
      </trkpt>
      <trkpt lat="42.870965" lon="0.650538">
        <ele>1734.8</ele>
        <time>2014-12-07T09:47:54Z</time>
      </trkpt>
      <trkpt lat="42.870923" lon="0.650647">
        <ele>1736.8</ele>
        <time>2014-12-07T09:48:08Z</time>
      </trkpt>
      <trkpt lat="42.870867" lon="0.650750">
        <ele>1738.7</ele>
        <time>2014-12-07T09:48:22Z</time>
      </trkpt>
      <trkpt lat="42.870819" lon="0.650862">
        <ele>1740.6</ele>
        <time>2014-12-07T09:48:36Z</time>
      </trkpt>
      <trkpt lat="42.870765" lon="0.650969">
        <ele>1742.0</ele>
        <time>2014-12-07T09:48:49Z</time>
      </trkpt>
      <trkpt lat="42.870705" lon="0.651062">
        <ele>1743.6</ele>
        <time>2014-12-07T09:49:02Z</time>
      </trkpt>
      <trkpt lat="42.870644" lon="0.651157">
        <ele>1744.3</ele>
        <time>2014-12-07T09:49:15Z</time>
      </trkpt>
      <trkpt lat="42.870593" lon="0.651261">
        <ele>1745.3</ele>
        <time>2014-12-07T09:49:28Z</time>
      </trkpt>
      <trkpt lat="42.870531" lon="0.651356">
        <ele>1746.0</ele>
        <time>2014-12-07T09:49:39Z</time>
      </trkpt>
      <trkpt lat="42.870480" lon="0.651461">
        <ele>1746.3</ele>
        <time>2014-12-07T09:49:50Z</time>
      </trkpt>
      <trkpt lat="42.870442" lon="0.651581">
        <ele>1747.6</ele>
        <time>2014-12-07T09:50:04Z</time>
      </trkpt>
      <trkpt lat="42.870401" lon="0.651694">
        <ele>1749.4</ele>
        <time>2014-12-07T09:50:18Z</time>
      </trkpt>
      <trkpt lat="42.870347" lon="0.651796">
        <ele>1750.3</ele>
        <time>2014-12-07T09:50:29Z</time>
      </trkpt>
      <trkpt lat="42.870294" lon="0.651906">
        <ele>1751.0</ele>
        <time>2014-12-07T09:50:41Z</time>
      </trkpt>
      <trkpt lat="42.870241" lon="0.652015">
        <ele>1751.9</ele>
        <time>2014-12-07T09:50:53Z</time>
      </trkpt>
      <trkpt lat="42.870182" lon="0.652117">
        <ele>1753.0</ele>
        <time>2014-12-07T09:51:06Z</time>
      </trkpt>
      <trkpt lat="42.870120" lon="0.652217">
        <ele>1753.9</ele>
        <time>2014-12-07T09:51:19Z</time>
      </trkpt>
      <trkpt lat="42.870066" lon="0.652316">
        <ele>1754.7</ele>
        <time>2014-12-07T09:51:31Z</time>
      </trkpt>
      <trkpt lat="42.869997" lon="0.652412">
        <ele>1755.4</ele>
        <time>2014-12-07T09:51:43Z</time>
      </trkpt>
      <trkpt lat="42.869942" lon="0.652523">
        <ele>1756.5</ele>
        <time>2014-12-07T09:51:56Z</time>
      </trkpt>
      <trkpt lat="42.869877" lon="0.652611">
        <ele>1757.9</ele>
        <time>2014-12-07T09:52:09Z</time>
      </trkpt>
      <trkpt lat="42.869805" lon="0.652688">
        <ele>1759.1</ele>
        <time>2014-12-07T09:52:21Z</time>
      </trkpt>
      <trkpt lat="42.869733" lon="0.652772">
        <ele>1760.2</ele>
        <time>2014-12-07T09:52:36Z</time>
      </trkpt>
      <trkpt lat="42.869683" lon="0.652867">
        <ele>1761.6</ele>
        <time>2014-12-07T09:52:51Z</time>
      </trkpt>
      <trkpt lat="42.869604" lon="0.652931">
        <ele>1763.2</ele>
        <time>2014-12-07T09:53:04Z</time>
      </trkpt>
      <trkpt lat="42.869546" lon="0.653025">
        <ele>1764.7</ele>
        <time>2014-12-07T09:53:21Z</time>
      </trkpt>
      <trkpt lat="42.869488" lon="0.653120">
        <ele>1766.9</ele>
        <time>2014-12-07T09:53:40Z</time>
      </trkpt>
      <trkpt lat="42.869440" lon="0.653196">
        <ele>1767.9</ele>
        <time>2014-12-07T09:59:30Z</time>
      </trkpt>
      <trkpt lat="42.869364" lon="0.653260">
        <ele>1770.0</ele>
        <time>2014-12-07T09:59:49Z</time>
      </trkpt>
      <trkpt lat="42.869317" lon="0.653367">
        <ele>1776.7</ele>
        <time>2014-12-07T10:01:40Z</time>
      </trkpt>
      <trkpt lat="42.869267" lon="0.653469">
        <ele>1780.3</ele>
        <time>2014-12-07T10:01:58Z</time>
      </trkpt>
      <trkpt lat="42.869230" lon="0.653568">
        <ele>1784.8</ele>
        <time>2014-12-07T10:02:45Z</time>
      </trkpt>
      <trkpt lat="42.869186" lon="0.653664">
        <ele>1790.1</ele>
        <time>2014-12-07T10:03:30Z</time>
      </trkpt>
      <trkpt lat="42.869134" lon="0.653740">
        <ele>1794.2</ele>
        <time>2014-12-07T10:04:04Z</time>
      </trkpt>
      <trkpt lat="42.869100" lon="0.653847">
        <ele>1797.3</ele>
        <time>2014-12-07T10:04:27Z</time>
      </trkpt>
      <trkpt lat="42.869052" lon="0.653957">
        <ele>1800.3</ele>
        <time>2014-12-07T10:04:50Z</time>
      </trkpt>
      <trkpt lat="42.869053" lon="0.654015">
        <ele>1801.7</ele>
        <time>2014-12-07T10:05:32Z</time>
      </trkpt>
      <trkpt lat="42.869012" lon="0.654071">
        <ele>1802.4</ele>
        <time>2014-12-07T10:06:01Z</time>
      </trkpt>
      <trkpt lat="42.868974" lon="0.654183">
        <ele>1800.4</ele>
        <time>2014-12-07T10:06:09Z</time>
      </trkpt>
      <trkpt lat="42.868937" lon="0.654309">
        <ele>1799.3</ele>
        <time>2014-12-07T10:06:19Z</time>
      </trkpt>
      <trkpt lat="42.868912" lon="0.654427">
        <ele>1800.4</ele>
        <time>2014-12-07T10:06:32Z</time>
      </trkpt>
      <trkpt lat="42.868877" lon="0.654539">
        <ele>1802.9</ele>
        <time>2014-12-07T10:06:50Z</time>
      </trkpt>
      <trkpt lat="42.868856" lon="0.654653">
        <ele>1805.1</ele>
        <time>2014-12-07T10:07:07Z</time>
      </trkpt>
      <trkpt lat="42.868815" lon="0.654764">
        <ele>1807.2</ele>
        <time>2014-12-07T10:07:23Z</time>
      </trkpt>
      <trkpt lat="42.868783" lon="0.654880">
        <ele>1809.1</ele>
        <time>2014-12-07T10:07:38Z</time>
      </trkpt>
      <trkpt lat="42.868729" lon="0.654969">
        <ele>1810.4</ele>
        <time>2014-12-07T10:07:55Z</time>
      </trkpt>
      <trkpt lat="42.868682" lon="0.655080">
        <ele>1812.4</ele>
        <time>2014-12-07T10:08:11Z</time>
      </trkpt>
      <trkpt lat="42.868628" lon="0.655183">
        <ele>1813.8</ele>
        <time>2014-12-07T10:08:26Z</time>
      </trkpt>
      <trkpt lat="42.868546" lon="0.655249">
        <ele>1815.4</ele>
        <time>2014-12-07T10:08:40Z</time>
      </trkpt>
      <trkpt lat="42.868480" lon="0.655327">
        <ele>1816.7</ele>
        <time>2014-12-07T10:08:54Z</time>
      </trkpt>
      <trkpt lat="42.868428" lon="0.655424">
        <ele>1819.4</ele>
        <time>2014-12-07T10:09:12Z</time>
      </trkpt>
      <trkpt lat="42.868359" lon="0.655503">
        <ele>1822.6</ele>
        <time>2014-12-07T10:09:35Z</time>
      </trkpt>
      <trkpt lat="42.868301" lon="0.655595">
        <ele>1825.1</ele>
        <time>2014-12-07T10:09:55Z</time>
      </trkpt>
      <trkpt lat="42.868296" lon="0.655701">
        <ele>1827.7</ele>
        <time>2014-12-07T10:10:14Z</time>
      </trkpt>
      <trkpt lat="42.868238" lon="0.655789">
        <ele>1830.3</ele>
        <time>2014-12-07T10:10:35Z</time>
      </trkpt>
      <trkpt lat="42.868151" lon="0.655843">
        <ele>1832.6</ele>
        <time>2014-12-07T10:10:53Z</time>
      </trkpt>
      <trkpt lat="42.868075" lon="0.655879">
        <ele>1836.4</ele>
        <time>2014-12-07T10:11:17Z</time>
      </trkpt>
      <trkpt lat="42.867986" lon="0.655860">
        <ele>1840.3</ele>
        <time>2014-12-07T10:11:43Z</time>
      </trkpt>
      <trkpt lat="42.867906" lon="0.655854">
        <ele>1843.7</ele>
        <time>2014-12-07T10:12:05Z</time>
      </trkpt>
      <trkpt lat="42.867832" lon="0.655856">
        <ele>1848.8</ele>
        <time>2014-12-07T10:12:29Z</time>
      </trkpt>
      <trkpt lat="42.867828" lon="0.655975">
        <ele>1851.1</ele>
        <time>2014-12-07T10:12:48Z</time>
      </trkpt>
      <trkpt lat="42.867808" lon="0.656088">
        <ele>1854.3</ele>
        <time>2014-12-07T10:13:14Z</time>
      </trkpt>
      <trkpt lat="42.867745" lon="0.656161">
        <ele>1857.8</ele>
        <time>2014-12-07T10:13:39Z</time>
      </trkpt>
      <trkpt lat="42.867688" lon="0.656256">
        <ele>1859.4</ele>
        <time>2014-12-07T10:13:56Z</time>
      </trkpt>
      <trkpt lat="42.867680" lon="0.656382">
        <ele>1862.4</ele>
        <time>2014-12-07T10:14:15Z</time>
      </trkpt>
      <trkpt lat="42.867639" lon="0.656474">
        <ele>1864.1</ele>
        <time>2014-12-07T10:14:33Z</time>
      </trkpt>
      <trkpt lat="42.867575" lon="0.656562">
        <ele>1866.7</ele>
        <time>2014-12-07T10:14:52Z</time>
      </trkpt>
      <trkpt lat="42.867500" lon="0.656637">
        <ele>1868.8</ele>
        <time>2014-12-07T10:15:12Z</time>
      </trkpt>
      <trkpt lat="42.867427" lon="0.656714">
        <ele>1871.3</ele>
        <time>2014-12-07T10:15:30Z</time>
      </trkpt>
      <trkpt lat="42.867375" lon="0.656806">
        <ele>1873.9</ele>
        <time>2014-12-07T10:15:49Z</time>
      </trkpt>
      <trkpt lat="42.867353" lon="0.656921">
        <ele>1876.5</ele>
        <time>2014-12-07T10:16:06Z</time>
      </trkpt>
      <trkpt lat="42.867281" lon="0.656987">
        <ele>1879.4</ele>
        <time>2014-12-07T10:16:26Z</time>
      </trkpt>
      <trkpt lat="42.867219" lon="0.657078">
        <ele>1883.0</ele>
        <time>2014-12-07T10:16:46Z</time>
      </trkpt>
      <trkpt lat="42.867132" lon="0.657136">
        <ele>1885.9</ele>
        <time>2014-12-07T10:17:03Z</time>
      </trkpt>
      <trkpt lat="42.867077" lon="0.657225">
        <ele>1888.8</ele>
        <time>2014-12-07T10:17:21Z</time>
      </trkpt>
      <trkpt lat="42.867023" lon="0.657317">
        <ele>1892.4</ele>
        <time>2014-12-07T10:17:43Z</time>
      </trkpt>
      <trkpt lat="42.866949" lon="0.657379">
        <ele>1895.5</ele>
        <time>2014-12-07T10:18:06Z</time>
      </trkpt>
      <trkpt lat="42.866864" lon="0.657421">
        <ele>1898.3</ele>
        <time>2014-12-07T10:18:29Z</time>
      </trkpt>
      <trkpt lat="42.866775" lon="0.657427">
        <ele>1900.8</ele>
        <time>2014-12-07T10:18:49Z</time>
      </trkpt>
      <trkpt lat="42.866683" lon="0.657411">
        <ele>1903.1</ele>
        <time>2014-12-07T10:19:09Z</time>
      </trkpt>
      <trkpt lat="42.866588" lon="0.657395">
        <ele>1905.8</ele>
        <time>2014-12-07T10:19:32Z</time>
      </trkpt>
      <trkpt lat="42.866503" lon="0.657348">
        <ele>1908.3</ele>
        <time>2014-12-07T10:19:53Z</time>
      </trkpt>
      <trkpt lat="42.866427" lon="0.657319">
        <ele>1911.7</ele>
        <time>2014-12-07T10:21:11Z</time>
      </trkpt>
      <trkpt lat="42.866352" lon="0.657327">
        <ele>1914.8</ele>
        <time>2014-12-07T10:21:38Z</time>
      </trkpt>
      <trkpt lat="42.866298" lon="0.657423">
        <ele>1918.1</ele>
        <time>2014-12-07T10:22:22Z</time>
      </trkpt>
      <trkpt lat="42.866242" lon="0.657530">
        <ele>1921.7</ele>
        <time>2014-12-07T10:22:42Z</time>
      </trkpt>
      <trkpt lat="42.866197" lon="0.657637">
        <ele>1925.8</ele>
        <time>2014-12-07T10:23:07Z</time>
      </trkpt>
      <trkpt lat="42.866159" lon="0.657748">
        <ele>1930.1</ele>
        <time>2014-12-07T10:23:33Z</time>
      </trkpt>
      <trkpt lat="42.866124" lon="0.657856">
        <ele>1935.4</ele>
        <time>2014-12-07T10:24:05Z</time>
      </trkpt>
      <trkpt lat="42.866095" lon="0.657955">
        <ele>1939.3</ele>
        <time>2014-12-07T10:24:52Z</time>
      </trkpt>
      <trkpt lat="42.866087" lon="0.658072">
        <ele>1944.1</ele>
        <time>2014-12-07T10:25:19Z</time>
      </trkpt>
      <trkpt lat="42.866084" lon="0.658176">
        <ele>1949.1</ele>
        <time>2014-12-07T10:25:44Z</time>
      </trkpt>
      <trkpt lat="42.866097" lon="0.658361">
        <ele>1954.9</ele>
        <time>2014-12-07T10:36:27Z</time>
      </trkpt>
      <trkpt lat="42.866021" lon="0.658354">
        <ele>1952.1</ele>
        <time>2014-12-07T10:36:52Z</time>
      </trkpt>
      <trkpt lat="42.865933" lon="0.658358">
        <ele>1948.3</ele>
        <time>2014-12-07T10:37:06Z</time>
      </trkpt>
      <trkpt lat="42.865845" lon="0.658331">
        <ele>1943.7</ele>
        <time>2014-12-07T10:37:21Z</time>
      </trkpt>
      <trkpt lat="42.865753" lon="0.658327">
        <ele>1939.5</ele>
        <time>2014-12-07T10:37:34Z</time>
      </trkpt>
      <trkpt lat="42.865667" lon="0.658309">
        <ele>1935.8</ele>
        <time>2014-12-07T10:37:45Z</time>
      </trkpt>
      <trkpt lat="42.865579" lon="0.658313">
        <ele>1931.3</ele>
        <time>2014-12-07T10:37:56Z</time>
      </trkpt>
      <trkpt lat="42.865485" lon="0.658290">
        <ele>1927.9</ele>
        <time>2014-12-07T10:38:07Z</time>
      </trkpt>
      <trkpt lat="42.865397" lon="0.658256">
        <ele>1925.0</ele>
        <time>2014-12-07T10:38:17Z</time>
      </trkpt>
      <trkpt lat="42.865307" lon="0.658232">
        <ele>1922.5</ele>
        <time>2014-12-07T10:38:29Z</time>
      </trkpt>
      <trkpt lat="42.865220" lon="0.658282">
        <ele>1923.8</ele>
        <time>2014-12-07T10:38:45Z</time>
      </trkpt>
      <trkpt lat="42.865137" lon="0.658263">
        <ele>1926.6</ele>
        <time>2014-12-07T10:39:04Z</time>
      </trkpt>
      <trkpt lat="42.865044" lon="0.658243">
        <ele>1929.3</ele>
        <time>2014-12-07T10:39:22Z</time>
      </trkpt>
      <trkpt lat="42.864956" lon="0.658225">
        <ele>1931.4</ele>
        <time>2014-12-07T10:39:38Z</time>
      </trkpt>
      <trkpt lat="42.864870" lon="0.658235">
        <ele>1933.0</ele>
        <time>2014-12-07T10:39:54Z</time>
      </trkpt>
      <trkpt lat="42.864776" lon="0.658206">
        <ele>1934.3</ele>
        <time>2014-12-07T10:40:08Z</time>
      </trkpt>
      <trkpt lat="42.864682" lon="0.658205">
        <ele>1935.4</ele>
        <time>2014-12-07T10:40:22Z</time>
      </trkpt>
      <trkpt lat="42.864591" lon="0.658199">
        <ele>1936.1</ele>
        <time>2014-12-07T10:40:37Z</time>
      </trkpt>
      <trkpt lat="42.864493" lon="0.658191">
        <ele>1937.4</ele>
        <time>2014-12-07T10:40:53Z</time>
      </trkpt>
      <trkpt lat="42.864400" lon="0.658157">
        <ele>1939.2</ele>
        <time>2014-12-07T10:41:06Z</time>
      </trkpt>
      <trkpt lat="42.864313" lon="0.658127">
        <ele>1940.7</ele>
        <time>2014-12-07T10:41:18Z</time>
      </trkpt>
      <trkpt lat="42.864222" lon="0.658092">
        <ele>1942.9</ele>
        <time>2014-12-07T10:41:33Z</time>
      </trkpt>
      <trkpt lat="42.864130" lon="0.658052">
        <ele>1946.1</ele>
        <time>2014-12-07T10:41:49Z</time>
      </trkpt>
      <trkpt lat="42.864038" lon="0.658017">
        <ele>1948.9</ele>
        <time>2014-12-07T10:42:08Z</time>
      </trkpt>
      <trkpt lat="42.863952" lon="0.657969">
        <ele>1951.2</ele>
        <time>2014-12-07T10:42:27Z</time>
      </trkpt>
      <trkpt lat="42.863862" lon="0.657962">
        <ele>1952.7</ele>
        <time>2014-12-07T10:42:51Z</time>
      </trkpt>
      <trkpt lat="42.863765" lon="0.657960">
        <ele>1951.7</ele>
        <time>2014-12-07T10:43:05Z</time>
      </trkpt>
      <trkpt lat="42.863674" lon="0.657929">
        <ele>1951.8</ele>
        <time>2014-12-07T10:43:18Z</time>
      </trkpt>
      <trkpt lat="42.863579" lon="0.657932">
        <ele>1950.7</ele>
        <time>2014-12-07T10:43:29Z</time>
      </trkpt>
      <trkpt lat="42.863488" lon="0.657955">
        <ele>1950.9</ele>
        <time>2014-12-07T10:43:42Z</time>
      </trkpt>
      <trkpt lat="42.863399" lon="0.657936">
        <ele>1951.4</ele>
        <time>2014-12-07T10:43:54Z</time>
      </trkpt>
      <trkpt lat="42.863311" lon="0.657957">
        <ele>1952.7</ele>
        <time>2014-12-07T10:44:09Z</time>
      </trkpt>
      <trkpt lat="42.863225" lon="0.657989">
        <ele>1954.8</ele>
        <time>2014-12-07T10:44:23Z</time>
      </trkpt>
      <trkpt lat="42.863131" lon="0.658008">
        <ele>1956.4</ele>
        <time>2014-12-07T10:44:36Z</time>
      </trkpt>
      <trkpt lat="42.863040" lon="0.658020">
        <ele>1958.6</ele>
        <time>2014-12-07T10:44:49Z</time>
      </trkpt>
      <trkpt lat="42.862950" lon="0.658041">
        <ele>1960.6</ele>
        <time>2014-12-07T10:45:03Z</time>
      </trkpt>
      <trkpt lat="42.862861" lon="0.658080">
        <ele>1962.9</ele>
        <time>2014-12-07T10:45:17Z</time>
      </trkpt>
      <trkpt lat="42.862788" lon="0.658141">
        <ele>1965.8</ele>
        <time>2014-12-07T10:45:34Z</time>
      </trkpt>
      <trkpt lat="42.862704" lon="0.658197">
        <ele>1968.9</ele>
        <time>2014-12-07T10:45:51Z</time>
      </trkpt>
      <trkpt lat="42.862628" lon="0.658266">
        <ele>1971.2</ele>
        <time>2014-12-07T10:46:06Z</time>
      </trkpt>
      <trkpt lat="42.862550" lon="0.658298">
        <ele>1973.2</ele>
        <time>2014-12-07T10:46:20Z</time>
      </trkpt>
      <trkpt lat="42.862467" lon="0.658352">
        <ele>1975.2</ele>
        <time>2014-12-07T10:46:35Z</time>
      </trkpt>
      <trkpt lat="42.862381" lon="0.658366">
        <ele>1977.0</ele>
        <time>2014-12-07T10:46:49Z</time>
      </trkpt>
      <trkpt lat="42.862297" lon="0.658402">
        <ele>1977.6</ele>
        <time>2014-12-07T10:47:03Z</time>
      </trkpt>
      <trkpt lat="42.862214" lon="0.658466">
        <ele>1980.5</ele>
        <time>2014-12-07T10:47:20Z</time>
      </trkpt>
      <trkpt lat="42.862148" lon="0.658552">
        <ele>1983.3</ele>
        <time>2014-12-07T10:47:36Z</time>
      </trkpt>
      <trkpt lat="42.862078" lon="0.658639">
        <ele>1985.8</ele>
        <time>2014-12-07T10:47:52Z</time>
      </trkpt>
      <trkpt lat="42.862008" lon="0.658714">
        <ele>1988.2</ele>
        <time>2014-12-07T10:48:07Z</time>
      </trkpt>
      <trkpt lat="42.861957" lon="0.658826">
        <ele>1989.8</ele>
        <time>2014-12-07T10:48:22Z</time>
      </trkpt>
      <trkpt lat="42.861881" lon="0.658890">
        <ele>1990.5</ele>
        <time>2014-12-07T10:49:32Z</time>
      </trkpt>
      <trkpt lat="42.861807" lon="0.658963">
        <ele>1991.9</ele>
        <time>2014-12-07T10:49:45Z</time>
      </trkpt>
      <trkpt lat="42.861726" lon="0.659025">
        <ele>1993.7</ele>
        <time>2014-12-07T10:49:58Z</time>
      </trkpt>
      <trkpt lat="42.861644" lon="0.659061">
        <ele>1997.0</ele>
        <time>2014-12-07T10:50:13Z</time>
      </trkpt>
      <trkpt lat="42.861566" lon="0.659120">
        <ele>1999.5</ele>
        <time>2014-12-07T10:50:30Z</time>
      </trkpt>
      <trkpt lat="42.861491" lon="0.659174">
        <ele>2002.8</ele>
        <time>2014-12-07T10:50:49Z</time>
      </trkpt>
      <trkpt lat="42.861412" lon="0.659227">
        <ele>2006.3</ele>
        <time>2014-12-07T10:51:11Z</time>
      </trkpt>
      <trkpt lat="42.861357" lon="0.659319">
        <ele>2009.1</ele>
        <time>2014-12-07T10:51:31Z</time>
      </trkpt>
      <trkpt lat="42.861303" lon="0.659405">
        <ele>2011.9</ele>
        <time>2014-12-07T10:52:15Z</time>
      </trkpt>
      <trkpt lat="42.861286" lon="0.659526">
        <ele>2014.3</ele>
        <time>2014-12-07T10:52:31Z</time>
      </trkpt>
      <trkpt lat="42.861278" lon="0.659653">
        <ele>2017.0</ele>
        <time>2014-12-07T10:52:52Z</time>
      </trkpt>
      <trkpt lat="42.861280" lon="0.659773">
        <ele>2019.4</ele>
        <time>2014-12-07T10:53:09Z</time>
      </trkpt>
      <trkpt lat="42.861267" lon="0.659879">
        <ele>2021.3</ele>
        <time>2014-12-07T10:53:57Z</time>
      </trkpt>
      <trkpt lat="42.861240" lon="0.660005">
        <ele>2021.8</ele>
        <time>2014-12-07T10:54:21Z</time>
      </trkpt>
      <trkpt lat="42.861222" lon="0.660137">
        <ele>2022.1</ele>
        <time>2014-12-07T10:54:33Z</time>
      </trkpt>
      <trkpt lat="42.861203" lon="0.660263">
        <ele>2024.3</ele>
        <time>2014-12-07T10:54:47Z</time>
      </trkpt>
      <trkpt lat="42.861179" lon="0.660378">
        <ele>2024.9</ele>
        <time>2014-12-07T10:54:59Z</time>
      </trkpt>
      <trkpt lat="42.861166" lon="0.660501">
        <ele>2026.3</ele>
        <time>2014-12-07T10:55:15Z</time>
      </trkpt>
      <trkpt lat="42.861144" lon="0.660625">
        <ele>2027.3</ele>
        <time>2014-12-07T10:55:29Z</time>
      </trkpt>
      <trkpt lat="42.861117" lon="0.660744">
        <ele>2027.2</ele>
        <time>2014-12-07T10:55:45Z</time>
      </trkpt>
      <trkpt lat="42.861099" lon="0.660871">
        <ele>2026.6</ele>
        <time>2014-12-07T10:55:58Z</time>
      </trkpt>
      <trkpt lat="42.861088" lon="0.661004">
        <ele>2026.9</ele>
        <time>2014-12-07T10:56:11Z</time>
      </trkpt>
      <trkpt lat="42.861079" lon="0.661129">
        <ele>2027.4</ele>
        <time>2014-12-07T10:56:23Z</time>
      </trkpt>
      <trkpt lat="42.861057" lon="0.661259">
        <ele>2027.9</ele>
        <time>2014-12-07T10:56:34Z</time>
      </trkpt>
      <trkpt lat="42.861056" lon="0.661379">
        <ele>2028.4</ele>
        <time>2014-12-07T10:56:47Z</time>
      </trkpt>
      <trkpt lat="42.861023" lon="0.661508">
        <ele>2029.8</ele>
        <time>2014-12-07T10:57:00Z</time>
      </trkpt>
      <trkpt lat="42.860966" lon="0.661610">
        <ele>2029.7</ele>
        <time>2014-12-07T10:57:13Z</time>
      </trkpt>
      <trkpt lat="42.860930" lon="0.661730">
        <ele>2031.9</ele>
        <time>2014-12-07T10:57:28Z</time>
      </trkpt>
      <trkpt lat="42.860907" lon="0.661854">
        <ele>2032.8</ele>
        <time>2014-12-07T10:57:42Z</time>
      </trkpt>
      <trkpt lat="42.860895" lon="0.661978">
        <ele>2033.2</ele>
        <time>2014-12-07T10:57:54Z</time>
      </trkpt>
      <trkpt lat="42.860896" lon="0.662110">
        <ele>2034.1</ele>
        <time>2014-12-07T10:58:11Z</time>
      </trkpt>
      <trkpt lat="42.860898" lon="0.662234">
        <ele>2036.0</ele>
        <time>2014-12-07T10:58:26Z</time>
      </trkpt>
      <trkpt lat="42.860891" lon="0.662363">
        <ele>2037.3</ele>
        <time>2014-12-07T10:58:39Z</time>
      </trkpt>
      <trkpt lat="42.860864" lon="0.662462">
        <ele>2037.2</ele>
        <time>2014-12-07T10:59:19Z</time>
      </trkpt>
      <trkpt lat="42.860816" lon="0.662575">
        <ele>2036.6</ele>
        <time>2014-12-07T10:59:29Z</time>
      </trkpt>
      <trkpt lat="42.860771" lon="0.662700">
        <ele>2035.2</ele>
        <time>2014-12-07T10:59:39Z</time>
      </trkpt>
      <trkpt lat="42.860739" lon="0.662821">
        <ele>2034.4</ele>
        <time>2014-12-07T10:59:49Z</time>
      </trkpt>
      <trkpt lat="42.860704" lon="0.662940">
        <ele>2034.0</ele>
        <time>2014-12-07T10:59:59Z</time>
      </trkpt>
      <trkpt lat="42.860664" lon="0.663054">
        <ele>2033.5</ele>
        <time>2014-12-07T11:00:09Z</time>
      </trkpt>
      <trkpt lat="42.860630" lon="0.663180">
        <ele>2034.2</ele>
        <time>2014-12-07T11:00:21Z</time>
      </trkpt>
      <trkpt lat="42.860600" lon="0.663294">
        <ele>2035.5</ele>
        <time>2014-12-07T11:00:34Z</time>
      </trkpt>
      <trkpt lat="42.860544" lon="0.663400">
        <ele>2037.5</ele>
        <time>2014-12-07T11:00:49Z</time>
      </trkpt>
      <trkpt lat="42.860499" lon="0.663504">
        <ele>2039.7</ele>
        <time>2014-12-07T11:01:04Z</time>
      </trkpt>
      <trkpt lat="42.860471" lon="0.663634">
        <ele>2041.1</ele>
        <time>2014-12-07T11:01:20Z</time>
      </trkpt>
      <trkpt lat="42.860430" lon="0.663747">
        <ele>2041.8</ele>
        <time>2014-12-07T11:01:31Z</time>
      </trkpt>
      <trkpt lat="42.860381" lon="0.663860">
        <ele>2041.7</ele>
        <time>2014-12-07T11:01:42Z</time>
      </trkpt>
      <trkpt lat="42.860339" lon="0.663975">
        <ele>2041.4</ele>
        <time>2014-12-07T11:01:54Z</time>
      </trkpt>
      <trkpt lat="42.860306" lon="0.664096">
        <ele>2041.7</ele>
        <time>2014-12-07T11:02:05Z</time>
      </trkpt>
      <trkpt lat="42.860260" lon="0.664212">
        <ele>2042.4</ele>
        <time>2014-12-07T11:02:20Z</time>
      </trkpt>
      <trkpt lat="42.860236" lon="0.664317">
        <ele>2045.4</ele>
        <time>2014-12-07T11:02:39Z</time>
      </trkpt>
      <trkpt lat="42.860167" lon="0.664408">
        <ele>2047.3</ele>
        <time>2014-12-07T11:02:54Z</time>
      </trkpt>
      <trkpt lat="42.860113" lon="0.664507">
        <ele>2049.0</ele>
        <time>2014-12-07T11:03:10Z</time>
      </trkpt>
      <trkpt lat="42.860123" lon="0.664556">
        <ele>2052.2</ele>
        <time>2014-12-07T11:03:37Z</time>
      </trkpt>
      <trkpt lat="42.860187" lon="0.664579">
        <ele>2055.3</ele>
        <time>2014-12-07T11:03:58Z</time>
      </trkpt>
      <trkpt lat="42.860188" lon="0.664697">
        <ele>2060.3</ele>
        <time>2014-12-07T11:04:31Z</time>
      </trkpt>
      <trkpt lat="42.860190" lon="0.664820">
        <ele>2064.6</ele>
        <time>2014-12-07T11:04:52Z</time>
      </trkpt>
      <trkpt lat="42.860159" lon="0.664937">
        <ele>2069.1</ele>
        <time>2014-12-07T11:05:16Z</time>
      </trkpt>
      <trkpt lat="42.860141" lon="0.665058">
        <ele>2073.7</ele>
        <time>2014-12-07T11:05:47Z</time>
      </trkpt>
      <trkpt lat="42.860113" lon="0.665172">
        <ele>2076.5</ele>
        <time>2014-12-07T11:06:08Z</time>
      </trkpt>
      <trkpt lat="42.860094" lon="0.665265">
        <ele>2081.7</ele>
        <time>2014-12-07T11:06:40Z</time>
      </trkpt>
      <trkpt lat="42.860092" lon="0.665286">
        <ele>2081.1</ele>
        <time>2014-12-07T11:14:30Z</time>
      </trkpt>
      <trkpt lat="42.860064" lon="0.665390">
        <ele>2082.9</ele>
        <time>2014-12-07T11:14:51Z</time>
      </trkpt>
      <trkpt lat="42.860028" lon="0.665507">
        <ele>2085.6</ele>
        <time>2014-12-07T11:15:07Z</time>
      </trkpt>
      <trkpt lat="42.860003" lon="0.665637">
        <ele>2088.5</ele>
        <time>2014-12-07T11:15:22Z</time>
      </trkpt>
      <trkpt lat="42.859984" lon="0.665769">
        <ele>2090.8</ele>
        <time>2014-12-07T11:15:37Z</time>
      </trkpt>
      <trkpt lat="42.859976" lon="0.665893">
        <ele>2091.4</ele>
        <time>2014-12-07T11:15:50Z</time>
      </trkpt>
      <trkpt lat="42.859961" lon="0.666023">
        <ele>2091.8</ele>
        <time>2014-12-07T11:16:05Z</time>
      </trkpt>
      <trkpt lat="42.859971" lon="0.666146">
        <ele>2092.8</ele>
        <time>2014-12-07T11:16:21Z</time>
      </trkpt>
      <trkpt lat="42.859992" lon="0.666266">
        <ele>2094.7</ele>
        <time>2014-12-07T11:16:38Z</time>
      </trkpt>
      <trkpt lat="42.859990" lon="0.666388">
        <ele>2096.7</ele>
        <time>2014-12-07T11:16:55Z</time>
      </trkpt>
      <trkpt lat="42.859953" lon="0.666504">
        <ele>2099.4</ele>
        <time>2014-12-07T11:17:14Z</time>
      </trkpt>
      <trkpt lat="42.859961" lon="0.666626">
        <ele>2102.4</ele>
        <time>2014-12-07T11:17:35Z</time>
      </trkpt>
      <trkpt lat="42.859981" lon="0.666738">
        <ele>2105.5</ele>
        <time>2014-12-07T11:17:57Z</time>
      </trkpt>
      <trkpt lat="42.859968" lon="0.666845">
        <ele>2109.1</ele>
        <time>2014-12-07T11:18:22Z</time>
      </trkpt>
      <trkpt lat="42.859922" lon="0.666946">
        <ele>2112.8</ele>
        <time>2014-12-07T11:18:46Z</time>
      </trkpt>
      <trkpt lat="42.859956" lon="0.667053">
        <ele>2116.3</ele>
        <time>2014-12-07T11:19:08Z</time>
      </trkpt>
      <trkpt lat="42.859992" lon="0.667165">
        <ele>2119.8</ele>
        <time>2014-12-07T11:19:31Z</time>
      </trkpt>
      <trkpt lat="42.859933" lon="0.667250">
        <ele>2122.9</ele>
        <time>2014-12-07T11:19:54Z</time>
      </trkpt>
      <trkpt lat="42.859878" lon="0.667347">
        <ele>2126.4</ele>
        <time>2014-12-07T11:20:16Z</time>
      </trkpt>
      <trkpt lat="42.859834" lon="0.667449">
        <ele>2130.0</ele>
        <time>2014-12-07T11:20:40Z</time>
      </trkpt>
      <trkpt lat="42.859825" lon="0.667559">
        <ele>2134.5</ele>
        <time>2014-12-07T11:21:07Z</time>
      </trkpt>
      <trkpt lat="42.859883" lon="0.667648">
        <ele>2137.3</ele>
        <time>2014-12-07T11:21:29Z</time>
      </trkpt>
      <trkpt lat="42.859866" lon="0.667750">
        <ele>2141.1</ele>
        <time>2014-12-07T11:21:51Z</time>
      </trkpt>
      <trkpt lat="42.859818" lon="0.667851">
        <ele>2144.1</ele>
        <time>2014-12-07T11:22:12Z</time>
      </trkpt>
      <trkpt lat="42.859795" lon="0.667964">
        <ele>2147.2</ele>
        <time>2014-12-07T11:22:35Z</time>
      </trkpt>
      <trkpt lat="42.859780" lon="0.668084">
        <ele>2150.8</ele>
        <time>2014-12-07T11:22:58Z</time>
      </trkpt>
      <trkpt lat="42.859769" lon="0.668212">
        <ele>2154.0</ele>
        <time>2014-12-07T11:23:19Z</time>
      </trkpt>
      <trkpt lat="42.859775" lon="0.668338">
        <ele>2157.8</ele>
        <time>2014-12-07T11:23:41Z</time>
      </trkpt>
      <trkpt lat="42.859782" lon="0.668454">
        <ele>2161.6</ele>
        <time>2014-12-07T11:24:05Z</time>
      </trkpt>
      <trkpt lat="42.859793" lon="0.668573">
        <ele>2166.2</ele>
        <time>2014-12-07T11:24:29Z</time>
      </trkpt>
      <trkpt lat="42.859795" lon="0.668697">
        <ele>2169.2</ele>
        <time>2014-12-07T11:24:52Z</time>
      </trkpt>
      <trkpt lat="42.859792" lon="0.668820">
        <ele>2172.5</ele>
        <time>2014-12-07T11:25:14Z</time>
      </trkpt>
      <trkpt lat="42.859786" lon="0.668938">
        <ele>2175.7</ele>
        <time>2014-12-07T11:25:36Z</time>
      </trkpt>
      <trkpt lat="42.859765" lon="0.669060">
        <ele>2179.2</ele>
        <time>2014-12-07T11:25:58Z</time>
      </trkpt>
      <trkpt lat="42.859740" lon="0.669174">
        <ele>2182.4</ele>
        <time>2014-12-07T11:26:20Z</time>
      </trkpt>
      <trkpt lat="42.859720" lon="0.669289">
        <ele>2185.8</ele>
        <time>2014-12-07T11:26:42Z</time>
      </trkpt>
      <trkpt lat="42.859698" lon="0.669407">
        <ele>2188.7</ele>
        <time>2014-12-07T11:27:03Z</time>
      </trkpt>
      <trkpt lat="42.859670" lon="0.669527">
        <ele>2191.9</ele>
        <time>2014-12-07T11:27:23Z</time>
      </trkpt>
      <trkpt lat="42.859647" lon="0.669643">
        <ele>2195.3</ele>
        <time>2014-12-07T11:27:45Z</time>
      </trkpt>
      <trkpt lat="42.859614" lon="0.669754">
        <ele>2198.8</ele>
        <time>2014-12-07T11:28:06Z</time>
      </trkpt>
      <trkpt lat="42.859583" lon="0.669867">
        <ele>2201.8</ele>
        <time>2014-12-07T11:28:27Z</time>
      </trkpt>
      <trkpt lat="42.859522" lon="0.669956">
        <ele>2204.9</ele>
        <time>2014-12-07T11:28:48Z</time>
      </trkpt>
      <trkpt lat="42.859496" lon="0.670073">
        <ele>2208.8</ele>
        <time>2014-12-07T11:29:11Z</time>
      </trkpt>
      <trkpt lat="42.859434" lon="0.670163">
        <ele>2212.2</ele>
        <time>2014-12-07T11:29:31Z</time>
      </trkpt>
      <trkpt lat="42.859397" lon="0.670267">
        <ele>2216.8</ele>
        <time>2014-12-07T11:29:57Z</time>
      </trkpt>
      <trkpt lat="42.859376" lon="0.670382">
        <ele>2220.9</ele>
        <time>2014-12-07T11:30:18Z</time>
      </trkpt>
      <trkpt lat="42.859378" lon="0.670507">
        <ele>2224.8</ele>
        <time>2014-12-07T11:30:36Z</time>
      </trkpt>
      <trkpt lat="42.859369" lon="0.670632">
        <ele>2227.5</ele>
        <time>2014-12-07T11:30:50Z</time>
      </trkpt>
      <trkpt lat="42.859350" lon="0.670751">
        <ele>2230.1</ele>
        <time>2014-12-07T11:31:05Z</time>
      </trkpt>
      <trkpt lat="42.859324" lon="0.670853">
        <ele>2234.1</ele>
        <time>2014-12-07T11:33:09Z</time>
      </trkpt>
      <trkpt lat="42.859236" lon="0.670820">
        <ele>2232.5</ele>
        <time>2014-12-07T11:33:20Z</time>
      </trkpt>
      <trkpt lat="42.859146" lon="0.670776">
        <ele>2228.0</ele>
        <time>2014-12-07T11:33:32Z</time>
      </trkpt>
      <trkpt lat="42.859057" lon="0.670779">
        <ele>2223.5</ele>
        <time>2014-12-07T11:33:44Z</time>
      </trkpt>
      <trkpt lat="42.858968" lon="0.670798">
        <ele>2220.8</ele>
        <time>2014-12-07T11:33:53Z</time>
      </trkpt>
      <trkpt lat="42.858877" lon="0.670819">
        <ele>2219.0</ele>
        <time>2014-12-07T11:34:03Z</time>
      </trkpt>
      <trkpt lat="42.858825" lon="0.670858">
        <ele>2219.9</ele>
        <time>2014-12-07T11:34:56Z</time>
      </trkpt>
      <trkpt lat="42.858849" lon="0.670870">
        <ele>2215.9</ele>
        <time>2014-12-07T11:44:11Z</time>
      </trkpt>
      <trkpt lat="42.858764" lon="0.670869">
        <ele>2218.8</ele>
        <time>2014-12-07T11:44:27Z</time>
      </trkpt>
      <trkpt lat="42.858675" lon="0.670904">
        <ele>2220.1</ele>
        <time>2014-12-07T11:44:41Z</time>
      </trkpt>
      <trkpt lat="42.858585" lon="0.670913">
        <ele>2220.1</ele>
        <time>2014-12-07T11:44:51Z</time>
      </trkpt>
      <trkpt lat="42.858490" lon="0.670930">
        <ele>2219.9</ele>
        <time>2014-12-07T11:45:02Z</time>
      </trkpt>
      <trkpt lat="42.858400" lon="0.670939">
        <ele>2219.6</ele>
        <time>2014-12-07T11:45:11Z</time>
      </trkpt>
      <trkpt lat="42.858305" lon="0.670954">
        <ele>2218.7</ele>
        <time>2014-12-07T11:45:20Z</time>
      </trkpt>
      <trkpt lat="42.858208" lon="0.670970">
        <ele>2218.0</ele>
        <time>2014-12-07T11:45:29Z</time>
      </trkpt>
      <trkpt lat="42.858118" lon="0.671001">
        <ele>2216.9</ele>
        <time>2014-12-07T11:45:38Z</time>
      </trkpt>
      <trkpt lat="42.858029" lon="0.671027">
        <ele>2216.0</ele>
        <time>2014-12-07T11:45:47Z</time>
      </trkpt>
      <trkpt lat="42.857927" lon="0.671031">
        <ele>2216.1</ele>
        <time>2014-12-07T11:45:59Z</time>
      </trkpt>
      <trkpt lat="42.857827" lon="0.671048">
        <ele>2216.8</ele>
        <time>2014-12-07T11:46:10Z</time>
      </trkpt>
      <trkpt lat="42.857732" lon="0.671045">
        <ele>2217.5</ele>
        <time>2014-12-07T11:46:21Z</time>
      </trkpt>
      <trkpt lat="42.857648" lon="0.671017">
        <ele>2217.8</ele>
        <time>2014-12-07T11:46:34Z</time>
      </trkpt>
      <trkpt lat="42.857551" lon="0.671016">
        <ele>2214.6</ele>
        <time>2014-12-07T11:46:47Z</time>
      </trkpt>
      <trkpt lat="42.857458" lon="0.671051">
        <ele>2211.0</ele>
        <time>2014-12-07T11:46:59Z</time>
      </trkpt>
      <trkpt lat="42.857361" lon="0.671106">
        <ele>2208.8</ele>
        <time>2014-12-07T11:47:10Z</time>
      </trkpt>
      <trkpt lat="42.857271" lon="0.671172">
        <ele>2206.3</ele>
        <time>2014-12-07T11:47:20Z</time>
      </trkpt>
      <trkpt lat="42.857179" lon="0.671248">
        <ele>2204.5</ele>
        <time>2014-12-07T11:47:29Z</time>
      </trkpt>
      <trkpt lat="42.857100" lon="0.671337">
        <ele>2203.3</ele>
        <time>2014-12-07T11:47:41Z</time>
      </trkpt>
      <trkpt lat="42.857042" lon="0.671442">
        <ele>2203.7</ele>
        <time>2014-12-07T11:47:51Z</time>
      </trkpt>
      <trkpt lat="42.856967" lon="0.671544">
        <ele>2203.3</ele>
        <time>2014-12-07T11:48:01Z</time>
      </trkpt>
      <trkpt lat="42.856896" lon="0.671644">
        <ele>2201.6</ele>
        <time>2014-12-07T11:48:11Z</time>
      </trkpt>
      <trkpt lat="42.856835" lon="0.671752">
        <ele>2200.6</ele>
        <time>2014-12-07T11:48:21Z</time>
      </trkpt>
      <trkpt lat="42.856807" lon="0.671879">
        <ele>2198.0</ele>
        <time>2014-12-07T11:48:31Z</time>
      </trkpt>
      <trkpt lat="42.856790" lon="0.671998">
        <ele>2195.4</ele>
        <time>2014-12-07T11:48:40Z</time>
      </trkpt>
      <trkpt lat="42.856760" lon="0.672112">
        <ele>2193.1</ele>
        <time>2014-12-07T11:48:50Z</time>
      </trkpt>
      <trkpt lat="42.856717" lon="0.672224">
        <ele>2188.4</ele>
        <time>2014-12-07T11:49:02Z</time>
      </trkpt>
      <trkpt lat="42.856668" lon="0.672314">
        <ele>2184.9</ele>
        <time>2014-12-07T11:49:13Z</time>
      </trkpt>
      <trkpt lat="42.856635" lon="0.672431">
        <ele>2180.4</ele>
        <time>2014-12-07T11:49:25Z</time>
      </trkpt>
      <trkpt lat="42.856604" lon="0.672540">
        <ele>2177.1</ele>
        <time>2014-12-07T11:49:37Z</time>
      </trkpt>
      <trkpt lat="42.856566" lon="0.672647">
        <ele>2174.1</ele>
        <time>2014-12-07T11:49:47Z</time>
      </trkpt>
      <trkpt lat="42.856543" lon="0.672756">
        <ele>2171.2</ele>
        <time>2014-12-07T11:49:58Z</time>
      </trkpt>
      <trkpt lat="42.856508" lon="0.672863">
        <ele>2169.7</ele>
        <time>2014-12-07T11:50:08Z</time>
      </trkpt>
      <trkpt lat="42.856468" lon="0.672964">
        <ele>2167.9</ele>
        <time>2014-12-07T11:50:17Z</time>
      </trkpt>
      <trkpt lat="42.856420" lon="0.673082">
        <ele>2166.5</ele>
        <time>2014-12-07T11:50:26Z</time>
      </trkpt>
      <trkpt lat="42.856376" lon="0.673188">
        <ele>2164.9</ele>
        <time>2014-12-07T11:50:35Z</time>
      </trkpt>
      <trkpt lat="42.856337" lon="0.673296">
        <ele>2164.4</ele>
        <time>2014-12-07T11:50:44Z</time>
      </trkpt>
      <trkpt lat="42.856303" lon="0.673411">
        <ele>2164.3</ele>
        <time>2014-12-07T11:50:54Z</time>
      </trkpt>
      <trkpt lat="42.856263" lon="0.673519">
        <ele>2164.1</ele>
        <time>2014-12-07T11:51:03Z</time>
      </trkpt>
      <trkpt lat="42.856231" lon="0.673628">
        <ele>2163.3</ele>
        <time>2014-12-07T11:51:13Z</time>
      </trkpt>
      <trkpt lat="42.856198" lon="0.673735">
        <ele>2163.0</ele>
        <time>2014-12-07T11:51:23Z</time>
      </trkpt>
      <trkpt lat="42.856170" lon="0.673854">
        <ele>2162.9</ele>
        <time>2014-12-07T11:51:33Z</time>
      </trkpt>
      <trkpt lat="42.856135" lon="0.673970">
        <ele>2163.7</ele>
        <time>2014-12-07T11:51:44Z</time>
      </trkpt>
      <trkpt lat="42.856109" lon="0.674086">
        <ele>2164.6</ele>
        <time>2014-12-07T11:51:57Z</time>
      </trkpt>
      <trkpt lat="42.856087" lon="0.674200">
        <ele>2166.2</ele>
        <time>2014-12-07T11:52:11Z</time>
      </trkpt>
      <trkpt lat="42.856066" lon="0.674313">
        <ele>2168.1</ele>
        <time>2014-12-07T11:52:25Z</time>
      </trkpt>
      <trkpt lat="42.856051" lon="0.674437">
        <ele>2169.2</ele>
        <time>2014-12-07T11:52:37Z</time>
      </trkpt>
      <trkpt lat="42.856038" lon="0.674552">
        <ele>2170.7</ele>
        <time>2014-12-07T11:52:51Z</time>
      </trkpt>
      <trkpt lat="42.856009" lon="0.674660">
        <ele>2171.7</ele>
        <time>2014-12-07T11:53:04Z</time>
      </trkpt>
      <trkpt lat="42.855980" lon="0.674769">
        <ele>2172.3</ele>
        <time>2014-12-07T11:53:19Z</time>
      </trkpt>
      <trkpt lat="42.855951" lon="0.674888">
        <ele>2173.9</ele>
        <time>2014-12-07T11:53:33Z</time>
      </trkpt>
      <trkpt lat="42.855933" lon="0.675000">
        <ele>2175.0</ele>
        <time>2014-12-07T11:53:48Z</time>
      </trkpt>
      <trkpt lat="42.855916" lon="0.675106">
        <ele>2176.4</ele>
        <time>2014-12-07T11:54:02Z</time>
      </trkpt>
      <trkpt lat="42.855893" lon="0.675222">
        <ele>2177.7</ele>
        <time>2014-12-07T11:54:17Z</time>
      </trkpt>
      <trkpt lat="42.855863" lon="0.675335">
        <ele>2178.6</ele>
        <time>2014-12-07T11:54:30Z</time>
      </trkpt>
      <trkpt lat="42.855831" lon="0.675442">
        <ele>2179.6</ele>
        <time>2014-12-07T11:54:44Z</time>
      </trkpt>
      <trkpt lat="42.855801" lon="0.675554">
        <ele>2181.0</ele>
        <time>2014-12-07T11:54:59Z</time>
      </trkpt>
      <trkpt lat="42.855779" lon="0.675665">
        <ele>2182.3</ele>
        <time>2014-12-07T11:55:15Z</time>
      </trkpt>
      <trkpt lat="42.855754" lon="0.675775">
        <ele>2183.8</ele>
        <time>2014-12-07T11:55:29Z</time>
      </trkpt>
      <trkpt lat="42.855743" lon="0.675889">
        <ele>2185.5</ele>
        <time>2014-12-07T11:55:44Z</time>
      </trkpt>
      <trkpt lat="42.855725" lon="0.676000">
        <ele>2186.8</ele>
        <time>2014-12-07T11:55:59Z</time>
      </trkpt>
      <trkpt lat="42.855711" lon="0.676119">
        <ele>2188.8</ele>
        <time>2014-12-07T11:56:14Z</time>
      </trkpt>
      <trkpt lat="42.855689" lon="0.676223">
        <ele>2190.6</ele>
        <time>2014-12-07T11:56:30Z</time>
      </trkpt>
      <trkpt lat="42.855663" lon="0.676332">
        <ele>2193.4</ele>
        <time>2014-12-07T11:56:47Z</time>
      </trkpt>
      <trkpt lat="42.855637" lon="0.676448">
        <ele>2195.6</ele>
        <time>2014-12-07T11:57:04Z</time>
      </trkpt>
      <trkpt lat="42.855604" lon="0.676549">
        <ele>2198.1</ele>
        <time>2014-12-07T11:57:24Z</time>
      </trkpt>
      <trkpt lat="42.855532" lon="0.676593">
        <ele>2201.9</ele>
        <time>2014-12-07T11:57:53Z</time>
      </trkpt>
      <trkpt lat="42.855522" lon="0.676707">
        <ele>2206.7</ele>
        <time>2014-12-07T11:58:21Z</time>
      </trkpt>
      <trkpt lat="42.855486" lon="0.676801">
        <ele>2212.2</ele>
        <time>2014-12-07T11:59:33Z</time>
      </trkpt>
      <trkpt lat="42.855452" lon="0.676925">
        <ele>2212.9</ele>
        <time>2014-12-07T12:00:50Z</time>
      </trkpt>
      <trkpt lat="42.855441" lon="0.677039">
        <ele>2216.9</ele>
        <time>2014-12-07T12:01:12Z</time>
      </trkpt>
      <trkpt lat="42.855423" lon="0.677148">
        <ele>2221.4</ele>
        <time>2014-12-07T12:01:35Z</time>
      </trkpt>
      <trkpt lat="42.855391" lon="0.677265">
        <ele>2224.8</ele>
        <time>2014-12-07T12:01:56Z</time>
      </trkpt>
      <trkpt lat="42.855384" lon="0.677388">
        <ele>2228.7</ele>
        <time>2014-12-07T12:02:16Z</time>
      </trkpt>
      <trkpt lat="42.855366" lon="0.677514">
        <ele>2231.0</ele>
        <time>2014-12-07T12:02:35Z</time>
      </trkpt>
      <trkpt lat="42.855342" lon="0.677624">
        <ele>2233.9</ele>
        <time>2014-12-07T12:02:57Z</time>
      </trkpt>
      <trkpt lat="42.855312" lon="0.677745">
        <ele>2235.4</ele>
        <time>2014-12-07T12:03:11Z</time>
      </trkpt>
      <trkpt lat="42.855295" lon="0.677870">
        <ele>2236.2</ele>
        <time>2014-12-07T12:03:26Z</time>
      </trkpt>
      <trkpt lat="42.855265" lon="0.677994">
        <ele>2237.0</ele>
        <time>2014-12-07T12:03:41Z</time>
      </trkpt>
      <trkpt lat="42.855224" lon="0.678072">
        <ele>2237.1</ele>
        <time>2014-12-07T12:04:18Z</time>
      </trkpt>
      <trkpt lat="42.855242" lon="0.677997">
        <ele>2237.0</ele>
        <time>2014-12-07T12:08:46Z</time>
      </trkpt>
      <trkpt lat="42.855277" lon="0.677874">
        <ele>2236.8</ele>
        <time>2014-12-07T12:08:58Z</time>
      </trkpt>
      <trkpt lat="42.855302" lon="0.677754">
        <ele>2236.0</ele>
        <time>2014-12-07T12:09:08Z</time>
      </trkpt>
      <trkpt lat="42.855331" lon="0.677633">
        <ele>2235.6</ele>
        <time>2014-12-07T12:09:17Z</time>
      </trkpt>
      <trkpt lat="42.855358" lon="0.677512">
        <ele>2233.7</ele>
        <time>2014-12-07T12:09:27Z</time>
      </trkpt>
      <trkpt lat="42.855375" lon="0.677384">
        <ele>2231.4</ele>
        <time>2014-12-07T12:09:38Z</time>
      </trkpt>
      <trkpt lat="42.855385" lon="0.677251">
        <ele>2228.2</ele>
        <time>2014-12-07T12:09:49Z</time>
      </trkpt>
      <trkpt lat="42.855414" lon="0.677123">
        <ele>2224.4</ele>
        <time>2014-12-07T12:10:01Z</time>
      </trkpt>
      <trkpt lat="42.855449" lon="0.677007">
        <ele>2219.9</ele>
        <time>2014-12-07T12:10:15Z</time>
      </trkpt>
      <trkpt lat="42.855459" lon="0.676886">
        <ele>2215.5</ele>
        <time>2014-12-07T12:10:26Z</time>
      </trkpt>
      <trkpt lat="42.855508" lon="0.676763">
        <ele>2212.1</ele>
        <time>2014-12-07T12:10:39Z</time>
      </trkpt>
      <trkpt lat="42.855518" lon="0.676629">
        <ele>2207.9</ele>
        <time>2014-12-07T12:10:52Z</time>
      </trkpt>
      <trkpt lat="42.855591" lon="0.676544">
        <ele>2203.1</ele>
        <time>2014-12-07T12:11:03Z</time>
      </trkpt>
      <trkpt lat="42.855636" lon="0.676429">
        <ele>2199.6</ele>
        <time>2014-12-07T12:11:13Z</time>
      </trkpt>
      <trkpt lat="42.855659" lon="0.676298">
        <ele>2196.5</ele>
        <time>2014-12-07T12:11:23Z</time>
      </trkpt>
      <trkpt lat="42.855691" lon="0.676172">
        <ele>2193.6</ele>
        <time>2014-12-07T12:11:33Z</time>
      </trkpt>
      <trkpt lat="42.855714" lon="0.676038">
        <ele>2191.0</ele>
        <time>2014-12-07T12:11:43Z</time>
      </trkpt>
      <trkpt lat="42.855737" lon="0.675916">
        <ele>2188.6</ele>
        <time>2014-12-07T12:11:53Z</time>
      </trkpt>
      <trkpt lat="42.855758" lon="0.675779">
        <ele>2186.9</ele>
        <time>2014-12-07T12:12:03Z</time>
      </trkpt>
      <trkpt lat="42.855789" lon="0.675659">
        <ele>2185.2</ele>
        <time>2014-12-07T12:12:13Z</time>
      </trkpt>
      <trkpt lat="42.855811" lon="0.675523">
        <ele>2183.6</ele>
        <time>2014-12-07T12:12:23Z</time>
      </trkpt>
      <trkpt lat="42.855843" lon="0.675399">
        <ele>2182.4</ele>
        <time>2014-12-07T12:12:33Z</time>
      </trkpt>
      <trkpt lat="42.855876" lon="0.675278">
        <ele>2181.6</ele>
        <time>2014-12-07T12:12:43Z</time>
      </trkpt>
      <trkpt lat="42.855910" lon="0.675151">
        <ele>2180.4</ele>
        <time>2014-12-07T12:12:54Z</time>
      </trkpt>
      <trkpt lat="42.855935" lon="0.675035">
        <ele>2178.8</ele>
        <time>2014-12-07T12:13:05Z</time>
      </trkpt>
      <trkpt lat="42.855948" lon="0.674907">
        <ele>2177.3</ele>
        <time>2014-12-07T12:13:15Z</time>
      </trkpt>
      <trkpt lat="42.855979" lon="0.674781">
        <ele>2175.6</ele>
        <time>2014-12-07T12:13:26Z</time>
      </trkpt>
      <trkpt lat="42.856011" lon="0.674656">
        <ele>2174.1</ele>
        <time>2014-12-07T12:13:36Z</time>
      </trkpt>
      <trkpt lat="42.856041" lon="0.674541">
        <ele>2173.2</ele>
        <time>2014-12-07T12:13:46Z</time>
      </trkpt>
      <trkpt lat="42.856060" lon="0.674409">
        <ele>2172.1</ele>
        <time>2014-12-07T12:13:56Z</time>
      </trkpt>
      <trkpt lat="42.856093" lon="0.674283">
        <ele>2170.9</ele>
        <time>2014-12-07T12:14:06Z</time>
      </trkpt>
      <trkpt lat="42.856105" lon="0.674159">
        <ele>2169.2</ele>
        <time>2014-12-07T12:14:19Z</time>
      </trkpt>
      <trkpt lat="42.856133" lon="0.674039">
        <ele>2167.8</ele>
        <time>2014-12-07T12:14:28Z</time>
      </trkpt>
      <trkpt lat="42.856166" lon="0.673919">
        <ele>2166.3</ele>
        <time>2014-12-07T12:14:36Z</time>
      </trkpt>
      <trkpt lat="42.856206" lon="0.673796">
        <ele>2165.1</ele>
        <time>2014-12-07T12:14:45Z</time>
      </trkpt>
      <trkpt lat="42.856237" lon="0.673681">
        <ele>2164.2</ele>
        <time>2014-12-07T12:14:53Z</time>
      </trkpt>
      <trkpt lat="42.856273" lon="0.673569">
        <ele>2164.1</ele>
        <time>2014-12-07T12:15:03Z</time>
      </trkpt>
      <trkpt lat="42.856308" lon="0.673459">
        <ele>2164.4</ele>
        <time>2014-12-07T12:15:13Z</time>
      </trkpt>
      <trkpt lat="42.856345" lon="0.673348">
        <ele>2165.3</ele>
        <time>2014-12-07T12:15:23Z</time>
      </trkpt>
      <trkpt lat="42.856376" lon="0.673228">
        <ele>2165.7</ele>
        <time>2014-12-07T12:15:32Z</time>
      </trkpt>
      <trkpt lat="42.856424" lon="0.673121">
        <ele>2165.7</ele>
        <time>2014-12-07T12:15:43Z</time>
      </trkpt>
      <trkpt lat="42.856470" lon="0.673033">
        <ele>2166.2</ele>
        <time>2014-12-07T12:15:53Z</time>
      </trkpt>
      <trkpt lat="42.856483" lon="0.672916">
        <ele>2167.0</ele>
        <time>2014-12-07T12:16:06Z</time>
      </trkpt>
      <trkpt lat="42.856488" lon="0.672797">
        <ele>2166.5</ele>
        <time>2014-12-07T12:16:18Z</time>
      </trkpt>
      <trkpt lat="42.856482" lon="0.672681">
        <ele>2166.2</ele>
        <time>2014-12-07T12:16:30Z</time>
      </trkpt>
      <trkpt lat="42.856456" lon="0.672565">
        <ele>2166.1</ele>
        <time>2014-12-07T12:16:42Z</time>
      </trkpt>
      <trkpt lat="42.856434" lon="0.672444">
        <ele>2166.8</ele>
        <time>2014-12-07T12:16:55Z</time>
      </trkpt>
      <trkpt lat="42.856417" lon="0.672325">
        <ele>2167.4</ele>
        <time>2014-12-07T12:17:10Z</time>
      </trkpt>
      <trkpt lat="42.856379" lon="0.672209">
        <ele>2167.7</ele>
        <time>2014-12-07T12:17:25Z</time>
      </trkpt>
      <trkpt lat="42.856353" lon="0.672089">
        <ele>2167.8</ele>
        <time>2014-12-07T12:17:44Z</time>
      </trkpt>
      <trkpt lat="42.856318" lon="0.671967">
        <ele>2168.4</ele>
        <time>2014-12-07T12:18:02Z</time>
      </trkpt>
      <trkpt lat="42.856305" lon="0.671859">
        <ele>2169.4</ele>
        <time>2014-12-07T12:18:22Z</time>
      </trkpt>
      <trkpt lat="42.856289" lon="0.671746">
        <ele>2170.4</ele>
        <time>2014-12-07T12:18:38Z</time>
      </trkpt>
      <trkpt lat="42.856264" lon="0.671624">
        <ele>2171.7</ele>
        <time>2014-12-07T12:18:56Z</time>
      </trkpt>
      <trkpt lat="42.856231" lon="0.671516">
        <ele>2172.4</ele>
        <time>2014-12-07T12:19:14Z</time>
      </trkpt>
      <trkpt lat="42.856198" lon="0.671403">
        <ele>2172.9</ele>
        <time>2014-12-07T12:19:32Z</time>
      </trkpt>
      <trkpt lat="42.856154" lon="0.671295">
        <ele>2174.5</ele>
        <time>2014-12-07T12:19:50Z</time>
      </trkpt>
      <trkpt lat="42.856058" lon="0.671055">
        <ele>2176.9</ele>
        <time>2014-12-07T12:59:33Z</time>
      </trkpt>
      <trkpt lat="42.856005" lon="0.670948">
        <ele>2176.6</ele>
        <time>2014-12-07T12:59:43Z</time>
      </trkpt>
      <trkpt lat="42.855965" lon="0.670827">
        <ele>2175.8</ele>
        <time>2014-12-07T12:59:52Z</time>
      </trkpt>
      <trkpt lat="42.855929" lon="0.670705">
        <ele>2175.3</ele>
        <time>2014-12-07T13:00:01Z</time>
      </trkpt>
      <trkpt lat="42.855893" lon="0.670587">
        <ele>2175.2</ele>
        <time>2014-12-07T13:00:12Z</time>
      </trkpt>
      <trkpt lat="42.855862" lon="0.670459">
        <ele>2175.3</ele>
        <time>2014-12-07T13:00:23Z</time>
      </trkpt>
      <trkpt lat="42.855821" lon="0.670344">
        <ele>2175.4</ele>
        <time>2014-12-07T13:00:32Z</time>
      </trkpt>
      <trkpt lat="42.855754" lon="0.670254">
        <ele>2175.1</ele>
        <time>2014-12-07T13:00:42Z</time>
      </trkpt>
      <trkpt lat="42.855686" lon="0.670166">
        <ele>2175.3</ele>
        <time>2014-12-07T13:00:53Z</time>
      </trkpt>
      <trkpt lat="42.855620" lon="0.670069">
        <ele>2175.6</ele>
        <time>2014-12-07T13:01:03Z</time>
      </trkpt>
      <trkpt lat="42.855543" lon="0.669987">
        <ele>2175.3</ele>
        <time>2014-12-07T13:01:16Z</time>
      </trkpt>
      <trkpt lat="42.855460" lon="0.669912">
        <ele>2174.9</ele>
        <time>2014-12-07T13:01:26Z</time>
      </trkpt>
      <trkpt lat="42.855377" lon="0.669856">
        <ele>2174.9</ele>
        <time>2014-12-07T13:01:36Z</time>
      </trkpt>
      <trkpt lat="42.855301" lon="0.669799">
        <ele>2175.1</ele>
        <time>2014-12-07T13:01:47Z</time>
      </trkpt>
      <trkpt lat="42.855219" lon="0.669741">
        <ele>2174.5</ele>
        <time>2014-12-07T13:01:59Z</time>
      </trkpt>
      <trkpt lat="42.855133" lon="0.669681">
        <ele>2173.0</ele>
        <time>2014-12-07T13:02:09Z</time>
      </trkpt>
      <trkpt lat="42.855040" lon="0.669655">
        <ele>2171.4</ele>
        <time>2014-12-07T13:02:18Z</time>
      </trkpt>
      <trkpt lat="42.854947" lon="0.669604">
        <ele>2169.9</ele>
        <time>2014-12-07T13:02:28Z</time>
      </trkpt>
      <trkpt lat="42.854863" lon="0.669546">
        <ele>2168.5</ele>
        <time>2014-12-07T13:02:37Z</time>
      </trkpt>
      <trkpt lat="42.854777" lon="0.669494">
        <ele>2166.9</ele>
        <time>2014-12-07T13:02:47Z</time>
      </trkpt>
      <trkpt lat="42.854696" lon="0.669456">
        <ele>2165.2</ele>
        <time>2014-12-07T13:03:01Z</time>
      </trkpt>
      <trkpt lat="42.854602" lon="0.669438">
        <ele>2163.2</ele>
        <time>2014-12-07T13:03:13Z</time>
      </trkpt>
      <trkpt lat="42.854519" lon="0.669400">
        <ele>2160.1</ele>
        <time>2014-12-07T13:03:30Z</time>
      </trkpt>
      <trkpt lat="42.854430" lon="0.669367">
        <ele>2156.7</ele>
        <time>2014-12-07T13:03:43Z</time>
      </trkpt>
      <trkpt lat="42.854404" lon="0.669271">
        <ele>2151.9</ele>
        <time>2014-12-07T13:04:02Z</time>
      </trkpt>
      <trkpt lat="42.854419" lon="0.669160">
        <ele>2146.9</ele>
        <time>2014-12-07T13:04:18Z</time>
      </trkpt>
      <trkpt lat="42.854457" lon="0.669040">
        <ele>2141.6</ele>
        <time>2014-12-07T13:04:57Z</time>
      </trkpt>
      <trkpt lat="42.854492" lon="0.668917">
        <ele>2138.7</ele>
        <time>2014-12-07T13:05:08Z</time>
      </trkpt>
      <trkpt lat="42.854479" lon="0.668797">
        <ele>2132.4</ele>
        <time>2014-12-07T13:05:22Z</time>
      </trkpt>
      <trkpt lat="42.854486" lon="0.668675">
        <ele>2126.4</ele>
        <time>2014-12-07T13:05:39Z</time>
      </trkpt>
      <trkpt lat="42.854454" lon="0.668587">
        <ele>2121.1</ele>
        <time>2014-12-07T13:05:58Z</time>
      </trkpt>
      <trkpt lat="42.854427" lon="0.668506">
        <ele>2116.5</ele>
        <time>2014-12-07T13:06:13Z</time>
      </trkpt>
      <trkpt lat="42.854368" lon="0.668415">
        <ele>2110.7</ele>
        <time>2014-12-07T13:06:31Z</time>
      </trkpt>
      <trkpt lat="42.854295" lon="0.668322">
        <ele>2105.6</ele>
        <time>2014-12-07T13:06:44Z</time>
      </trkpt>
      <trkpt lat="42.854276" lon="0.668207">
        <ele>2099.3</ele>
        <time>2014-12-07T13:07:00Z</time>
      </trkpt>
      <trkpt lat="42.854249" lon="0.668091">
        <ele>2093.2</ele>
        <time>2014-12-07T13:07:15Z</time>
      </trkpt>
      <trkpt lat="42.854213" lon="0.667976">
        <ele>2086.9</ele>
        <time>2014-12-07T13:07:30Z</time>
      </trkpt>
      <trkpt lat="42.854165" lon="0.667863">
        <ele>2080.7</ele>
        <time>2014-12-07T13:07:45Z</time>
      </trkpt>
      <trkpt lat="42.854131" lon="0.667744">
        <ele>2070.9</ele>
        <time>2014-12-07T13:10:50Z</time>
      </trkpt>
      <trkpt lat="42.854060" lon="0.667665">
        <ele>2067.1</ele>
        <time>2014-12-07T13:11:29Z</time>
      </trkpt>
      <trkpt lat="42.854002" lon="0.667569">
        <ele>2062.0</ele>
        <time>2014-12-07T13:11:40Z</time>
      </trkpt>
      <trkpt lat="42.853951" lon="0.667468">
        <ele>2055.7</ele>
        <time>2014-12-07T13:11:51Z</time>
      </trkpt>
      <trkpt lat="42.853902" lon="0.667366">
        <ele>2048.7</ele>
        <time>2014-12-07T13:12:04Z</time>
      </trkpt>
      <trkpt lat="42.853845" lon="0.667289">
        <ele>2042.5</ele>
        <time>2014-12-07T13:12:16Z</time>
      </trkpt>
      <trkpt lat="42.853774" lon="0.667207">
        <ele>2036.2</ele>
        <time>2014-12-07T13:12:31Z</time>
      </trkpt>
      <trkpt lat="42.853731" lon="0.667105">
        <ele>2027.1</ele>
        <time>2014-12-07T13:12:53Z</time>
      </trkpt>
      <trkpt lat="42.853697" lon="0.667009">
        <ele>2020.8</ele>
        <time>2014-12-07T13:13:44Z</time>
      </trkpt>
      <trkpt lat="42.853627" lon="0.666905">
        <ele>2014.3</ele>
        <time>2014-12-07T13:13:59Z</time>
      </trkpt>
      <trkpt lat="42.853557" lon="0.666806">
        <ele>2007.8</ele>
        <time>2014-12-07T13:14:12Z</time>
      </trkpt>
      <trkpt lat="42.853519" lon="0.666693">
        <ele>2000.3</ele>
        <time>2014-12-07T13:14:26Z</time>
      </trkpt>
      <trkpt lat="42.853489" lon="0.666589">
        <ele>1994.4</ele>
        <time>2014-12-07T13:14:39Z</time>
      </trkpt>
      <trkpt lat="42.853401" lon="0.666607">
        <ele>1990.2</ele>
        <time>2014-12-07T13:14:56Z</time>
      </trkpt>
      <trkpt lat="42.853317" lon="0.666623">
        <ele>1988.5</ele>
        <time>2014-12-07T13:15:28Z</time>
      </trkpt>
      <trkpt lat="42.853222" lon="0.666631">
        <ele>1985.8</ele>
        <time>2014-12-07T13:15:37Z</time>
      </trkpt>
      <trkpt lat="42.853128" lon="0.666636">
        <ele>1982.1</ele>
        <time>2014-12-07T13:15:47Z</time>
      </trkpt>
      <trkpt lat="42.853032" lon="0.666646">
        <ele>1978.6</ele>
        <time>2014-12-07T13:15:57Z</time>
      </trkpt>
      <trkpt lat="42.852941" lon="0.666632">
        <ele>1974.2</ele>
        <time>2014-12-07T13:16:08Z</time>
      </trkpt>
      <trkpt lat="42.852849" lon="0.666630">
        <ele>1969.2</ele>
        <time>2014-12-07T13:16:20Z</time>
      </trkpt>
      <trkpt lat="42.852795" lon="0.666559">
        <ele>1960.9</ele>
        <time>2014-12-07T13:16:57Z</time>
      </trkpt>
      <trkpt lat="42.852765" lon="0.666455">
        <ele>1959.9</ele>
        <time>2014-12-07T13:19:54Z</time>
      </trkpt>
      <trkpt lat="42.852760" lon="0.666325">
        <ele>1956.3</ele>
        <time>2014-12-07T13:20:03Z</time>
      </trkpt>
      <trkpt lat="42.852769" lon="0.666198">
        <ele>1951.4</ele>
        <time>2014-12-07T13:20:13Z</time>
      </trkpt>
      <trkpt lat="42.852752" lon="0.666060">
        <ele>1946.1</ele>
        <time>2014-12-07T13:20:23Z</time>
      </trkpt>
      <trkpt lat="42.852717" lon="0.665935">
        <ele>1941.6</ele>
        <time>2014-12-07T13:20:33Z</time>
      </trkpt>
      <trkpt lat="42.852644" lon="0.665863">
        <ele>1937.1</ele>
        <time>2014-12-07T13:20:42Z</time>
      </trkpt>
      <trkpt lat="42.852562" lon="0.665792">
        <ele>1931.4</ele>
        <time>2014-12-07T13:20:54Z</time>
      </trkpt>
      <trkpt lat="42.852542" lon="0.665668">
        <ele>1926.6</ele>
        <time>2014-12-07T13:21:07Z</time>
      </trkpt>
      <trkpt lat="42.852473" lon="0.665606">
        <ele>1922.7</ele>
        <time>2014-12-07T13:21:17Z</time>
      </trkpt>
      <trkpt lat="42.852434" lon="0.665487">
        <ele>1919.4</ele>
        <time>2014-12-07T13:21:27Z</time>
      </trkpt>
      <trkpt lat="42.852442" lon="0.665354">
        <ele>1914.3</ele>
        <time>2014-12-07T13:21:39Z</time>
      </trkpt>
      <trkpt lat="42.852447" lon="0.665231">
        <ele>1910.4</ele>
        <time>2014-12-07T13:21:48Z</time>
      </trkpt>
      <trkpt lat="42.852424" lon="0.665103">
        <ele>1906.1</ele>
        <time>2014-12-07T13:21:59Z</time>
      </trkpt>
      <trkpt lat="42.852442" lon="0.664975">
        <ele>1900.4</ele>
        <time>2014-12-07T13:22:10Z</time>
      </trkpt>
      <trkpt lat="42.852488" lon="0.664855">
        <ele>1896.1</ele>
        <time>2014-12-07T13:22:21Z</time>
      </trkpt>
      <trkpt lat="42.852524" lon="0.664710">
        <ele>1891.7</ele>
        <time>2014-12-07T13:22:31Z</time>
      </trkpt>
      <trkpt lat="42.852603" lon="0.664626">
        <ele>1888.0</ele>
        <time>2014-12-07T13:22:41Z</time>
      </trkpt>
      <trkpt lat="42.852671" lon="0.664521">
        <ele>1884.7</ele>
        <time>2014-12-07T13:22:50Z</time>
      </trkpt>
      <trkpt lat="42.852736" lon="0.664418">
        <ele>1881.3</ele>
        <time>2014-12-07T13:22:59Z</time>
      </trkpt>
      <trkpt lat="42.852792" lon="0.664327">
        <ele>1877.9</ele>
        <time>2014-12-07T13:23:08Z</time>
      </trkpt>
      <trkpt lat="42.852820" lon="0.664231">
        <ele>1874.6</ele>
        <time>2014-12-07T13:23:18Z</time>
      </trkpt>
      <trkpt lat="42.852880" lon="0.664145">
        <ele>1870.8</ele>
        <time>2014-12-07T13:23:27Z</time>
      </trkpt>
      <trkpt lat="42.852940" lon="0.664051">
        <ele>1867.6</ele>
        <time>2014-12-07T13:23:36Z</time>
      </trkpt>
      <trkpt lat="42.853005" lon="0.663966">
        <ele>1863.7</ele>
        <time>2014-12-07T13:23:46Z</time>
      </trkpt>
      <trkpt lat="42.853093" lon="0.663935">
        <ele>1860.5</ele>
        <time>2014-12-07T13:23:55Z</time>
      </trkpt>
      <trkpt lat="42.853154" lon="0.663847">
        <ele>1856.4</ele>
        <time>2014-12-07T13:24:07Z</time>
      </trkpt>
      <trkpt lat="42.853237" lon="0.663769">
        <ele>1851.0</ele>
        <time>2014-12-07T13:24:21Z</time>
      </trkpt>
      <trkpt lat="42.853249" lon="0.663641">
        <ele>1846.1</ele>
        <time>2014-12-07T13:24:34Z</time>
      </trkpt>
      <trkpt lat="42.853291" lon="0.663529">
        <ele>1842.6</ele>
        <time>2014-12-07T13:24:45Z</time>
      </trkpt>
      <trkpt lat="42.853356" lon="0.663437">
        <ele>1838.2</ele>
        <time>2014-12-07T13:24:57Z</time>
      </trkpt>
      <trkpt lat="42.853385" lon="0.663324">
        <ele>1833.6</ele>
        <time>2014-12-07T13:25:08Z</time>
      </trkpt>
      <trkpt lat="42.853471" lon="0.663279">
        <ele>1830.0</ele>
        <time>2014-12-07T13:25:17Z</time>
      </trkpt>
      <trkpt lat="42.853554" lon="0.663261">
        <ele>1828.3</ele>
        <time>2014-12-07T13:25:25Z</time>
      </trkpt>
      <trkpt lat="42.853643" lon="0.663230">
        <ele>1827.2</ele>
        <time>2014-12-07T13:25:34Z</time>
      </trkpt>
      <trkpt lat="42.853743" lon="0.663192">
        <ele>1825.9</ele>
        <time>2014-12-07T13:25:43Z</time>
      </trkpt>
      <trkpt lat="42.853825" lon="0.663148">
        <ele>1824.2</ele>
        <time>2014-12-07T13:25:52Z</time>
      </trkpt>
      <trkpt lat="42.853899" lon="0.663116">
        <ele>1822.4</ele>
        <time>2014-12-07T13:26:04Z</time>
      </trkpt>
      <trkpt lat="42.853985" lon="0.663045">
        <ele>1820.2</ele>
        <time>2014-12-07T13:30:20Z</time>
      </trkpt>
      <trkpt lat="42.854079" lon="0.662986">
        <ele>1818.9</ele>
        <time>2014-12-07T13:30:28Z</time>
      </trkpt>
      <trkpt lat="42.854161" lon="0.662925">
        <ele>1817.3</ele>
        <time>2014-12-07T13:30:37Z</time>
      </trkpt>
      <trkpt lat="42.854248" lon="0.662863">
        <ele>1815.4</ele>
        <time>2014-12-07T13:30:46Z</time>
      </trkpt>
      <trkpt lat="42.854335" lon="0.662817">
        <ele>1813.4</ele>
        <time>2014-12-07T13:30:56Z</time>
      </trkpt>
      <trkpt lat="42.854395" lon="0.662727">
        <ele>1811.6</ele>
        <time>2014-12-07T13:31:05Z</time>
      </trkpt>
      <trkpt lat="42.854360" lon="0.662617">
        <ele>1809.0</ele>
        <time>2014-12-07T13:31:16Z</time>
      </trkpt>
      <trkpt lat="42.854361" lon="0.662504">
        <ele>1805.8</ele>
        <time>2014-12-07T13:31:24Z</time>
      </trkpt>
      <trkpt lat="42.854403" lon="0.662384">
        <ele>1802.4</ele>
        <time>2014-12-07T13:31:32Z</time>
      </trkpt>
      <trkpt lat="42.854449" lon="0.662251">
        <ele>1798.4</ele>
        <time>2014-12-07T13:31:41Z</time>
      </trkpt>
      <trkpt lat="42.854477" lon="0.662123">
        <ele>1795.4</ele>
        <time>2014-12-07T13:31:49Z</time>
      </trkpt>
      <trkpt lat="42.854531" lon="0.661996">
        <ele>1792.6</ele>
        <time>2014-12-07T13:31:57Z</time>
      </trkpt>
      <trkpt lat="42.854589" lon="0.661871">
        <ele>1789.7</ele>
        <time>2014-12-07T13:32:06Z</time>
      </trkpt>
      <trkpt lat="42.854631" lon="0.661732">
        <ele>1787.3</ele>
        <time>2014-12-07T13:32:15Z</time>
      </trkpt>
      <trkpt lat="42.854654" lon="0.661611">
        <ele>1785.5</ele>
        <time>2014-12-07T13:32:23Z</time>
      </trkpt>
      <trkpt lat="42.854659" lon="0.661483">
        <ele>1783.3</ele>
        <time>2014-12-07T13:32:31Z</time>
      </trkpt>
      <trkpt lat="42.854689" lon="0.661361">
        <ele>1781.1</ele>
        <time>2014-12-07T13:32:40Z</time>
      </trkpt>
      <trkpt lat="42.854724" lon="0.661242">
        <ele>1778.5</ele>
        <time>2014-12-07T13:32:48Z</time>
      </trkpt>
      <trkpt lat="42.854775" lon="0.661118">
        <ele>1775.6</ele>
        <time>2014-12-07T13:32:56Z</time>
      </trkpt>
      <trkpt lat="42.854858" lon="0.661027">
        <ele>1772.5</ele>
        <time>2014-12-07T13:33:05Z</time>
      </trkpt>
      <trkpt lat="42.854931" lon="0.660944">
        <ele>1769.6</ele>
        <time>2014-12-07T13:33:13Z</time>
      </trkpt>
      <trkpt lat="42.855016" lon="0.660880">
        <ele>1766.6</ele>
        <time>2014-12-07T13:33:22Z</time>
      </trkpt>
      <trkpt lat="42.855115" lon="0.660819">
        <ele>1763.5</ele>
        <time>2014-12-07T13:33:31Z</time>
      </trkpt>
      <trkpt lat="42.855194" lon="0.660777">
        <ele>1761.0</ele>
        <time>2014-12-07T13:33:39Z</time>
      </trkpt>
      <trkpt lat="42.855293" lon="0.660750">
        <ele>1758.2</ele>
        <time>2014-12-07T13:33:48Z</time>
      </trkpt>
      <trkpt lat="42.855385" lon="0.660716">
        <ele>1755.5</ele>
        <time>2014-12-07T13:33:56Z</time>
      </trkpt>
      <trkpt lat="42.855476" lon="0.660676">
        <ele>1752.8</ele>
        <time>2014-12-07T13:34:05Z</time>
      </trkpt>
      <trkpt lat="42.855557" lon="0.660624">
        <ele>1750.2</ele>
        <time>2014-12-07T13:34:14Z</time>
      </trkpt>
      <trkpt lat="42.855619" lon="0.660659">
        <ele>1746.8</ele>
        <time>2014-12-07T13:34:27Z</time>
      </trkpt>
      <trkpt lat="42.855695" lon="0.660748">
        <ele>1742.6</ele>
        <time>2014-12-07T13:34:41Z</time>
      </trkpt>
      <trkpt lat="42.855778" lon="0.660685">
        <ele>1739.9</ele>
        <time>2014-12-07T13:34:52Z</time>
      </trkpt>
      <trkpt lat="42.855847" lon="0.660613">
        <ele>1738.3</ele>
        <time>2014-12-07T13:35:00Z</time>
      </trkpt>
      <trkpt lat="42.855939" lon="0.660580">
        <ele>1736.5</ele>
        <time>2014-12-07T13:35:08Z</time>
      </trkpt>
      <trkpt lat="42.856027" lon="0.660531">
        <ele>1735.6</ele>
        <time>2014-12-07T13:35:16Z</time>
      </trkpt>
      <trkpt lat="42.856122" lon="0.660500">
        <ele>1735.0</ele>
        <time>2014-12-07T13:35:24Z</time>
      </trkpt>
      <trkpt lat="42.856213" lon="0.660467">
        <ele>1733.7</ele>
        <time>2014-12-07T13:35:32Z</time>
      </trkpt>
      <trkpt lat="42.856314" lon="0.660421">
        <ele>1732.5</ele>
        <time>2014-12-07T13:35:40Z</time>
      </trkpt>
      <trkpt lat="42.856407" lon="0.660395">
        <ele>1731.0</ele>
        <time>2014-12-07T13:35:48Z</time>
      </trkpt>
      <trkpt lat="42.856493" lon="0.660340">
        <ele>1729.8</ele>
        <time>2014-12-07T13:35:56Z</time>
      </trkpt>
      <trkpt lat="42.856572" lon="0.660263">
        <ele>1728.7</ele>
        <time>2014-12-07T13:36:05Z</time>
      </trkpt>
      <trkpt lat="42.856662" lon="0.660203">
        <ele>1727.8</ele>
        <time>2014-12-07T13:36:13Z</time>
      </trkpt>
      <trkpt lat="42.856762" lon="0.660191">
        <ele>1726.9</ele>
        <time>2014-12-07T13:36:21Z</time>
      </trkpt>
      <trkpt lat="42.856831" lon="0.660113">
        <ele>1726.0</ele>
        <time>2014-12-07T13:36:29Z</time>
      </trkpt>
      <trkpt lat="42.856817" lon="0.659988">
        <ele>1724.7</ele>
        <time>2014-12-07T13:36:38Z</time>
      </trkpt>
      <trkpt lat="42.856809" lon="0.659870">
        <ele>1722.9</ele>
        <time>2014-12-07T13:36:46Z</time>
      </trkpt>
      <trkpt lat="42.856864" lon="0.659743">
        <ele>1721.2</ele>
        <time>2014-12-07T13:36:55Z</time>
      </trkpt>
      <trkpt lat="42.856927" lon="0.659634">
        <ele>1719.5</ele>
        <time>2014-12-07T13:37:03Z</time>
      </trkpt>
      <trkpt lat="42.856924" lon="0.659516">
        <ele>1717.8</ele>
        <time>2014-12-07T13:37:11Z</time>
      </trkpt>
      <trkpt lat="42.856957" lon="0.659381">
        <ele>1716.4</ele>
        <time>2014-12-07T13:37:19Z</time>
      </trkpt>
      <trkpt lat="42.856992" lon="0.659270">
        <ele>1715.1</ele>
        <time>2014-12-07T13:37:26Z</time>
      </trkpt>
      <trkpt lat="42.857059" lon="0.659179">
        <ele>1713.4</ele>
        <time>2014-12-07T13:37:33Z</time>
      </trkpt>
      <trkpt lat="42.857098" lon="0.659071">
        <ele>1711.6</ele>
        <time>2014-12-07T13:37:40Z</time>
      </trkpt>
      <trkpt lat="42.857117" lon="0.658941">
        <ele>1710.1</ele>
        <time>2014-12-07T13:37:48Z</time>
      </trkpt>
      <trkpt lat="42.857134" lon="0.658815">
        <ele>1708.3</ele>
        <time>2014-12-07T13:37:56Z</time>
      </trkpt>
      <trkpt lat="42.857167" lon="0.658681">
        <ele>1706.3</ele>
        <time>2014-12-07T13:38:04Z</time>
      </trkpt>
      <trkpt lat="42.857186" lon="0.658559">
        <ele>1705.0</ele>
        <time>2014-12-07T13:38:11Z</time>
      </trkpt>
      <trkpt lat="42.857218" lon="0.658432">
        <ele>1703.9</ele>
        <time>2014-12-07T13:38:19Z</time>
      </trkpt>
      <trkpt lat="42.857249" lon="0.658310">
        <ele>1702.6</ele>
        <time>2014-12-07T13:38:27Z</time>
      </trkpt>
      <trkpt lat="42.857281" lon="0.658190">
        <ele>1701.2</ele>
        <time>2014-12-07T13:38:35Z</time>
      </trkpt>
      <trkpt lat="42.857306" lon="0.658063">
        <ele>1700.1</ele>
        <time>2014-12-07T13:38:42Z</time>
      </trkpt>
      <trkpt lat="42.857325" lon="0.657926">
        <ele>1699.0</ele>
        <time>2014-12-07T13:38:50Z</time>
      </trkpt>
      <trkpt lat="42.857339" lon="0.657810">
        <ele>1697.3</ele>
        <time>2014-12-07T13:38:58Z</time>
      </trkpt>
      <trkpt lat="42.857356" lon="0.657683">
        <ele>1696.2</ele>
        <time>2014-12-07T13:39:06Z</time>
      </trkpt>
      <trkpt lat="42.857369" lon="0.657556">
        <ele>1694.8</ele>
        <time>2014-12-07T13:39:14Z</time>
      </trkpt>
      <trkpt lat="42.857369" lon="0.657422">
        <ele>1693.3</ele>
        <time>2014-12-07T13:39:22Z</time>
      </trkpt>
      <trkpt lat="42.857366" lon="0.657300">
        <ele>1692.1</ele>
        <time>2014-12-07T13:39:30Z</time>
      </trkpt>
      <trkpt lat="42.857374" lon="0.657172">
        <ele>1690.6</ele>
        <time>2014-12-07T13:39:38Z</time>
      </trkpt>
      <trkpt lat="42.857381" lon="0.657026">
        <ele>1688.9</ele>
        <time>2014-12-07T13:39:46Z</time>
      </trkpt>
      <trkpt lat="42.857374" lon="0.656904">
        <ele>1687.8</ele>
        <time>2014-12-07T13:39:53Z</time>
      </trkpt>
      <trkpt lat="42.857368" lon="0.656777">
        <ele>1686.3</ele>
        <time>2014-12-07T13:40:01Z</time>
      </trkpt>
      <trkpt lat="42.857344" lon="0.656659">
        <ele>1684.9</ele>
        <time>2014-12-07T13:40:08Z</time>
      </trkpt>
      <trkpt lat="42.857317" lon="0.656516">
        <ele>1684.0</ele>
        <time>2014-12-07T13:40:16Z</time>
      </trkpt>
      <trkpt lat="42.857311" lon="0.656396">
        <ele>1682.6</ele>
        <time>2014-12-07T13:40:26Z</time>
      </trkpt>
      <trkpt lat="42.857304" lon="0.656276">
        <ele>1681.3</ele>
        <time>2014-12-07T13:40:33Z</time>
      </trkpt>
      <trkpt lat="42.857288" lon="0.656144">
        <ele>1680.0</ele>
        <time>2014-12-07T13:40:41Z</time>
      </trkpt>
      <trkpt lat="42.857277" lon="0.656014">
        <ele>1678.6</ele>
        <time>2014-12-07T13:40:49Z</time>
      </trkpt>
      <trkpt lat="42.857281" lon="0.655895">
        <ele>1677.0</ele>
        <time>2014-12-07T13:40:57Z</time>
      </trkpt>
      <trkpt lat="42.857287" lon="0.655767">
        <ele>1675.8</ele>
        <time>2014-12-07T13:41:05Z</time>
      </trkpt>
      <trkpt lat="42.857304" lon="0.655642">
        <ele>1674.8</ele>
        <time>2014-12-07T13:41:13Z</time>
      </trkpt>
      <trkpt lat="42.857327" lon="0.655521">
        <ele>1673.4</ele>
        <time>2014-12-07T13:41:21Z</time>
      </trkpt>
      <trkpt lat="42.857361" lon="0.655386">
        <ele>1671.5</ele>
        <time>2014-12-07T13:41:30Z</time>
      </trkpt>
      <trkpt lat="42.857392" lon="0.655260">
        <ele>1670.2</ele>
        <time>2014-12-07T13:41:39Z</time>
      </trkpt>
      <trkpt lat="42.857431" lon="0.655139">
        <ele>1668.9</ele>
        <time>2014-12-07T13:41:47Z</time>
      </trkpt>
      <trkpt lat="42.857403" lon="0.655006">
        <ele>1667.0</ele>
        <time>2014-12-07T13:41:55Z</time>
      </trkpt>
      <trkpt lat="42.857394" lon="0.654880">
        <ele>1663.5</ele>
        <time>2014-12-07T13:42:04Z</time>
      </trkpt>
      <trkpt lat="42.857376" lon="0.654753">
        <ele>1660.1</ele>
        <time>2014-12-07T13:42:12Z</time>
      </trkpt>
      <trkpt lat="42.857392" lon="0.654630">
        <ele>1657.1</ele>
        <time>2014-12-07T13:42:21Z</time>
      </trkpt>
      <trkpt lat="42.857382" lon="0.654501">
        <ele>1654.0</ele>
        <time>2014-12-07T13:42:31Z</time>
      </trkpt>
      <trkpt lat="42.857375" lon="0.654378">
        <ele>1650.9</ele>
        <time>2014-12-07T13:42:40Z</time>
      </trkpt>
      <trkpt lat="42.857355" lon="0.654244">
        <ele>1647.8</ele>
        <time>2014-12-07T13:42:49Z</time>
      </trkpt>
      <trkpt lat="42.857325" lon="0.654131">
        <ele>1644.4</ele>
        <time>2014-12-07T13:42:58Z</time>
      </trkpt>
      <trkpt lat="42.857305" lon="0.654016">
        <ele>1640.8</ele>
        <time>2014-12-07T13:43:07Z</time>
      </trkpt>
      <trkpt lat="42.857285" lon="0.653895">
        <ele>1637.8</ele>
        <time>2014-12-07T13:43:15Z</time>
      </trkpt>
      <trkpt lat="42.857253" lon="0.653775">
        <ele>1635.6</ele>
        <time>2014-12-07T13:43:23Z</time>
      </trkpt>
      <trkpt lat="42.857197" lon="0.653679">
        <ele>1631.7</ele>
        <time>2014-12-07T13:43:32Z</time>
      </trkpt>
      <trkpt lat="42.857148" lon="0.653576">
        <ele>1627.7</ele>
        <time>2014-12-07T13:43:41Z</time>
      </trkpt>
      <trkpt lat="42.857137" lon="0.653451">
        <ele>1624.1</ele>
        <time>2014-12-07T13:43:49Z</time>
      </trkpt>
      <trkpt lat="42.857154" lon="0.653325">
        <ele>1621.4</ele>
        <time>2014-12-07T13:44:00Z</time>
      </trkpt>
      <trkpt lat="42.857172" lon="0.653211">
        <ele>1620.4</ele>
        <time>2014-12-07T13:44:08Z</time>
      </trkpt>
      <trkpt lat="42.857179" lon="0.653070">
        <ele>1618.7</ele>
        <time>2014-12-07T13:44:17Z</time>
      </trkpt>
      <trkpt lat="42.857186" lon="0.652935">
        <ele>1617.6</ele>
        <time>2014-12-07T13:44:25Z</time>
      </trkpt>
      <trkpt lat="42.857190" lon="0.652808">
        <ele>1616.1</ele>
        <time>2014-12-07T13:44:33Z</time>
      </trkpt>
      <trkpt lat="42.857174" lon="0.652690">
        <ele>1614.8</ele>
        <time>2014-12-07T13:44:40Z</time>
      </trkpt>
      <trkpt lat="42.857141" lon="0.652575">
        <ele>1613.2</ele>
        <time>2014-12-07T13:44:49Z</time>
      </trkpt>
      <trkpt lat="42.857101" lon="0.652455">
        <ele>1611.3</ele>
        <time>2014-12-07T13:44:59Z</time>
      </trkpt>
      <trkpt lat="42.857075" lon="0.652337">
        <ele>1609.1</ele>
        <time>2014-12-07T13:45:09Z</time>
      </trkpt>
      <trkpt lat="42.857049" lon="0.652214">
        <ele>1607.6</ele>
        <time>2014-12-07T13:45:18Z</time>
      </trkpt>
      <trkpt lat="42.857055" lon="0.652135">
        <ele>1605.6</ele>
        <time>2014-12-07T13:56:58Z</time>
      </trkpt>
      <trkpt lat="42.857016" lon="0.652055">
        <ele>1605.0</ele>
        <time>2014-12-07T13:57:22Z</time>
      </trkpt>
      <trkpt lat="42.857014" lon="0.651916">
        <ele>1603.6</ele>
        <time>2014-12-07T13:57:32Z</time>
      </trkpt>
      <trkpt lat="42.857019" lon="0.651784">
        <ele>1601.9</ele>
        <time>2014-12-07T13:57:42Z</time>
      </trkpt>
      <trkpt lat="42.857007" lon="0.651640">
        <ele>1600.3</ele>
        <time>2014-12-07T13:57:50Z</time>
      </trkpt>
      <trkpt lat="42.857000" lon="0.651506">
        <ele>1598.0</ele>
        <time>2014-12-07T13:57:58Z</time>
      </trkpt>
      <trkpt lat="42.856997" lon="0.651388">
        <ele>1596.4</ele>
        <time>2014-12-07T13:58:05Z</time>
      </trkpt>
      <trkpt lat="42.857004" lon="0.651249">
        <ele>1594.4</ele>
        <time>2014-12-07T13:58:13Z</time>
      </trkpt>
      <trkpt lat="42.857002" lon="0.651112">
        <ele>1591.7</ele>
        <time>2014-12-07T13:58:21Z</time>
      </trkpt>
      <trkpt lat="42.856992" lon="0.650981">
        <ele>1589.9</ele>
        <time>2014-12-07T13:58:29Z</time>
      </trkpt>
      <trkpt lat="42.856969" lon="0.650844">
        <ele>1588.6</ele>
        <time>2014-12-07T13:58:37Z</time>
      </trkpt>
      <trkpt lat="42.856946" lon="0.650699">
        <ele>1587.1</ele>
        <time>2014-12-07T13:58:46Z</time>
      </trkpt>
      <trkpt lat="42.856903" lon="0.650573">
        <ele>1585.8</ele>
        <time>2014-12-07T13:58:54Z</time>
      </trkpt>
      <trkpt lat="42.856875" lon="0.650445">
        <ele>1584.8</ele>
        <time>2014-12-07T13:59:02Z</time>
      </trkpt>
      <trkpt lat="42.856854" lon="0.650307">
        <ele>1583.8</ele>
        <time>2014-12-07T13:59:11Z</time>
      </trkpt>
      <trkpt lat="42.856842" lon="0.650165">
        <ele>1582.7</ele>
        <time>2014-12-07T13:59:20Z</time>
      </trkpt>
      <trkpt lat="42.856833" lon="0.650024">
        <ele>1581.3</ele>
        <time>2014-12-07T13:59:29Z</time>
      </trkpt>
      <trkpt lat="42.856830" lon="0.649872">
        <ele>1579.5</ele>
        <time>2014-12-07T13:59:39Z</time>
      </trkpt>
      <trkpt lat="42.856820" lon="0.649738">
        <ele>1577.9</ele>
        <time>2014-12-07T13:59:50Z</time>
      </trkpt>
      <trkpt lat="42.856827" lon="0.649586">
        <ele>1576.5</ele>
        <time>2014-12-07T13:59:59Z</time>
      </trkpt>
      <trkpt lat="42.856837" lon="0.649443">
        <ele>1575.8</ele>
        <time>2014-12-07T14:00:07Z</time>
      </trkpt>
      <trkpt lat="42.856826" lon="0.649315">
        <ele>1574.4</ele>
        <time>2014-12-07T14:00:18Z</time>
      </trkpt>
      <trkpt lat="42.856824" lon="0.649163">
        <ele>1573.1</ele>
        <time>2014-12-07T14:00:28Z</time>
      </trkpt>
      <trkpt lat="42.856838" lon="0.649013">
        <ele>1572.2</ele>
        <time>2014-12-07T14:00:36Z</time>
      </trkpt>
      <trkpt lat="42.856856" lon="0.648876">
        <ele>1571.6</ele>
        <time>2014-12-07T14:00:44Z</time>
      </trkpt>
      <trkpt lat="42.856856" lon="0.648733">
        <ele>1570.9</ele>
        <time>2014-12-07T14:00:53Z</time>
      </trkpt>
      <trkpt lat="42.856861" lon="0.648594">
        <ele>1570.0</ele>
        <time>2014-12-07T14:01:02Z</time>
      </trkpt>
      <trkpt lat="42.856880" lon="0.648434">
        <ele>1568.5</ele>
        <time>2014-12-07T14:01:13Z</time>
      </trkpt>
      <trkpt lat="42.856893" lon="0.648309">
        <ele>1567.2</ele>
        <time>2014-12-07T14:01:23Z</time>
      </trkpt>
      <trkpt lat="42.856919" lon="0.648169">
        <ele>1565.1</ele>
        <time>2014-12-07T14:01:33Z</time>
      </trkpt>
      <trkpt lat="42.856946" lon="0.648034">
        <ele>1562.6</ele>
        <time>2014-12-07T14:01:42Z</time>
      </trkpt>
      <trkpt lat="42.856961" lon="0.647884">
        <ele>1560.1</ele>
        <time>2014-12-07T14:01:52Z</time>
      </trkpt>
      <trkpt lat="42.856974" lon="0.647744">
        <ele>1558.1</ele>
        <time>2014-12-07T14:02:01Z</time>
      </trkpt>
      <trkpt lat="42.857024" lon="0.647605">
        <ele>1555.9</ele>
        <time>2014-12-07T14:02:10Z</time>
      </trkpt>
      <trkpt lat="42.857054" lon="0.647461">
        <ele>1554.7</ele>
        <time>2014-12-07T14:02:19Z</time>
      </trkpt>
      <trkpt lat="42.857068" lon="0.647333">
        <ele>1553.6</ele>
        <time>2014-12-07T14:02:27Z</time>
      </trkpt>
      <trkpt lat="42.857094" lon="0.647200">
        <ele>1552.6</ele>
        <time>2014-12-07T14:02:35Z</time>
      </trkpt>
      <trkpt lat="42.857113" lon="0.647072">
        <ele>1551.9</ele>
        <time>2014-12-07T14:02:43Z</time>
      </trkpt>
      <trkpt lat="42.857139" lon="0.646927">
        <ele>1551.3</ele>
        <time>2014-12-07T14:02:51Z</time>
      </trkpt>
      <trkpt lat="42.857157" lon="0.646803">
        <ele>1550.6</ele>
        <time>2014-12-07T14:02:58Z</time>
      </trkpt>
      <trkpt lat="42.857161" lon="0.646666">
        <ele>1549.8</ele>
        <time>2014-12-07T14:03:06Z</time>
      </trkpt>
      <trkpt lat="42.857176" lon="0.646551">
        <ele>1549.1</ele>
        <time>2014-12-07T14:03:15Z</time>
      </trkpt>
      <trkpt lat="42.857175" lon="0.646416">
        <ele>1548.1</ele>
        <time>2014-12-07T14:03:24Z</time>
      </trkpt>
      <trkpt lat="42.857193" lon="0.646279">
        <ele>1547.1</ele>
        <time>2014-12-07T14:03:32Z</time>
      </trkpt>
      <trkpt lat="42.857215" lon="0.646137">
        <ele>1545.9</ele>
        <time>2014-12-07T14:03:41Z</time>
      </trkpt>
      <trkpt lat="42.857245" lon="0.645990">
        <ele>1544.6</ele>
        <time>2014-12-07T14:03:49Z</time>
      </trkpt>
      <trkpt lat="42.857269" lon="0.645855">
        <ele>1543.0</ele>
        <time>2014-12-07T14:03:57Z</time>
      </trkpt>
      <trkpt lat="42.857283" lon="0.645721">
        <ele>1541.4</ele>
        <time>2014-12-07T14:04:06Z</time>
      </trkpt>
      <trkpt lat="42.857264" lon="0.645593">
        <ele>1540.0</ele>
        <time>2014-12-07T14:04:15Z</time>
      </trkpt>
      <trkpt lat="42.857290" lon="0.645436">
        <ele>1537.8</ele>
        <time>2014-12-07T14:04:25Z</time>
      </trkpt>
      <trkpt lat="42.857312" lon="0.645287">
        <ele>1535.8</ele>
        <time>2014-12-07T14:04:33Z</time>
      </trkpt>
      <trkpt lat="42.857303" lon="0.645142">
        <ele>1533.8</ele>
        <time>2014-12-07T14:04:41Z</time>
      </trkpt>
      <trkpt lat="42.857279" lon="0.645023">
        <ele>1532.2</ele>
        <time>2014-12-07T14:04:50Z</time>
      </trkpt>
      <trkpt lat="42.857273" lon="0.644866">
        <ele>1530.4</ele>
        <time>2014-12-07T14:04:59Z</time>
      </trkpt>
      <trkpt lat="42.857286" lon="0.644695">
        <ele>1528.5</ele>
        <time>2014-12-07T14:05:07Z</time>
      </trkpt>
      <trkpt lat="42.857273" lon="0.644558">
        <ele>1526.7</ele>
        <time>2014-12-07T14:05:15Z</time>
      </trkpt>
      <trkpt lat="42.857258" lon="0.644423">
        <ele>1524.8</ele>
        <time>2014-12-07T14:05:23Z</time>
      </trkpt>
      <trkpt lat="42.857212" lon="0.644316">
        <ele>1523.0</ele>
        <time>2014-12-07T14:05:30Z</time>
      </trkpt>
      <trkpt lat="42.857176" lon="0.644195">
        <ele>1521.3</ele>
        <time>2014-12-07T14:05:38Z</time>
      </trkpt>
      <trkpt lat="42.857158" lon="0.644062">
        <ele>1519.3</ele>
        <time>2014-12-07T14:05:46Z</time>
      </trkpt>
      <trkpt lat="42.857135" lon="0.643923">
        <ele>1517.2</ele>
        <time>2014-12-07T14:05:54Z</time>
      </trkpt>
      <trkpt lat="42.857108" lon="0.643789">
        <ele>1515.7</ele>
        <time>2014-12-07T14:06:03Z</time>
      </trkpt>
      <trkpt lat="42.857073" lon="0.643659">
        <ele>1513.6</ele>
        <time>2014-12-07T14:06:12Z</time>
      </trkpt>
      <trkpt lat="42.857050" lon="0.643534">
        <ele>1511.9</ele>
        <time>2014-12-07T14:06:21Z</time>
      </trkpt>
      <trkpt lat="42.857041" lon="0.643398">
        <ele>1510.5</ele>
        <time>2014-12-07T14:06:29Z</time>
      </trkpt>
      <trkpt lat="42.857028" lon="0.643253">
        <ele>1509.5</ele>
        <time>2014-12-07T14:06:37Z</time>
      </trkpt>
      <trkpt lat="42.857021" lon="0.643113">
        <ele>1508.0</ele>
        <time>2014-12-07T14:06:45Z</time>
      </trkpt>
      <trkpt lat="42.857004" lon="0.642986">
        <ele>1506.7</ele>
        <time>2014-12-07T14:06:53Z</time>
      </trkpt>
      <trkpt lat="42.856990" lon="0.642859">
        <ele>1505.5</ele>
        <time>2014-12-07T14:07:01Z</time>
      </trkpt>
      <trkpt lat="42.856973" lon="0.642736">
        <ele>1503.7</ele>
        <time>2014-12-07T14:07:09Z</time>
      </trkpt>
      <trkpt lat="42.856959" lon="0.642619">
        <ele>1501.6</ele>
        <time>2014-12-07T14:07:17Z</time>
      </trkpt>
      <trkpt lat="42.856939" lon="0.642503">
        <ele>1499.6</ele>
        <time>2014-12-07T14:07:26Z</time>
      </trkpt>
      <trkpt lat="42.856956" lon="0.642359">
        <ele>1497.8</ele>
        <time>2014-12-07T14:07:34Z</time>
      </trkpt>
      <trkpt lat="42.856947" lon="0.642228">
        <ele>1495.5</ele>
        <time>2014-12-07T14:07:41Z</time>
      </trkpt>
      <trkpt lat="42.856937" lon="0.642109">
        <ele>1493.5</ele>
        <time>2014-12-07T14:07:49Z</time>
      </trkpt>
      <trkpt lat="42.856913" lon="0.641980">
        <ele>1491.7</ele>
        <time>2014-12-07T14:07:57Z</time>
      </trkpt>
      <trkpt lat="42.856882" lon="0.641861">
        <ele>1489.5</ele>
        <time>2014-12-07T14:08:05Z</time>
      </trkpt>
      <trkpt lat="42.856871" lon="0.641723">
        <ele>1487.8</ele>
        <time>2014-12-07T14:08:13Z</time>
      </trkpt>
      <trkpt lat="42.856868" lon="0.641584">
        <ele>1485.8</ele>
        <time>2014-12-07T14:08:21Z</time>
      </trkpt>
      <trkpt lat="42.856849" lon="0.641446">
        <ele>1483.6</ele>
        <time>2014-12-07T14:08:30Z</time>
      </trkpt>
      <trkpt lat="42.856817" lon="0.641312">
        <ele>1481.7</ele>
        <time>2014-12-07T14:08:39Z</time>
      </trkpt>
      <trkpt lat="42.856782" lon="0.641190">
        <ele>1479.8</ele>
        <time>2014-12-07T14:08:47Z</time>
      </trkpt>
      <trkpt lat="42.856746" lon="0.641075">
        <ele>1478.0</ele>
        <time>2014-12-07T14:08:55Z</time>
      </trkpt>
      <trkpt lat="42.856704" lon="0.640967">
        <ele>1476.8</ele>
        <time>2014-12-07T14:09:03Z</time>
      </trkpt>
      <trkpt lat="42.856626" lon="0.640877">
        <ele>1475.4</ele>
        <time>2014-12-07T14:09:11Z</time>
      </trkpt>
      <trkpt lat="42.856575" lon="0.640758">
        <ele>1473.9</ele>
        <time>2014-12-07T14:09:19Z</time>
      </trkpt>
      <trkpt lat="42.856560" lon="0.640584">
        <ele>1472.7</ele>
        <time>2014-12-07T14:09:29Z</time>
      </trkpt>
      <trkpt lat="42.856550" lon="0.640436">
        <ele>1471.6</ele>
        <time>2014-12-07T14:09:37Z</time>
      </trkpt>
      <trkpt lat="42.856509" lon="0.640313">
        <ele>1470.2</ele>
        <time>2014-12-07T14:09:47Z</time>
      </trkpt>
      <trkpt lat="42.856442" lon="0.640194">
        <ele>1468.9</ele>
        <time>2014-12-07T14:09:55Z</time>
      </trkpt>
      <trkpt lat="42.856400" lon="0.640040">
        <ele>1467.8</ele>
        <time>2014-12-07T14:10:03Z</time>
      </trkpt>
      <trkpt lat="42.856373" lon="0.639893">
        <ele>1466.4</ele>
        <time>2014-12-07T14:10:11Z</time>
      </trkpt>
      <trkpt lat="42.856333" lon="0.639785">
        <ele>1465.2</ele>
        <time>2014-12-07T14:10:18Z</time>
      </trkpt>
      <trkpt lat="42.856279" lon="0.639687">
        <ele>1463.9</ele>
        <time>2014-12-07T14:10:25Z</time>
      </trkpt>
      <trkpt lat="42.856237" lon="0.639579">
        <ele>1462.8</ele>
        <time>2014-12-07T14:10:32Z</time>
      </trkpt>
      <trkpt lat="42.856234" lon="0.639443">
        <ele>1461.4</ele>
        <time>2014-12-07T14:10:39Z</time>
      </trkpt>
      <trkpt lat="42.856194" lon="0.639319">
        <ele>1460.3</ele>
        <time>2014-12-07T14:10:46Z</time>
      </trkpt>
      <trkpt lat="42.856144" lon="0.639194">
        <ele>1459.0</ele>
        <time>2014-12-07T14:10:54Z</time>
      </trkpt>
      <trkpt lat="42.856075" lon="0.639096">
        <ele>1457.4</ele>
        <time>2014-12-07T14:11:02Z</time>
      </trkpt>
      <trkpt lat="42.856015" lon="0.639002">
        <ele>1456.1</ele>
        <time>2014-12-07T14:11:09Z</time>
      </trkpt>
      <trkpt lat="42.855946" lon="0.638920">
        <ele>1454.1</ele>
        <time>2014-12-07T14:11:17Z</time>
      </trkpt>
      <trkpt lat="42.855883" lon="0.638826">
        <ele>1452.1</ele>
        <time>2014-12-07T14:11:25Z</time>
      </trkpt>
      <trkpt lat="42.855843" lon="0.638717">
        <ele>1450.2</ele>
        <time>2014-12-07T14:11:33Z</time>
      </trkpt>
      <trkpt lat="42.855873" lon="0.638594">
        <ele>1447.8</ele>
        <time>2014-12-07T14:11:41Z</time>
      </trkpt>
      <trkpt lat="42.855886" lon="0.638472">
        <ele>1443.6</ele>
        <time>2014-12-07T14:12:08Z</time>
      </trkpt>
      <trkpt lat="42.855926" lon="0.638359">
        <ele>1442.3</ele>
        <time>2014-12-07T14:12:16Z</time>
      </trkpt>
      <trkpt lat="42.855971" lon="0.638241">
        <ele>1439.3</ele>
        <time>2014-12-07T14:12:24Z</time>
      </trkpt>
      <trkpt lat="42.856014" lon="0.638119">
        <ele>1436.5</ele>
        <time>2014-12-07T14:12:32Z</time>
      </trkpt>
      <trkpt lat="42.856048" lon="0.637991">
        <ele>1433.5</ele>
        <time>2014-12-07T14:12:40Z</time>
      </trkpt>
      <trkpt lat="42.856078" lon="0.637862">
        <ele>1430.5</ele>
        <time>2014-12-07T14:12:48Z</time>
      </trkpt>
      <trkpt lat="42.856109" lon="0.637737">
        <ele>1427.6</ele>
        <time>2014-12-07T14:12:56Z</time>
      </trkpt>
      <trkpt lat="42.856147" lon="0.637604">
        <ele>1424.9</ele>
        <time>2014-12-07T14:13:04Z</time>
      </trkpt>
      <trkpt lat="42.856179" lon="0.637488">
        <ele>1421.2</ele>
        <time>2014-12-07T14:13:12Z</time>
      </trkpt>
      <trkpt lat="42.856213" lon="0.637381">
        <ele>1418.3</ele>
        <time>2014-12-07T14:13:21Z</time>
      </trkpt>
      <trkpt lat="42.856234" lon="0.637253">
        <ele>1416.1</ele>
        <time>2014-12-07T14:13:29Z</time>
      </trkpt>
      <trkpt lat="42.856270" lon="0.637127">
        <ele>1413.2</ele>
        <time>2014-12-07T14:13:37Z</time>
      </trkpt>
      <trkpt lat="42.856303" lon="0.637007">
        <ele>1410.2</ele>
        <time>2014-12-07T14:13:45Z</time>
      </trkpt>
      <trkpt lat="42.856353" lon="0.636882">
        <ele>1407.4</ele>
        <time>2014-12-07T14:13:53Z</time>
      </trkpt>
      <trkpt lat="42.856398" lon="0.636752">
        <ele>1404.9</ele>
        <time>2014-12-07T14:14:01Z</time>
      </trkpt>
      <trkpt lat="42.856424" lon="0.636623">
        <ele>1402.9</ele>
        <time>2014-12-07T14:14:08Z</time>
      </trkpt>
      <trkpt lat="42.856460" lon="0.636503">
        <ele>1401.1</ele>
        <time>2014-12-07T14:14:15Z</time>
      </trkpt>
      <trkpt lat="42.856509" lon="0.636382">
        <ele>1398.8</ele>
        <time>2014-12-07T14:14:23Z</time>
      </trkpt>
      <trkpt lat="42.856569" lon="0.636280">
        <ele>1397.3</ele>
        <time>2014-12-07T14:14:30Z</time>
      </trkpt>
      <trkpt lat="42.856627" lon="0.636162">
        <ele>1395.4</ele>
        <time>2014-12-07T14:14:38Z</time>
      </trkpt>
      <trkpt lat="42.856690" lon="0.636054">
        <ele>1393.4</ele>
        <time>2014-12-07T14:14:46Z</time>
      </trkpt>
      <trkpt lat="42.856749" lon="0.635955">
        <ele>1391.5</ele>
        <time>2014-12-07T14:14:53Z</time>
      </trkpt>
      <trkpt lat="42.856805" lon="0.635856">
        <ele>1389.8</ele>
        <time>2014-12-07T14:15:00Z</time>
      </trkpt>
      <trkpt lat="42.856871" lon="0.635741">
        <ele>1387.6</ele>
        <time>2014-12-07T14:15:08Z</time>
      </trkpt>
      <trkpt lat="42.856899" lon="0.635633">
        <ele>1385.7</ele>
        <time>2014-12-07T14:15:15Z</time>
      </trkpt>
      <trkpt lat="42.856942" lon="0.635524">
        <ele>1383.3</ele>
        <time>2014-12-07T14:15:23Z</time>
      </trkpt>
      <trkpt lat="42.856981" lon="0.635410">
        <ele>1380.7</ele>
        <time>2014-12-07T14:15:31Z</time>
      </trkpt>
      <trkpt lat="42.857022" lon="0.635293">
        <ele>1377.8</ele>
        <time>2014-12-07T14:15:40Z</time>
      </trkpt>
      <trkpt lat="42.857058" lon="0.635177">
        <ele>1374.8</ele>
        <time>2014-12-07T14:15:49Z</time>
      </trkpt>
      <trkpt lat="42.857101" lon="0.635063">
        <ele>1371.9</ele>
        <time>2014-12-07T14:15:58Z</time>
      </trkpt>
      <trkpt lat="42.857132" lon="0.634946">
        <ele>1368.7</ele>
        <time>2014-12-07T14:16:06Z</time>
      </trkpt>
      <trkpt lat="42.857153" lon="0.634828">
        <ele>1365.4</ele>
        <time>2014-12-07T14:16:15Z</time>
      </trkpt>
      <trkpt lat="42.857130" lon="0.634715">
        <ele>1362.3</ele>
        <time>2014-12-07T14:16:25Z</time>
      </trkpt>
      <trkpt lat="42.857175" lon="0.634605">
        <ele>1359.5</ele>
        <time>2014-12-07T14:16:33Z</time>
      </trkpt>
      <trkpt lat="42.857188" lon="0.634475">
        <ele>1356.9</ele>
        <time>2014-12-07T14:16:41Z</time>
      </trkpt>
      <trkpt lat="42.857219" lon="0.634345">
        <ele>1353.7</ele>
        <time>2014-12-07T14:16:50Z</time>
      </trkpt>
      <trkpt lat="42.857254" lon="0.634225">
        <ele>1350.6</ele>
        <time>2014-12-07T14:16:58Z</time>
      </trkpt>
      <trkpt lat="42.857306" lon="0.634126">
        <ele>1348.2</ele>
        <time>2014-12-07T14:17:08Z</time>
      </trkpt>
      <trkpt lat="42.857360" lon="0.634028">
        <ele>1345.6</ele>
        <time>2014-12-07T14:17:18Z</time>
      </trkpt>
      <trkpt lat="42.857382" lon="0.633899">
        <ele>1342.0</ele>
        <time>2014-12-07T14:17:27Z</time>
      </trkpt>
      <trkpt lat="42.857307" lon="0.633835">
        <ele>1339.3</ele>
        <time>2014-12-07T14:17:35Z</time>
      </trkpt>
      <trkpt lat="42.857244" lon="0.633740">
        <ele>1337.3</ele>
        <time>2014-12-07T14:17:43Z</time>
      </trkpt>
      <trkpt lat="42.857180" lon="0.633675">
        <ele>1334.9</ele>
        <time>2014-12-07T14:17:50Z</time>
      </trkpt>
      <trkpt lat="42.857114" lon="0.633597">
        <ele>1333.1</ele>
        <time>2014-12-07T14:17:58Z</time>
      </trkpt>
      <trkpt lat="42.857037" lon="0.633514">
        <ele>1330.7</ele>
        <time>2014-12-07T14:18:10Z</time>
      </trkpt>
      <trkpt lat="42.856975" lon="0.633400">
        <ele>1328.2</ele>
        <time>2014-12-07T14:26:00Z</time>
      </trkpt>
      <trkpt lat="42.856956" lon="0.633260">
        <ele>1327.0</ele>
        <time>2014-12-07T14:26:07Z</time>
      </trkpt>
      <trkpt lat="42.856898" lon="0.633155">
        <ele>1324.4</ele>
        <time>2014-12-07T14:26:14Z</time>
      </trkpt>
      <trkpt lat="42.856881" lon="0.633026">
        <ele>1321.6</ele>
        <time>2014-12-07T14:26:22Z</time>
      </trkpt>
      <trkpt lat="42.856868" lon="0.632889">
        <ele>1319.1</ele>
        <time>2014-12-07T14:26:30Z</time>
      </trkpt>
      <trkpt lat="42.856849" lon="0.632756">
        <ele>1316.6</ele>
        <time>2014-12-07T14:26:37Z</time>
      </trkpt>
      <trkpt lat="42.856864" lon="0.632625">
        <ele>1313.5</ele>
        <time>2014-12-07T14:26:45Z</time>
      </trkpt>
      <trkpt lat="42.856894" lon="0.632498">
        <ele>1311.2</ele>
        <time>2014-12-07T14:26:53Z</time>
      </trkpt>
      <trkpt lat="42.856898" lon="0.632375">
        <ele>1309.2</ele>
        <time>2014-12-07T14:27:00Z</time>
      </trkpt>
      <trkpt lat="42.856926" lon="0.632257">
        <ele>1306.3</ele>
        <time>2014-12-07T14:27:07Z</time>
      </trkpt>
      <trkpt lat="42.856943" lon="0.632126">
        <ele>1304.1</ele>
        <time>2014-12-07T14:27:14Z</time>
      </trkpt>
      <trkpt lat="42.856980" lon="0.631999">
        <ele>1301.2</ele>
        <time>2014-12-07T14:27:22Z</time>
      </trkpt>
      <trkpt lat="42.857023" lon="0.631886">
        <ele>1297.8</ele>
        <time>2014-12-07T14:27:30Z</time>
      </trkpt>
      <trkpt lat="42.857048" lon="0.631788">
        <ele>1294.2</ele>
        <time>2014-12-07T14:27:40Z</time>
      </trkpt>
      <trkpt lat="42.857124" lon="0.631688">
        <ele>1291.4</ele>
        <time>2014-12-07T14:27:49Z</time>
      </trkpt>
      <trkpt lat="42.857166" lon="0.631578">
        <ele>1288.8</ele>
        <time>2014-12-07T14:27:57Z</time>
      </trkpt>
      <trkpt lat="42.857181" lon="0.631463">
        <ele>1286.9</ele>
        <time>2014-12-07T14:28:05Z</time>
      </trkpt>
      <trkpt lat="42.857162" lon="0.631333">
        <ele>1283.8</ele>
        <time>2014-12-07T14:28:14Z</time>
      </trkpt>
      <trkpt lat="42.857163" lon="0.631184">
        <ele>1280.6</ele>
        <time>2014-12-07T14:28:24Z</time>
      </trkpt>
      <trkpt lat="42.857162" lon="0.631027">
        <ele>1277.4</ele>
        <time>2014-12-07T14:28:33Z</time>
      </trkpt>
      <trkpt lat="42.857225" lon="0.630937">
        <ele>1273.5</ele>
        <time>2014-12-07T14:28:42Z</time>
      </trkpt>
      <trkpt lat="42.857313" lon="0.630846">
        <ele>1269.9</ele>
        <time>2014-12-07T14:28:51Z</time>
      </trkpt>
      <trkpt lat="42.857328" lon="0.630689">
        <ele>1267.0</ele>
        <time>2014-12-07T14:29:00Z</time>
      </trkpt>
      <trkpt lat="42.857336" lon="0.630564">
        <ele>1263.8</ele>
        <time>2014-12-07T14:29:09Z</time>
      </trkpt>
      <trkpt lat="42.857328" lon="0.630403">
        <ele>1261.1</ele>
        <time>2014-12-07T14:29:17Z</time>
      </trkpt>
      <trkpt lat="42.857334" lon="0.630247">
        <ele>1258.4</ele>
        <time>2014-12-07T14:29:25Z</time>
      </trkpt>
      <trkpt lat="42.857345" lon="0.630111">
        <ele>1256.0</ele>
        <time>2014-12-07T14:29:33Z</time>
      </trkpt>
      <trkpt lat="42.857371" lon="0.630015">
        <ele>1252.4</ele>
        <time>2014-12-07T14:29:51Z</time>
      </trkpt>
      <trkpt lat="42.857382" lon="0.629895">
        <ele>1251.2</ele>
        <time>2014-12-07T14:31:05Z</time>
      </trkpt>
      <trkpt lat="42.857392" lon="0.629750">
        <ele>1249.3</ele>
        <time>2014-12-07T14:31:14Z</time>
      </trkpt>
      <trkpt lat="42.857407" lon="0.629612">
        <ele>1247.1</ele>
        <time>2014-12-07T14:31:23Z</time>
      </trkpt>
      <trkpt lat="42.857418" lon="0.629481">
        <ele>1245.2</ele>
        <time>2014-12-07T14:31:31Z</time>
      </trkpt>
      <trkpt lat="42.857416" lon="0.629352">
        <ele>1243.5</ele>
        <time>2014-12-07T14:31:39Z</time>
      </trkpt>
      <trkpt lat="42.857405" lon="0.629209">
        <ele>1241.5</ele>
        <time>2014-12-07T14:31:48Z</time>
      </trkpt>
      <trkpt lat="42.857415" lon="0.629071">
        <ele>1239.7</ele>
        <time>2014-12-07T14:31:57Z</time>
      </trkpt>
      <trkpt lat="42.857419" lon="0.628948">
        <ele>1237.2</ele>
        <time>2014-12-07T14:32:06Z</time>
      </trkpt>
      <trkpt lat="42.857411" lon="0.628812">
        <ele>1234.8</ele>
        <time>2014-12-07T14:32:15Z</time>
      </trkpt>
      <trkpt lat="42.857430" lon="0.628660">
        <ele>1232.5</ele>
        <time>2014-12-07T14:32:24Z</time>
      </trkpt>
      <trkpt lat="42.857519" lon="0.628662">
        <ele>1230.4</ele>
        <time>2014-12-07T14:32:32Z</time>
      </trkpt>
      <trkpt lat="42.857613" lon="0.628724">
        <ele>1228.5</ele>
        <time>2014-12-07T14:32:41Z</time>
      </trkpt>
      <trkpt lat="42.857708" lon="0.628735">
        <ele>1226.5</ele>
        <time>2014-12-07T14:32:49Z</time>
      </trkpt>
      <trkpt lat="42.857701" lon="0.628605">
        <ele>1224.1</ele>
        <time>2014-12-07T14:32:57Z</time>
      </trkpt>
      <trkpt lat="42.857669" lon="0.628491">
        <ele>1222.4</ele>
        <time>2014-12-07T14:33:05Z</time>
      </trkpt>
      <trkpt lat="42.857636" lon="0.628341">
        <ele>1220.5</ele>
        <time>2014-12-07T14:33:14Z</time>
      </trkpt>
      <trkpt lat="42.857615" lon="0.628225">
        <ele>1218.9</ele>
        <time>2014-12-07T14:33:21Z</time>
      </trkpt>
      <trkpt lat="42.857563" lon="0.628097">
        <ele>1217.1</ele>
        <time>2014-12-07T14:33:30Z</time>
      </trkpt>
      <trkpt lat="42.857537" lon="0.627964">
        <ele>1215.1</ele>
        <time>2014-12-07T14:33:38Z</time>
      </trkpt>
      <trkpt lat="42.857614" lon="0.627868">
        <ele>1213.1</ele>
        <time>2014-12-07T14:33:46Z</time>
      </trkpt>
      <trkpt lat="42.857707" lon="0.627915">
        <ele>1210.9</ele>
        <time>2014-12-07T14:33:55Z</time>
      </trkpt>
      <trkpt lat="42.857833" lon="0.627906">
        <ele>1208.4</ele>
        <time>2014-12-07T14:34:05Z</time>
      </trkpt>
      <trkpt lat="42.857907" lon="0.627855">
        <ele>1206.5</ele>
        <time>2014-12-07T14:34:13Z</time>
      </trkpt>
      <trkpt lat="42.857942" lon="0.627751">
        <ele>1204.1</ele>
        <time>2014-12-07T14:34:22Z</time>
      </trkpt>
      <trkpt lat="42.857932" lon="0.627623">
        <ele>1201.6</ele>
        <time>2014-12-07T14:34:31Z</time>
      </trkpt>
      <trkpt lat="42.857910" lon="0.627494">
        <ele>1199.3</ele>
        <time>2014-12-07T14:34:39Z</time>
      </trkpt>
      <trkpt lat="42.857865" lon="0.627386">
        <ele>1197.0</ele>
        <time>2014-12-07T14:34:47Z</time>
      </trkpt>
      <trkpt lat="42.857846" lon="0.627261">
        <ele>1195.2</ele>
        <time>2014-12-07T14:34:55Z</time>
      </trkpt>
      <trkpt lat="42.857896" lon="0.627171">
        <ele>1192.6</ele>
        <time>2014-12-07T14:35:04Z</time>
      </trkpt>
      <trkpt lat="42.857999" lon="0.627132">
        <ele>1190.0</ele>
        <time>2014-12-07T14:35:14Z</time>
      </trkpt>
      <trkpt lat="42.858113" lon="0.627177">
        <ele>1186.9</ele>
        <time>2014-12-07T14:35:24Z</time>
      </trkpt>
      <trkpt lat="42.858204" lon="0.627235">
        <ele>1184.6</ele>
        <time>2014-12-07T14:35:32Z</time>
      </trkpt>
      <trkpt lat="42.858303" lon="0.627225">
        <ele>1182.4</ele>
        <time>2014-12-07T14:35:42Z</time>
      </trkpt>
      <trkpt lat="42.858423" lon="0.627161">
        <ele>1179.9</ele>
        <time>2014-12-07T14:35:51Z</time>
      </trkpt>
      <trkpt lat="42.858516" lon="0.627091">
        <ele>1177.4</ele>
        <time>2014-12-07T14:35:59Z</time>
      </trkpt>
      <trkpt lat="42.858579" lon="0.627000">
        <ele>1175.5</ele>
        <time>2014-12-07T14:36:07Z</time>
      </trkpt>
      <trkpt lat="42.858595" lon="0.626878">
        <ele>1173.8</ele>
        <time>2014-12-07T14:36:14Z</time>
      </trkpt>
      <trkpt lat="42.858605" lon="0.626758">
        <ele>1172.0</ele>
        <time>2014-12-07T14:36:21Z</time>
      </trkpt>
      <trkpt lat="42.858648" lon="0.626633">
        <ele>1169.8</ele>
        <time>2014-12-07T14:36:29Z</time>
      </trkpt>
      <trkpt lat="42.858692" lon="0.626509">
        <ele>1167.6</ele>
        <time>2014-12-07T14:36:36Z</time>
      </trkpt>
      <trkpt lat="42.858673" lon="0.626381">
        <ele>1165.8</ele>
        <time>2014-12-07T14:36:43Z</time>
      </trkpt>
      <trkpt lat="42.858597" lon="0.626321">
        <ele>1164.5</ele>
        <time>2014-12-07T14:36:50Z</time>
      </trkpt>
      <trkpt lat="42.858508" lon="0.626328">
        <ele>1163.1</ele>
        <time>2014-12-07T14:36:57Z</time>
      </trkpt>
      <trkpt lat="42.858413" lon="0.626358">
        <ele>1162.1</ele>
        <time>2014-12-07T14:37:03Z</time>
      </trkpt>
      <trkpt lat="42.858327" lon="0.626347">
        <ele>1160.0</ele>
        <time>2014-12-07T14:37:11Z</time>
      </trkpt>
      <trkpt lat="42.858322" lon="0.626228">
        <ele>1157.8</ele>
        <time>2014-12-07T14:37:19Z</time>
      </trkpt>
      <trkpt lat="42.858352" lon="0.626108">
        <ele>1155.9</ele>
        <time>2014-12-07T14:37:26Z</time>
      </trkpt>
      <trkpt lat="42.858407" lon="0.625997">
        <ele>1153.9</ele>
        <time>2014-12-07T14:37:34Z</time>
      </trkpt>
      <trkpt lat="42.858442" lon="0.625885">
        <ele>1152.0</ele>
        <time>2014-12-07T14:37:41Z</time>
      </trkpt>
      <trkpt lat="42.858466" lon="0.625769">
        <ele>1150.1</ele>
        <time>2014-12-07T14:37:49Z</time>
      </trkpt>
      <trkpt lat="42.858415" lon="0.625674">
        <ele>1148.0</ele>
        <time>2014-12-07T14:37:58Z</time>
      </trkpt>
      <trkpt lat="42.858333" lon="0.625600">
        <ele>1145.6</ele>
        <time>2014-12-07T14:38:06Z</time>
      </trkpt>
      <trkpt lat="42.858315" lon="0.625486">
        <ele>1144.1</ele>
        <time>2014-12-07T14:38:13Z</time>
      </trkpt>
      <trkpt lat="42.858390" lon="0.625410">
        <ele>1142.2</ele>
        <time>2014-12-07T14:38:21Z</time>
      </trkpt>
      <trkpt lat="42.858356" lon="0.625316">
        <ele>1140.6</ele>
        <time>2014-12-07T14:38:29Z</time>
      </trkpt>
      <trkpt lat="42.858266" lon="0.625325">
        <ele>1139.0</ele>
        <time>2014-12-07T14:38:37Z</time>
      </trkpt>
      <trkpt lat="42.858257" lon="0.625212">
        <ele>1137.0</ele>
        <time>2014-12-07T14:38:46Z</time>
      </trkpt>
      <trkpt lat="42.858256" lon="0.625081">
        <ele>1134.6</ele>
        <time>2014-12-07T14:38:55Z</time>
      </trkpt>
      <trkpt lat="42.858268" lon="0.624962">
        <ele>1132.4</ele>
        <time>2014-12-07T14:39:04Z</time>
      </trkpt>
      <trkpt lat="42.858292" lon="0.624837">
        <ele>1130.0</ele>
        <time>2014-12-07T14:39:14Z</time>
      </trkpt>
      <trkpt lat="42.858299" lon="0.624707">
        <ele>1128.2</ele>
        <time>2014-12-07T14:39:22Z</time>
      </trkpt>
      <trkpt lat="42.858316" lon="0.624592">
        <ele>1126.5</ele>
        <time>2014-12-07T14:39:30Z</time>
      </trkpt>
      <trkpt lat="42.858307" lon="0.624475">
        <ele>1123.8</ele>
        <time>2014-12-07T14:39:39Z</time>
      </trkpt>
      <trkpt lat="42.858251" lon="0.624409">
        <ele>1121.4</ele>
        <time>2014-12-07T14:39:48Z</time>
      </trkpt>
      <trkpt lat="42.858161" lon="0.624411">
        <ele>1119.4</ele>
        <time>2014-12-07T14:39:57Z</time>
      </trkpt>
      <trkpt lat="42.858084" lon="0.624452">
        <ele>1116.1</ele>
        <time>2014-12-07T14:40:08Z</time>
      </trkpt>
      <trkpt lat="42.858039" lon="0.624339">
        <ele>1114.4</ele>
        <time>2014-12-07T14:40:17Z</time>
      </trkpt>
      <trkpt lat="42.858063" lon="0.624211">
        <ele>1112.7</ele>
        <time>2014-12-07T14:40:26Z</time>
      </trkpt>
      <trkpt lat="42.858101" lon="0.624097">
        <ele>1110.5</ele>
        <time>2014-12-07T14:40:34Z</time>
      </trkpt>
      <trkpt lat="42.858153" lon="0.623989">
        <ele>1109.2</ele>
        <time>2014-12-07T14:40:42Z</time>
      </trkpt>
      <trkpt lat="42.858218" lon="0.623873">
        <ele>1107.6</ele>
        <time>2014-12-07T14:40:50Z</time>
      </trkpt>
      <trkpt lat="42.858288" lon="0.623776">
        <ele>1105.9</ele>
        <time>2014-12-07T14:40:58Z</time>
      </trkpt>
      <trkpt lat="42.858349" lon="0.623688">
        <ele>1104.8</ele>
        <time>2014-12-07T14:41:05Z</time>
      </trkpt>
      <trkpt lat="42.858422" lon="0.623593">
        <ele>1103.6</ele>
        <time>2014-12-07T14:41:13Z</time>
      </trkpt>
      <trkpt lat="42.858494" lon="0.623511">
        <ele>1102.6</ele>
        <time>2014-12-07T14:41:21Z</time>
      </trkpt>
      <trkpt lat="42.858586" lon="0.623553">
        <ele>1101.8</ele>
        <time>2014-12-07T14:41:29Z</time>
      </trkpt>
      <trkpt lat="42.858632" lon="0.623673">
        <ele>1100.7</ele>
        <time>2014-12-07T14:41:37Z</time>
      </trkpt>
      <trkpt lat="42.858633" lon="0.623813">
        <ele>1099.7</ele>
        <time>2014-12-07T14:41:45Z</time>
      </trkpt>
      <trkpt lat="42.858637" lon="0.623945">
        <ele>1098.8</ele>
        <time>2014-12-07T14:41:52Z</time>
      </trkpt>
      <trkpt lat="42.858689" lon="0.624055">
        <ele>1097.2</ele>
        <time>2014-12-07T14:42:00Z</time>
      </trkpt>
      <trkpt lat="42.858676" lon="0.624171">
        <ele>1095.5</ele>
        <time>2014-12-07T14:42:08Z</time>
      </trkpt>
      <trkpt lat="42.858728" lon="0.624282">
        <ele>1092.7</ele>
        <time>2014-12-07T14:42:19Z</time>
      </trkpt>
      <trkpt lat="42.858846" lon="0.624335">
        <ele>1089.6</ele>
        <time>2014-12-07T14:42:32Z</time>
      </trkpt>
      <trkpt lat="42.858973" lon="0.624389">
        <ele>1087.2</ele>
        <time>2014-12-07T14:42:41Z</time>
      </trkpt>
      <trkpt lat="42.859064" lon="0.624329">
        <ele>1085.0</ele>
        <time>2014-12-07T14:42:50Z</time>
      </trkpt>
      <trkpt lat="42.859041" lon="0.624208">
        <ele>1082.9</ele>
        <time>2014-12-07T14:42:58Z</time>
      </trkpt>
      <trkpt lat="42.859023" lon="0.624070">
        <ele>1080.7</ele>
        <time>2014-12-07T14:43:06Z</time>
      </trkpt>
      <trkpt lat="42.859012" lon="0.623939">
        <ele>1078.8</ele>
        <time>2014-12-07T14:43:14Z</time>
      </trkpt>
      <trkpt lat="42.859013" lon="0.623815">
        <ele>1076.9</ele>
        <time>2014-12-07T14:43:23Z</time>
      </trkpt>
      <trkpt lat="42.859009" lon="0.623694">
        <ele>1075.1</ele>
        <time>2014-12-07T14:43:31Z</time>
      </trkpt>
      <trkpt lat="42.859035" lon="0.623557">
        <ele>1073.5</ele>
        <time>2014-12-07T14:43:40Z</time>
      </trkpt>
      <trkpt lat="42.859039" lon="0.623410">
        <ele>1071.7</ele>
        <time>2014-12-07T14:43:48Z</time>
      </trkpt>
      <trkpt lat="42.859027" lon="0.623270">
        <ele>1070.2</ele>
        <time>2014-12-07T14:43:56Z</time>
      </trkpt>
      <trkpt lat="42.859015" lon="0.623133">
        <ele>1068.9</ele>
        <time>2014-12-07T14:44:03Z</time>
      </trkpt>
      <trkpt lat="42.858948" lon="0.622961">
        <ele>1067.1</ele>
        <time>2014-12-07T14:44:11Z</time>
      </trkpt>
      <trkpt lat="42.858947" lon="0.622829">
        <ele>1065.1</ele>
        <time>2014-12-07T14:44:19Z</time>
      </trkpt>
      <trkpt lat="42.858976" lon="0.622696">
        <ele>1062.7</ele>
        <time>2014-12-07T14:44:29Z</time>
      </trkpt>
      <trkpt lat="42.859051" lon="0.622744">
        <ele>1061.1</ele>
        <time>2014-12-07T14:44:38Z</time>
      </trkpt>
      <trkpt lat="42.859106" lon="0.622859">
        <ele>1058.9</ele>
        <time>2014-12-07T14:44:46Z</time>
      </trkpt>
      <trkpt lat="42.859171" lon="0.622804">
        <ele>1057.0</ele>
        <time>2014-12-07T14:44:54Z</time>
      </trkpt>
      <trkpt lat="42.859197" lon="0.622699">
        <ele>1054.1</ele>
        <time>2014-12-07T14:45:07Z</time>
      </trkpt>
      <trkpt lat="42.859249" lon="0.622561">
        <ele>1052.5</ele>
        <time>2014-12-07T14:45:24Z</time>
      </trkpt>
      <trkpt lat="42.859303" lon="0.622442">
        <ele>1051.0</ele>
        <time>2014-12-07T14:45:33Z</time>
      </trkpt>
      <trkpt lat="42.859333" lon="0.622327">
        <ele>1049.2</ele>
        <time>2014-12-07T14:45:40Z</time>
      </trkpt>
      <trkpt lat="42.859323" lon="0.622202">
        <ele>1047.3</ele>
        <time>2014-12-07T14:45:48Z</time>
      </trkpt>
      <trkpt lat="42.859326" lon="0.622075">
        <ele>1045.3</ele>
        <time>2014-12-07T14:45:57Z</time>
      </trkpt>
      <trkpt lat="42.859334" lon="0.621973">
        <ele>1042.6</ele>
        <time>2014-12-07T14:46:17Z</time>
      </trkpt>
      <trkpt lat="42.859345" lon="0.621853">
        <ele>1042.0</ele>
        <time>2014-12-07T14:46:25Z</time>
      </trkpt>
      <trkpt lat="42.859354" lon="0.621734">
        <ele>1040.8</ele>
        <time>2014-12-07T14:46:33Z</time>
      </trkpt>
      <trkpt lat="42.859408" lon="0.621624">
        <ele>1039.4</ele>
        <time>2014-12-07T14:46:41Z</time>
      </trkpt>
      <trkpt lat="42.859474" lon="0.621524">
        <ele>1038.0</ele>
        <time>2014-12-07T14:46:48Z</time>
      </trkpt>
      <trkpt lat="42.859424" lon="0.621436">
        <ele>1036.0</ele>
        <time>2014-12-07T14:46:55Z</time>
      </trkpt>
      <trkpt lat="42.859335" lon="0.621390">
        <ele>1034.2</ele>
        <time>2014-12-07T14:47:04Z</time>
      </trkpt>
      <trkpt lat="42.859234" lon="0.621410">
        <ele>1032.0</ele>
        <time>2014-12-07T14:47:14Z</time>
      </trkpt>
      <trkpt lat="42.859197" lon="0.621316">
        <ele>1029.8</ele>
        <time>2014-12-07T14:47:23Z</time>
      </trkpt>
      <trkpt lat="42.859233" lon="0.621206">
        <ele>1028.2</ele>
        <time>2014-12-07T14:47:31Z</time>
      </trkpt>
      <trkpt lat="42.859280" lon="0.621105">
        <ele>1026.6</ele>
        <time>2014-12-07T14:47:39Z</time>
      </trkpt>
      <trkpt lat="42.859357" lon="0.621068">
        <ele>1024.6</ele>
        <time>2014-12-07T14:47:47Z</time>
      </trkpt>
      <trkpt lat="42.859419" lon="0.620968">
        <ele>1022.7</ele>
        <time>2014-12-07T14:47:55Z</time>
      </trkpt>
      <trkpt lat="42.859402" lon="0.620842">
        <ele>1021.2</ele>
        <time>2014-12-07T14:48:02Z</time>
      </trkpt>
      <trkpt lat="42.859343" lon="0.620767">
        <ele>1019.8</ele>
        <time>2014-12-07T14:48:09Z</time>
      </trkpt>
      <trkpt lat="42.859253" lon="0.620776">
        <ele>1017.8</ele>
        <time>2014-12-07T14:48:17Z</time>
      </trkpt>
      <trkpt lat="42.859158" lon="0.620775">
        <ele>1016.0</ele>
        <time>2014-12-07T14:48:26Z</time>
      </trkpt>
      <trkpt lat="42.859065" lon="0.620726">
        <ele>1013.0</ele>
        <time>2014-12-07T14:48:36Z</time>
      </trkpt>
      <trkpt lat="42.858972" lon="0.620714">
        <ele>1010.6</ele>
        <time>2014-12-07T14:48:45Z</time>
      </trkpt>
      <trkpt lat="42.858886" lon="0.620763">
        <ele>1008.3</ele>
        <time>2014-12-07T14:48:55Z</time>
      </trkpt>
      <trkpt lat="42.858794" lon="0.620838">
        <ele>1006.0</ele>
        <time>2014-12-07T14:49:04Z</time>
      </trkpt>
      <trkpt lat="42.858711" lon="0.620910">
        <ele>1003.8</ele>
        <time>2014-12-07T14:49:13Z</time>
      </trkpt>
      <trkpt lat="42.858614" lon="0.620960">
        <ele>1001.8</ele>
        <time>2014-12-07T14:49:22Z</time>
      </trkpt>
      <trkpt lat="42.858503" lon="0.620980">
        <ele>999.6</ele>
        <time>2014-12-07T14:49:31Z</time>
      </trkpt>
      <trkpt lat="42.858399" lon="0.620990">
        <ele>997.5</ele>
        <time>2014-12-07T14:49:40Z</time>
      </trkpt>
      <trkpt lat="42.858289" lon="0.620959">
        <ele>996.1</ele>
        <time>2014-12-07T14:49:49Z</time>
      </trkpt>
      <trkpt lat="42.858185" lon="0.620919">
        <ele>994.8</ele>
        <time>2014-12-07T14:49:56Z</time>
      </trkpt>
      <trkpt lat="42.858098" lon="0.620846">
        <ele>993.4</ele>
        <time>2014-12-07T14:50:04Z</time>
      </trkpt>
      <trkpt lat="42.858010" lon="0.620773">
        <ele>992.0</ele>
        <time>2014-12-07T14:50:12Z</time>
      </trkpt>
      <trkpt lat="42.857932" lon="0.620687">
        <ele>990.9</ele>
        <time>2014-12-07T14:50:20Z</time>
      </trkpt>
      <trkpt lat="42.857833" lon="0.620635">
        <ele>989.4</ele>
        <time>2014-12-07T14:50:27Z</time>
      </trkpt>
      <trkpt lat="42.857753" lon="0.620608">
        <ele>987.4</ele>
        <time>2014-12-07T14:50:35Z</time>
      </trkpt>
      <trkpt lat="42.857664" lon="0.620555">
        <ele>985.3</ele>
        <time>2014-12-07T14:50:43Z</time>
      </trkpt>
      <trkpt lat="42.857571" lon="0.620529">
        <ele>984.0</ele>
        <time>2014-12-07T14:50:50Z</time>
      </trkpt>
      <trkpt lat="42.857475" lon="0.620499">
        <ele>982.5</ele>
        <time>2014-12-07T14:50:57Z</time>
      </trkpt>
      <trkpt lat="42.857387" lon="0.620421">
        <ele>980.5</ele>
        <time>2014-12-07T14:51:05Z</time>
      </trkpt>
      <trkpt lat="42.857303" lon="0.620346">
        <ele>978.4</ele>
        <time>2014-12-07T14:51:13Z</time>
      </trkpt>
      <trkpt lat="42.857213" lon="0.620292">
        <ele>976.7</ele>
        <time>2014-12-07T14:51:21Z</time>
      </trkpt>
      <trkpt lat="42.857128" lon="0.620252">
        <ele>975.4</ele>
        <time>2014-12-07T14:51:28Z</time>
      </trkpt>
      <trkpt lat="42.857055" lon="0.620147">
        <ele>973.4</ele>
        <time>2014-12-07T14:51:36Z</time>
      </trkpt>
      <trkpt lat="42.856979" lon="0.620122">
        <ele>971.7</ele>
        <time>2014-12-07T14:51:44Z</time>
      </trkpt>
      <trkpt lat="42.856882" lon="0.620139">
        <ele>970.3</ele>
        <time>2014-12-07T14:51:52Z</time>
      </trkpt>
      <trkpt lat="42.856772" lon="0.620178">
        <ele>969.2</ele>
        <time>2014-12-07T14:52:00Z</time>
      </trkpt>
      <trkpt lat="42.856682" lon="0.620170">
        <ele>968.7</ele>
        <time>2014-12-07T14:52:08Z</time>
      </trkpt>
      <trkpt lat="42.856590" lon="0.620165">
        <ele>967.9</ele>
        <time>2014-12-07T14:52:16Z</time>
      </trkpt>
      <trkpt lat="42.856508" lon="0.620189">
        <ele>966.5</ele>
        <time>2014-12-07T14:52:23Z</time>
      </trkpt>
      <trkpt lat="42.856424" lon="0.620251">
        <ele>965.7</ele>
        <time>2014-12-07T14:52:31Z</time>
      </trkpt>
      <trkpt lat="42.856334" lon="0.620305">
        <ele>965.0</ele>
        <time>2014-12-07T14:52:39Z</time>
      </trkpt>
      <trkpt lat="42.856246" lon="0.620352">
        <ele>963.8</ele>
        <time>2014-12-07T14:52:47Z</time>
      </trkpt>
      <trkpt lat="42.856140" lon="0.620416">
        <ele>963.3</ele>
        <time>2014-12-07T14:52:57Z</time>
      </trkpt>
      <trkpt lat="42.856045" lon="0.620455">
        <ele>963.3</ele>
        <time>2014-12-07T14:53:05Z</time>
      </trkpt>
      <trkpt lat="42.855963" lon="0.620510">
        <ele>963.1</ele>
        <time>2014-12-07T14:53:13Z</time>
      </trkpt>
      <trkpt lat="42.855895" lon="0.620478">
        <ele>962.9</ele>
        <time>2014-12-07T14:53:47Z</time>
      </trkpt>
      <trkpt lat="42.855970" lon="0.620424">
        <ele>962.7</ele>
        <time>2014-12-07T14:54:09Z</time>
      </trkpt>
      <trkpt lat="42.855894" lon="0.620525">
        <ele>962.8</ele>
        <time>2014-12-07T14:55:35Z</time>
      </trkpt>
      <trkpt lat="42.855797" lon="0.620514">
        <ele>962.6</ele>
        <time>2014-12-07T14:55:42Z</time>
      </trkpt>
      <trkpt lat="42.855700" lon="0.620524">
        <ele>960.9</ele>
        <time>2014-12-07T14:55:51Z</time>
      </trkpt>
      <trkpt lat="42.855602" lon="0.620511">
        <ele>960.3</ele>
        <time>2014-12-07T14:55:58Z</time>
      </trkpt>
      <trkpt lat="42.855517" lon="0.620517">
        <ele>959.3</ele>
        <time>2014-12-07T14:56:05Z</time>
      </trkpt>
      <trkpt lat="42.855432" lon="0.620547">
        <ele>957.8</ele>
        <time>2014-12-07T14:56:12Z</time>
      </trkpt>
    </trkseg>
  </trk>
</gpx>

